           , 2.025,  2.175,  2.325,  2.475,  2.625,  2.775,  2.925,  3.075,  3.225,  3.375,  3.525,  3.675,  3.825,  3.975,  4.125,  4.275,  4.425,  4.575,  4.725,  4.875,  5.025,  5.175,  5.325,  5.475,  5.625,  5.775,  5.925,  6.075,  6.225,  6.375,  6.525,  6.675,  6.825,  6.975,  7.125,  7.275,  7.425,  7.575,  7.725,  7.875,  8.025,  8.175,  8.325,  8.475,  8.625,  8.775,  8.925,  9.075,  9.225,  9.375,  9.525,  9.675,  9.825,  9.975, 10.125, 10.275, 10.425, 10.575, 10.725, 10.875, 11.025, 11.175, 11.325, 11.475, 11.625, 11.775, 11.925, 12.075, 12.225, 12.375, 12.525, 12.675, 12.825, 12.975, 13.125, 13.275, 13.425, 13.575, 13.725, 13.875, 14.025, 14.175, 14.325, 14.475, 14.625, 14.775, 14.925, 15.075, 15.225, 15.375, 15.525, 15.675, 15.825, 15.975, 16.125, 16.275, 16.425, 16.575, 16.725, 16.875, 17.025, 17.175, 17.325, 17.475, 17.625, 17.775, 17.925, 18.075, 18.225, 18.375, 18.525, 18.675, 18.825, 18.975, 19.125, 19.275, 19.425, 19.575, 19.725, 19.875
2012/12/06 00:05,    0.2,    0.3,    0.2,    0.4,    0.4,    0.4,    0.3,    0.4,    0.4,    0.4,    0.5,    0.5,    0.5,    0.5,    0.4,    0.2,    0.2,    0.2,    0.1,    0.2,    0.1,   -0.0,   -0.1,   -0.2,   -0.1,   -0.1,   -0.2,   -0.2,   -0.2,   -0.4,   -0.3,   -0.4,   -0.4,   -0.3,   -0.3,   -0.3,   -0.4,   -0.3,   -0.1,   -0.3,   -0.4,   -0.4,   -0.4,   -0.3,    0.0,    0.1,    0.2,    0.1,    0.0,   -0.1,   -0.0,   -0.1,   -0.1,   -0.1,   -0.2,   -0.2,   -0.1,    0.0,   -0.1,    0.0,    0.1,    0.2,    0.1,    0.2,    0.4,    0.3,    0.3,    0.3,    0.1,    0.1,    0.3,    0.2,    0.1,    0.1,    0.4,    0.5,    0.1,    0.1,    0.2,   -0.1,   -0.3,   -0.4,   -0.5,   -0.7,   -0.5,   -0.5,   -0.5,   -0.5,   -0.2,   -0.3,   -0.3,   -0.4,   -0.3,   -0.4,   -0.6,   -0.2,   -0.3,   -0.1,   -0.2,   -0.2,   -0.2,   -0.2,    0.7,  999.0,  999.0,    0.5,    0.7,    0.7,    0.7,    1.5,    1.0,    1.0,    1.0,    0.8,    0.8,    0.4,    0.6,    0.6,    1.3,  999.0
2012/12/06 00:15,    0.1,    0.2,    0.2,    0.3,    0.2,    0.3,    0.4,    0.2,    0.3,    0.4,    0.3,    0.2,    0.1,    0.2,    0.2,    0.2,    0.2,    0.1,    0.3,    0.2,    0.2,   -0.0,    0.1,   -0.0,    0.0,   -0.1,   -0.2,   -0.1,   -0.0,   -0.1,   -0.1,   -0.1,   -0.3,   -0.1,   -0.3,   -0.3,   -0.2,   -0.1,   -0.1,   -0.2,   -0.2,   -0.3,   -0.2,   -0.2,   -0.1,    0.3,   -0.0,    0.2,    0.1,    0.1,    0.1,    0.2,   -0.1,   -0.1,   -0.1,   -0.3,    0.0,    0.1,    0.1,    0.3,    0.1,    0.1,    0.1,    0.1,    0.1,    0.3,    0.3,   -0.1,    0.3,    0.2,    0.1,    0.2,    0.1,   -0.0,    0.1,    0.3,   -0.0,    0.1,    0.4,    0.2,   -0.2,   -0.2,   -0.0,   -0.4,   -0.2,   -0.2,    0.1,   -0.4,    0.1,   -0.1,   -0.3,    0.1,   -0.5,   -0.5,   -0.6,   -0.3,   -0.5,   -0.6,   -0.5,   -0.5,   -0.7,   -0.8,   -0.7,   -0.6,   -0.7,    0.0,   -0.1,   -0.3,   -0.4,   -0.2,   -0.0,    0.0,    0.1,    0.3,    0.6,    0.3,    0.8,    0.7,  999.0,  999.0
2012/12/06 00:25,    0.2,    0.2,    0.3,    0.2,    0.3,    0.5,    0.4,    0.3,    0.2,    0.3,    0.4,    0.3,    0.3,    0.2,    0.1,    0.0,    0.1,    0.1,    0.2,    0.2,    0.2,    0.1,   -0.0,    0.1,    0.1,    0.1,    0.1,    0.0,    0.1,    0.1,    0.2,    0.0,   -0.1,    0.1,   -0.0,   -0.2,   -0.2,   -0.2,   -0.2,   -0.2,   -0.2,   -0.1,   -0.2,   -0.2,   -0.3,    0.0,    0.1,    0.1,    0.1,    0.2,    0.3,   -0.1,   -0.2,    0.1,    0.1,    0.0,   -0.0,    0.1,   -0.0,    0.3,    0.2,   -0.1,    0.1,    0.1,    0.2,    0.2,    0.1,    0.2,    0.4,    0.2,    0.2,    0.2,    0.1,    0.1,    0.3,    0.4,    0.2,    0.3,    0.3,    0.3,    0.2,    0.3,    0.0,    0.2,    0.2,    0.2,    0.2,    0.1,    0.2,    0.1,   -0.0,    0.2,    0.1,    0.1,   -0.1,    0.2,    0.2,   -0.0,    0.1,    0.2,   -0.1,   -0.1,    0.7,   -0.4,  999.0,    0.2,    0.2,   -0.2,    0.1,    0.2,    0.1,    0.3,    0.2,    0.2,   -0.1,    0.1,    0.5,    0.4,  999.0,  999.0
2012/12/06 00:35,    0.0,    0.2,    0.1,    0.2,    0.2,    0.1,    0.1,    0.1,   -0.0,    0.1,    0.0,   -0.0,    0.1,    0.0,   -0.0,    0.0,   -0.0,    0.1,    0.2,    0.3,    0.5,    0.5,    0.5,    0.5,    0.6,    0.3,    0.2,    0.2,    0.4,    0.2,    0.3,    0.3,    0.2,    0.0,    0.1,    0.1,    0.1,   -0.2,   -0.2,   -0.1,   -0.2,   -0.2,   -0.1,   -0.1,   -0.2,   -0.0,    0.2,    0.1,    0.0,    0.1,    0.0,   -0.1,   -0.3,   -0.3,   -0.0,    0.0,    0.0,    0.1,   -0.1,    0.3,    0.1,   -0.1,   -0.1,    0.0,    0.1,    0.0,   -0.1,    0.4,    0.3,    0.2,    0.3,    0.4,    0.3,    0.5,    0.7,    0.7,    0.6,    0.7,    0.8,    0.9,    0.7,    1.0,    0.4,    0.3,    0.4,    0.5,    0.5,    0.3,    0.2,   -0.0,    0.1,    0.2,    0.4,    0.4,    0.6,    0.6,    0.6,    0.5,    0.3,    0.1,   -0.0,   -0.0,    0.2,   -0.1,  999.0,    0.2,    0.0,   -0.2,    0.0,   -0.1,    0.2,    0.1,   -0.1,    0.1,   -0.2,   -0.2,   -0.3,   -0.4,  999.0,  999.0
2012/12/06 00:45,    0.1,    0.1,    0.1,    0.1,    0.2,    0.2,    0.2,    0.0,    0.1,    0.2,    0.1,    0.1,    0.1,    0.2,    0.3,    0.4,    0.4,    0.6,    0.6,    0.6,    0.6,    0.7,    0.7,    0.8,    0.5,    0.3,    0.4,    0.3,    0.2,    0.3,    0.2,    0.2,    0.3,    0.1,    0.4,    0.3,    0.3,    0.0,    0.1,    0.2,    0.1,   -0.1,   -0.1,   -0.0,    0.2,    0.2,    0.4,   -0.0,    0.1,    0.2,    0.1,   -0.2,   -0.3,   -0.2,    0.1,    0.0,    0.1,    0.1,    0.2,    0.3,    0.3,    0.3,    0.4,    0.4,    0.5,    0.5,    0.4,    0.6,    0.4,    0.5,    0.5,    0.3,    0.5,    0.4,    0.5,    0.8,    0.2,    0.4,    0.5,    0.7,    0.4,    0.5,    0.4,    0.3,    0.4,    0.2,    0.2,    0.1,    0.1,   -0.3,   -0.2,    0.0,    0.2,    0.1,    0.3,    0.3,    0.4,    0.0,   -0.2,   -0.4,   -0.3,   -0.5,  999.0,   -0.3,   -0.1,    0.1,   -0.0,   -0.3,   -0.1,   -0.1,   -0.1,   -0.1,   -0.0,   -0.5,    0.1,    0.3,   -0.2,   -0.4,   -0.3,  999.0
2012/12/06 00:55,   -0.1,   -0.1,   -0.0,   -0.1,   -0.1,   -0.1,   -0.1,   -0.1,   -0.2,   -0.1,   -0.1,   -0.1,   -0.1,    0.1,    0.1,    0.1,    0.1,    0.0,   -0.1,   -0.0,    0.1,    0.1,    0.2,    0.2,    0.1,   -0.1,   -0.0,    0.2,    0.1,    0.0,    0.0,   -0.0,   -0.1,   -0.2,   -0.0,   -0.2,   -0.1,   -0.2,   -0.1,   -0.0,   -0.0,   -0.0,   -0.2,   -0.1,    0.0,    0.1,    0.1,    0.3,    0.3,    0.2,    0.2,   -0.2,   -0.1,    0.2,    0.2,    0.2,    0.2,    0.4,    0.1,    0.1,    0.3,    0.2,    0.3,    0.7,    0.5,    0.5,    0.5,    0.5,    0.4,    0.3,    0.3,    0.4,    0.6,    0.5,    0.9,    0.8,    0.7,    0.8,    1.0,    1.1,    1.2,    0.9,    0.8,    1.1,    1.2,    0.7,    0.6,    0.8,    0.3,    0.4,    0.3,    0.3,    0.8,    0.8,    0.9,    0.9,    1.0,    0.7,    0.4,   -0.0,    0.2,    0.2,  999.0,    0.1,   -0.2,    0.3,    0.2,    0.2,   -0.0,   -0.1,    0.1,   -0.1,    0.2,    0.1,   -0.1,   -0.6,   -0.4,   -0.5,    0.1,  999.0
2012/12/06 01:05,   -0.2,   -0.3,   -0.3,   -0.2,   -0.2,   -0.1,   -0.2,   -0.2,   -0.3,   -0.1,    0.1,    0.1,    0.0,    0.0,    0.0,    0.0,    0.0,    0.1,    0.2,    0.2,    0.3,    0.5,    0.5,    0.5,    0.3,    0.1,    0.1,    0.1,   -0.0,   -0.0,   -0.1,    0.1,   -0.1,   -0.1,   -0.2,   -0.3,   -0.2,    0.0,   -0.0,   -0.1,   -0.2,   -0.3,   -0.0,   -0.0,    0.1,    0.2,    0.2,    0.2,    0.2,    0.2,   -0.0,   -0.0,    0.1,    0.2,    0.2,    0.2,    0.0,    0.3,    0.3,    0.5,    0.2,    0.2,    0.6,    0.5,    0.6,    0.2,   -0.1,    0.5,    0.3,    0.3,    0.3,    0.3,    0.4,    0.4,    0.7,    0.8,    0.6,    0.5,    0.7,    0.8,    0.7,    0.7,    0.6,    0.6,    0.7,    0.4,    0.1,    0.6,    0.3,    0.3,    0.0,    0.1,    0.3,   -0.0,   -0.2,   -0.1,   -0.3,   -0.2,   -0.5,   -0.2,   -0.2,   -0.5,  999.0,   -0.5,   -0.2,    0.1,   -0.3,   -0.5,   -0.2,   -0.3,   -0.4,   -0.5,   -0.6,   -0.3,   -0.1,   -0.4,   -0.3,   -0.4,   -0.2,    0.3
2012/12/06 01:15,   -0.4,   -0.3,   -0.3,   -0.3,   -0.4,   -0.3,   -0.3,   -0.3,   -0.3,   -0.1,   -0.0,    0.0,   -0.0,   -0.1,    0.0,    0.1,    0.1,    0.0,   -0.1,    0.0,    0.1,    0.2,   -0.1,   -0.1,    0.0,   -0.1,   -0.2,   -0.2,   -0.1,   -0.0,   -0.1,   -0.1,   -0.2,   -0.4,   -0.4,   -0.4,   -0.3,   -0.2,   -0.1,   -0.2,   -0.2,   -0.3,   -0.3,   -0.3,    0.0,    0.2,    0.2,    0.3,    0.1,    0.1,   -0.3,   -0.2,   -0.2,   -0.1,    0.0,    0.1,   -0.2,   -0.1,   -0.0,    0.1,   -0.2,   -0.1,    0.3,    0.2,    0.2,   -0.2,    0.3,    0.3,    0.1,    0.2,    0.1,    0.0,    0.2,    0.3,    0.4,    0.8,    0.8,    0.6,    0.8,    0.7,    0.6,    0.8,    0.2,    0.2,    0.5,    0.1,    0.1,   -0.0,    0.0,   -0.1,   -0.3,   -0.2,   -0.5,   -0.4,   -0.4,   -0.3,   -0.5,   -0.7,   -0.9,   -1.4,   -1.3,   -1.5,   -2.0,   -1.3,   -0.7,   -0.8,   -0.9,   -1.7,   -1.5,   -1.6,   -1.5,   -1.4,   -1.5,   -1.3,   -1.1,   -0.8,   -0.1,    0.2,    0.5,    0.6
2012/12/06 01:25,   -0.3,   -0.2,   -0.1,   -0.1,   -0.0,    0.0,   -0.1,   -0.0,   -0.1,   -0.2,   -0.1,   -0.1,   -0.2,    0.3,    0.2,    0.2,    0.1,    0.3,    0.2,    0.2,    0.4,    0.4,    0.3,    0.2,    0.6,    0.3,    0.2,    0.3,    0.1,    0.1,    0.2,    0.2,    0.2,    0.0,   -0.1,   -0.1,   -0.0,   -0.1,    0.1,    0.0,    0.2,    0.0,   -0.0,    0.2,    0.3,    0.2,    0.2,    0.3,    0.3,    0.2,   -0.1,    0.1,    0.1,    0.2,   -0.0,   -0.1,   -0.3,   -0.1,   -0.0,    0.1,    0.0,    0.4,    0.2,    0.1,    0.2,    0.1,    0.3,    0.2,    0.2,    0.2,    0.1,    0.1,    0.1,    0.1,    0.3,    0.6,    0.3,    0.4,    0.6,    0.3,    0.1,    0.3,   -0.0,    0.3,    0.1,   -0.3,   -0.2,   -0.1,   -0.1,   -0.2,   -0.6,   -0.9,   -0.6,   -1.0,   -0.9,   -0.7,   -0.9,   -1.2,   -1.5,   -1.9,   -2.2,   -2.5,   -3.4,  999.0,  999.0,   -2.0,   -2.9,   -2.2,   -2.2,   -2.3,   -2.4,   -1.8,   -1.6,   -1.0,   -0.5,    0.1,    0.9,    1.0,    1.4,    1.4
2012/12/06 01:35,   -0.9,   -0.8,   -0.8,   -0.7,   -0.5,   -0.3,   -0.2,   -0.2,   -0.2,   -0.2,   -0.3,   -0.3,   -0.2,   -0.1,    0.1,    0.2,    0.2,    0.2,    0.2,    0.2,    0.1,    0.1,   -0.0,    0.2,    0.2,    0.0,    0.0,    0.0,   -0.0,   -0.0,    0.2,    0.1,   -0.1,   -0.2,   -0.3,   -0.1,    0.1,    0.3,    0.4,    0.5,    0.4,    0.2,    0.3,    0.7,    0.8,    0.6,    0.4,    0.4,    0.7,    0.6,    0.7,    0.6,    0.5,    0.7,    0.4,    0.2,    0.0,    0.6,    0.4,    0.6,    0.4,    0.5,    0.7,    0.3,    0.4,    0.3,    0.5,    0.3,    0.4,    0.5,    0.2,    0.3,    0.3,    0.4,    0.6,    0.4,    0.4,    0.9,    0.7,    0.7,    0.8,    0.2,    0.5,    0.9,    0.8,    0.5,    0.3,    0.3,    0.1,    0.1,   -0.4,   -0.4,   -0.3,   -0.5,   -0.7,   -0.7,   -1.0,   -1.2,   -1.2,   -1.5,   -1.7,   -2.2,   -2.4,  999.0,  999.0,   -2.2,   -2.7,   -2.2,   -2.3,   -2.3,   -1.8,   -1.6,   -1.1,   -0.9,   -0.0,    0.6,    1.5,    1.8,    2.6,    2.5
2012/12/06 01:45,   -0.9,   -0.8,   -1.2,   -0.9,   -0.7,   -0.4,   -0.4,   -0.4,   -0.3,   -0.2,   -0.2,   -0.2,   -0.2,    0.1,    0.2,    0.0,    0.0,    0.1,    0.1,    0.1,    0.1,    0.1,    0.1,    0.1,    0.1,   -0.1,   -0.0,   -0.0,    0.1,    0.2,   -0.0,   -0.1,   -0.0,    0.0,   -0.0,    0.1,    0.3,    0.5,    0.5,    0.4,    0.4,    0.3,    0.4,    0.8,    0.7,    0.6,    0.7,    0.7,    0.6,    0.5,    0.4,    0.4,    0.6,    0.4,    0.4,    0.1,    0.0,    0.2,    0.2,    0.3,    0.3,    0.6,    0.6,    0.3,    0.6,    0.3,    0.4,    0.2,    0.3,    0.7,    0.2,    0.2,    0.4,    0.6,    0.5,    0.4,    0.6,    0.6,    0.8,    0.8,  999.0,    0.6,    0.2,    0.7,    0.4,    0.1,    0.0,    0.1,    0.2,   -0.3,    0.1,   -0.2,    0.0,   -0.5,   -0.7,   -0.8,   -0.6,   -1.0,   -0.8,   -1.0,   -1.1,   -1.5,   -1.8,  999.0,  999.0,   -2.0,   -1.4,   -1.4,   -1.3,   -1.1,   -0.9,   -0.7,   -0.5,   -0.2,    0.3,    0.6,    1.2,    1.7,    1.4,    1.2
2012/12/06 01:55,   -0.7,   -0.7,   -0.5,   -0.6,   -0.4,   -0.5,   -0.4,   -0.4,   -0.4,   -0.4,   -0.3,   -0.0,   -0.0,    0.1,    0.0,   -0.0,   -0.1,   -0.2,   -0.1,   -0.1,   -0.1,    0.0,   -0.0,   -0.1,   -0.1,   -0.3,   -0.1,   -0.1,   -0.2,   -0.3,   -0.4,   -0.3,   -0.2,   -0.3,   -0.3,   -0.0,   -0.0,    0.1,    0.1,    0.2,    0.1,   -0.1,   -0.1,    0.2,    0.2,    0.1,    0.2,    0.2,    0.3,    0.2,    0.2,    0.1,    0.0,    0.1,    0.4,    0.1,    0.1,    0.1,    0.4,    0.4,    0.4,    0.9,    0.9,    0.3,    0.6,    0.3,    0.3,    0.4,    0.5,    0.6,    0.4,    0.4,    0.7,    0.5,    0.9,    0.7,    0.7,    0.5,    0.6,    0.6,  999.0,  999.0,    0.2,    0.2,    0.1,    0.0,   -0.2,   -0.0,    0.0,   -0.1,   -0.1,   -0.1,   -0.2,   -0.3,   -0.6,   -0.7,   -0.6,   -0.5,   -0.9,   -0.8,   -1.2,   -1.5,   -1.5,   -1.4,   -1.2,   -0.6,   -0.8,   -0.9,   -0.8,   -0.4,   -0.4,   -0.2,    0.0,    0.2,    0.6,    0.6,    1.0,    1.2,    1.0,    1.1
2012/12/06 02:05,   -0.8,   -0.4,   -0.4,   -0.5,   -0.6,   -0.5,   -0.4,   -0.4,   -0.3,   -0.3,   -0.2,   -0.1,   -0.1,   -0.2,   -0.2,   -0.1,   -0.0,    0.0,   -0.1,   -0.2,   -0.2,   -0.3,   -0.2,   -0.1,   -0.2,   -0.5,   -0.2,   -0.2,   -0.5,   -0.5,   -0.3,   -0.4,   -0.3,   -0.4,   -0.5,    0.1,   -0.0,    0.0,    0.2,    0.2,   -0.1,   -0.1,    0.1,    0.0,    0.3,    0.4,    0.5,    0.4,    0.4,    0.3,    0.3,    0.1,    0.2,    0.4,    0.6,    0.5,    0.4,    0.3,    0.4,    0.3,    0.5,    0.3,    0.9,    0.8,    0.5,    0.6,    0.5,    0.5,    0.5,    0.7,    0.7,    0.6,    0.8,    0.7,    1.0,    1.3,    0.7,    0.5,    0.6,    0.6,    0.5,  999.0,    0.3,    0.5,    0.3,    0.3,    0.1,    0.1,    0.1,   -0.2,   -0.2,    0.0,   -0.3,   -0.3,   -0.4,   -0.5,   -0.6,   -0.6,   -0.7,   -1.1,   -1.2,   -1.3,   -1.4,   -1.3,   -1.0,   -0.3,   -0.1,   -0.7,   -0.8,   -0.7,   -0.8,   -0.7,   -0.3,    0.1,    0.6,    0.9,    1.3,    1.7,    1.6,  999.0
2012/12/06 02:15,   -0.3,   -0.3,   -0.4,   -0.4,   -0.4,   -0.3,   -0.2,   -0.1,   -0.1,   -0.1,   -0.0,   -0.0,    0.0,   -0.1,   -0.1,    0.0,   -0.1,   -0.2,   -0.1,   -0.0,   -0.1,   -0.2,   -0.0,   -0.1,   -0.3,   -0.2,   -0.2,   -0.2,   -0.4,   -0.3,   -0.3,   -0.4,   -0.4,   -0.4,   -0.5,    0.1,    0.0,   -0.2,   -0.1,   -0.2,   -0.1,   -0.1,    0.0,    0.1,    0.3,    0.4,    0.3,    0.2,    0.4,    0.3,    0.5,    0.1,    0.2,    0.3,    0.3,    0.4,    0.3,    0.0,    0.0,    0.2,    0.6,    0.1,    0.8,    0.8,    0.5,    0.5,    0.6,    0.6,    0.5,    0.7,    0.4,    0.5,    0.6,    0.5,    0.6,    1.1,    0.6,    0.4,    0.7,    1.0,    1.7,    0.7,    1.0,    0.8,    0.7,    0.8,    0.7,    0.6,    0.3,    0.5,    0.4,    0.4,    0.4,    0.2,    0.0,    0.0,   -0.1,   -0.2,   -0.4,   -0.5,   -0.9,   -1.1,   -1.5,   -1.4,   -2.1,   -0.9,   -0.5,   -0.3,   -1.1,   -1.4,   -1.1,   -1.1,   -0.7,   -0.3,    0.1,    0.5,    1.0,    1.4,    1.8,    1.3
2012/12/06 02:25,   -0.7,   -0.7,   -0.8,   -0.7,   -0.6,   -0.6,   -0.7,   -0.6,   -0.5,   -0.4,   -0.4,   -0.2,   -0.3,   -0.3,   -0.3,   -0.1,   -0.3,   -0.3,   -0.2,   -0.4,   -0.4,   -0.3,   -0.2,   -0.4,   -0.4,   -0.3,   -0.3,   -0.4,   -0.4,   -0.4,   -0.3,   -0.3,   -0.4,   -0.3,   -0.3,   -0.3,   -0.2,    0.0,   -0.1,   -0.2,   -0.4,    0.0,   -0.1,   -0.1,   -0.1,    0.0,   -0.0,    0.1,    0.0,    0.3,    0.2,    0.1,    0.0,   -0.1,    0.0,    0.6,    0.4,    0.3,   -0.1,    0.2,    0.3,    0.3,    0.7,    1.1,    0.8,    0.7,    0.6,    0.9,    0.7,    0.6,    0.7,    0.6,    0.6,    0.3,    0.6,    1.0,    0.9,    1.0,    1.3,    1.4,    1.1,    1.3,    1.0,    0.9,    0.9,    1.1,    0.8,    0.7,    0.5,    0.6,    0.5,    0.4,    0.5,    0.5,    0.1,    0.2,    0.1,    0.2,   -0.2,   -0.2,   -0.7,   -0.9,   -0.9,   -1.7,   -1.4,   -0.8,   -0.8,   -0.6,   -1.3,   -1.2,   -1.7,   -1.5,   -1.1,   -0.7,   -0.5,   -0.1,    0.1,    0.3,    0.3,    1.0
2012/12/06 02:35,   -1.0,   -0.9,   -0.8,   -0.9,   -0.9,   -0.9,   -0.9,   -1.1,   -1.2,   -0.9,   -0.9,   -0.8,   -0.8,   -0.7,   -0.8,   -0.8,   -0.6,   -0.4,   -0.5,   -0.6,   -0.4,   -0.3,   -0.4,   -0.4,   -0.5,   -0.3,   -0.2,   -0.2,   -0.5,   -0.5,   -0.4,   -0.3,   -0.3,   -0.6,   -0.6,   -0.6,   -0.2,   -0.0,   -0.3,   -0.3,   -0.4,   -0.3,   -0.3,   -0.1,    0.1,    0.1,    0.0,    0.1,    0.1,    0.1,    0.1,    0.2,    0.3,    0.3,    0.1,    0.6,    0.9,    0.1,   -0.0,    0.2,    0.1,    0.2,    0.7,    0.6,    0.1,    0.3,    0.5,    0.8,    1.0,    0.8,    0.6,    0.7,    0.6,    0.6,    0.7,    0.9,    0.8,    1.0,    1.2,    1.1,    0.9,    1.2,    1.3,    0.8,    0.5,    0.6,    0.8,    1.0,    0.5,    0.6,    0.7,    0.5,    0.4,    0.4,    0.1,    0.2,    0.1,    0.2,    0.1,   -0.1,   -0.3,   -0.2,   -0.6,   -2.4,   -0.3,  999.0,   -0.1,   -0.1,   -0.4,   -0.5,   -0.5,   -0.4,   -0.2,   -0.0,    0.3,    0.7,    1.3,    1.7,    1.7,    1.8
2012/12/06 02:45,   -1.0,   -1.0,   -0.8,   -0.6,   -0.6,   -0.7,   -0.8,   -0.9,   -1.1,   -0.9,   -0.8,   -0.6,   -0.6,   -0.5,   -0.5,   -0.4,   -0.3,   -0.1,   -0.0,    0.1,    0.3,    0.2,    0.1,    0.0,    0.0,    0.1,    0.1,    0.1,    0.1,   -0.2,   -0.1,    0.1,    0.1,   -0.2,   -0.2,   -0.1,   -0.2,   -0.2,    0.0,   -0.0,   -0.2,   -0.2,   -0.2,   -0.1,   -0.1,    0.1,   -0.1,   -0.1,   -0.0,   -0.0,    0.1,    0.1,    0.4,    0.3,    0.2,    0.3,    0.2,    0.2,    0.1,    0.2,    0.2,    0.2,    0.2,    0.6,    0.2,   -0.0,    0.5,    0.4,    0.6,    0.7,    0.6,    0.4,    0.0,    0.1,    0.5,    0.7,    0.7,    0.5,    0.6,    0.5,    0.5,    0.7,    0.5,    0.5,    0.6,    0.2,    0.4,    0.4,    0.4,    0.4,    0.3,    0.5,    0.7,    0.7,    0.4,    0.5,    0.6,    0.5,    0.3,    0.1,   -0.0,   -0.3,   -0.6,   -0.2,   -0.2,   -0.5,   -0.1,   -0.2,   -0.3,   -0.4,   -0.3,   -0.3,   -0.4,   -0.3,    0.1,    0.4,    1.0,    1.3,    1.5,    1.5
2012/12/06 02:55,   -1.0,   -0.9,   -0.9,   -1.0,   -0.7,   -0.6,   -0.5,   -0.8,   -1.0,   -0.9,   -0.8,   -0.7,   -0.8,   -0.7,   -0.6,   -0.5,   -0.4,   -0.2,   -0.1,   -0.0,   -0.1,    0.1,    0.0,    0.1,   -0.2,   -0.2,   -0.1,   -0.0,   -0.0,   -0.2,   -0.3,   -0.2,    0.0,   -0.2,   -0.3,   -0.2,   -0.1,   -0.1,    0.0,   -0.1,    0.0,    0.1,    0.1,    0.2,    0.3,    0.2,    0.4,    0.6,    0.5,    0.3,    0.4,    0.3,    0.3,    0.5,    0.4,    0.3,    0.5,    0.5,    0.2,    0.4,    0.3,    0.3,    0.4,    0.6,    0.2,    0.2,    0.3,    0.2,    0.6,    0.4,    0.6,    0.3,    0.1,    0.2,    0.4,    0.5,    0.6,    0.4,    0.6,    0.7,    0.1,   -0.0,    0.2,    0.2,    0.1,    0.3,    0.3,    0.0,   -0.4,   -0.5,   -0.4,   -0.5,   -0.2,   -0.2,   -0.3,    0.1,    0.3,    0.2,    0.1,   -0.1,   -0.4,   -0.5,   -0.7,  999.0,    0.9,   -0.4,   -0.1,   -0.2,   -0.4,   -0.5,   -0.2,   -0.3,   -0.4,   -0.6,   -0.0,    0.1,    0.3,    0.2,    0.6,    0.6
2012/12/06 03:05,   -1.1,   -1.0,   -0.8,   -0.9,   -0.9,   -0.8,   -0.9,   -0.6,   -0.6,   -0.6,   -0.6,   -0.6,   -0.6,   -0.5,   -0.6,   -0.5,   -0.5,   -0.4,   -0.5,   -0.6,   -0.3,   -0.2,   -0.3,   -0.4,   -0.5,   -0.3,   -0.3,   -0.3,   -0.4,   -0.4,   -0.5,   -0.4,   -0.3,   -0.3,   -0.4,   -0.3,   -0.2,   -0.2,   -0.1,    0.0,   -0.0,   -0.1,    0.2,    0.2,    0.2,    0.0,    0.3,    0.4,    0.3,    0.3,    0.3,    0.4,    0.5,    0.6,    0.7,    0.7,    0.8,    0.6,    0.4,    0.1,    0.4,    0.3,    0.4,    0.3,    0.6,    0.2,    0.2,    0.6,    0.5,    0.5,    0.5,    0.7,    0.5,    0.4,    0.4,    0.5,    0.6,    0.4,    0.4,    0.5,    0.2,    0.3,    0.3,    0.3,    0.1,    0.3,    0.4,    0.1,   -0.1,   -0.1,   -0.2,   -0.3,   -0.4,   -0.4,   -0.1,    0.1,    0.2,    0.1,   -0.1,   -0.3,   -0.4,   -0.6,   -0.7,  999.0,  999.0,  999.0,   -0.6,   -0.5,   -0.6,   -0.9,   -0.4,   -0.5,   -0.6,   -0.6,   -0.6,   -0.1,   -0.1,    0.0,    0.1,    0.5
2012/12/06 03:15,   -0.9,   -1.0,   -1.1,   -1.0,   -1.0,   -0.7,   -0.7,   -0.9,   -0.7,   -0.7,   -0.5,   -0.5,   -0.6,   -0.4,   -0.5,   -0.5,   -0.6,   -0.5,   -0.5,   -0.5,   -0.4,   -0.3,   -0.4,   -0.4,   -0.4,   -0.3,   -0.1,   -0.3,   -0.4,   -0.5,   -0.6,   -0.3,   -0.3,   -0.4,   -0.5,   -0.5,   -0.4,   -0.3,   -0.3,   -0.2,   -0.3,   -0.1,   -0.1,    0.0,    0.1,    0.1,    0.1,    0.2,    0.2,    0.2,    0.1,    0.2,    0.3,    0.3,    0.4,    0.3,    0.5,    0.4,    0.4,    0.3,    0.3,    0.4,    0.4,    0.3,    0.6,    0.3,    0.4,    0.4,    0.5,    0.5,    0.4,    0.4,    0.3,    0.2,    0.3,    0.2,    0.3,    0.2,    0.3,    0.3,   -0.0,    0.3,    0.2,    0.2,    0.1,    0.3,    0.4,    0.0,   -0.1,   -0.0,    0.0,   -0.4,   -0.6,   -0.6,    0.0,    0.2,    0.3,    0.2,    0.1,   -0.1,   -0.2,   -0.5,   -0.5,  999.0,  999.0,  999.0,   -0.3,   -0.1,    0.0,   -0.3,   -0.1,   -0.3,   -0.3,   -0.2,   -0.1,    0.0,   -0.1,    0.5,    0.6,    0.6
2012/12/06 03:25,   -0.6,   -0.6,   -0.4,   -0.4,   -0.4,   -0.4,   -0.3,   -0.5,   -0.7,   -0.7,   -0.8,   -0.9,   -0.9,   -0.5,   -0.6,   -0.7,   -0.7,   -0.7,   -0.4,   -0.6,   -0.5,   -0.7,   -0.6,   -0.6,   -0.6,   -0.6,   -0.4,   -0.3,   -0.5,   -0.3,   -0.4,   -0.5,   -0.3,   -0.4,   -0.5,   -0.5,   -0.2,   -0.3,   -0.1,   -0.1,   -0.1,   -0.1,    0.1,    0.2,    0.4,    0.4,    0.5,    0.5,    0.5,    0.5,    0.4,    0.5,    0.4,    0.2,    0.1,    0.6,    0.7,    0.6,    0.4,    0.1,    0.2,    0.2,    0.3,    0.7,    0.4,    0.1,    0.3,    0.8,    0.7,    0.8,    0.5,    0.6,    0.6,    0.1,    0.1,    0.6,    0.2,   -0.1,    1.0,    1.1,    0.7,    1.1,    0.6,    0.3,    0.7,    0.8,    0.9,    0.5,    0.6,    0.3,    0.6,    0.5,   -0.0,   -0.1,    0.3,    0.3,    0.1,    0.2,   -0.0,   -0.2,   -0.1,   -0.4,   -0.4,   -1.7,   -0.6,  999.0,   -0.1,   -0.2,    0.1,   -0.2,   -0.1,   -0.1,    0.1,   -0.0,    0.0,   -0.0,   -0.0,   -0.1,    0.1,    0.5
2012/12/06 03:35,   -0.8,   -0.8,   -0.7,   -0.9,   -0.8,   -0.8,   -0.8,   -0.8,   -1.0,   -0.8,   -0.6,   -0.6,   -0.6,   -0.4,   -0.3,   -0.3,   -0.3,   -0.2,   -0.4,   -0.2,   -0.3,   -0.2,   -0.4,   -0.5,   -0.3,   -0.3,   -0.3,   -0.3,   -0.2,   -0.4,   -0.4,   -0.4,   -0.3,   -0.4,   -0.4,   -0.4,   -0.2,   -0.3,   -0.3,   -0.2,   -0.4,   -0.1,    0.0,   -0.1,    0.1,    0.2,    0.0,    0.1,    0.3,    0.1,   -0.1,    0.0,    0.1,   -0.1,    0.1,    0.2,    0.1,   -0.2,   -0.2,    0.0,    0.1,    0.1,    0.3,    0.5,    0.1,    0.0,    0.2,    0.2,    0.5,    0.6,    0.5,    0.7,    0.5,    0.2,    0.3,    0.3,    0.4,    0.0,    0.8,    0.8,    0.7,    0.9,    0.5,    0.5,    0.6,    1.0,    0.7,    0.3,    0.3,    0.3,    0.6,    0.0,   -0.4,   -0.4,   -0.0,   -0.2,   -0.3,   -0.4,   -0.4,   -0.4,   -0.5,   -0.4,   -0.2,   -0.0,   -0.2,    0.1,    0.1,    0.2,    0.3,    0.3,    0.0,    0.3,    0.9,    0.2,    0.3,    0.3,    0.1,   -0.1,    0.1,    0.3
2012/12/06 03:45,   -0.5,   -0.7,   -0.7,   -0.7,   -0.7,   -0.7,   -0.5,   -0.4,   -0.2,   -0.2,   -0.2,   -0.0,   -0.0,    0.1,   -0.0,   -0.1,   -0.2,   -0.2,   -0.1,   -0.1,   -0.1,   -0.1,   -0.2,   -0.4,   -0.3,   -0.3,   -0.4,   -0.4,   -0.6,   -0.6,   -0.5,   -0.7,   -0.6,   -0.4,   -0.5,   -0.5,   -0.6,   -0.6,   -0.5,   -0.5,   -0.6,   -0.4,   -0.4,   -0.4,   -0.4,   -0.3,   -0.4,   -0.2,   -0.2,   -0.4,   -0.6,   -0.3,   -0.5,   -0.4,   -0.2,   -0.0,   -0.2,   -0.1,   -0.1,    0.1,   -0.1,   -0.1,   -0.0,    0.2,   -0.0,   -0.2,   -0.3,   -0.2,    0.2,    0.2,   -0.0,   -0.1,   -0.0,   -0.0,    0.1,   -0.0,    0.0,   -0.1,    0.1,    0.3,    0.3,    0.2,    0.4,    0.2,    0.3,    0.4,    0.3,    0.2,    0.1,   -0.1,    0.4,   -0.2,   -0.6,   -0.7,   -0.3,   -0.1,   -0.4,   -0.5,   -0.4,   -0.3,   -0.3,   -0.6,   -0.5,   -0.3,   -0.4,   -0.4,   -0.2,   -0.5,   -0.5,   -0.4,   -0.4,   -0.3,   -0.4,   -0.3,   -0.1,    0.0,   -0.2,   -0.4,    0.0,    0.6
2012/12/06 03:55,   -0.6,   -0.5,   -0.5,   -0.5,   -0.4,   -0.6,   -0.5,   -0.4,   -0.4,   -0.1,   -0.3,   -0.0,   -0.0,    0.0,    0.1,    0.1,   -0.1,   -0.2,   -0.2,   -0.1,   -0.3,   -0.2,   -0.5,   -0.4,   -0.3,   -0.4,   -0.4,   -0.3,   -0.3,   -0.5,   -0.3,   -0.3,   -0.4,   -0.4,   -0.5,   -0.4,   -0.2,   -0.1,   -0.1,   -0.0,   -0.2,    0.0,    0.0,    0.1,    0.2,    0.2,   -0.1,   -0.0,    0.1,    0.1,   -0.1,   -0.1,   -0.1,   -0.1,   -0.0,    0.2,    0.0,   -0.0,   -0.1,    0.0,   -0.0,   -0.0,   -0.0,    0.3,    0.1,   -0.1,    0.0,   -0.2,    0.3,    0.3,    0.1,   -0.1,   -0.0,    0.1,    0.1,    0.2,   -0.2,   -0.0,   -0.0,    0.0,    0.2,    0.3,    0.4,    0.2,    0.4,    0.7,    0.2,    0.3,   -0.1,   -0.1,    0.0,   -0.0,   -0.1,   -0.0,    0.1,    0.1,    0.0,    0.1,    0.1,   -0.0,    0.1,   -0.1,   -0.0,   -0.0,    0.0,   -0.0,   -0.0,   -0.1,   -0.2,   -0.3,   -0.1,   -0.3,   -0.4,   -0.6,   -0.2,   -0.2,   -0.3,    0.1,    0.4,    0.1
2012/12/06 04:05,   -0.5,   -0.4,   -0.7,   -0.2,   -0.4,   -0.7,   -0.7,   -0.5,   -0.5,   -0.3,   -0.1,   -0.5,   -0.5,   -0.2,    0.2,   -0.1,   -0.4,   -0.5,   -0.7,   -0.5,   -0.8,   -0.7,   -0.6,   -0.8,   -0.8,   -0.7,   -0.7,   -0.6,   -0.6,   -0.6,   -0.5,   -0.7,   -0.7,   -0.5,   -0.7,   -0.7,   -0.7,   -0.6,   -0.4,   -0.5,   -0.5,   -0.4,   -0.5,   -0.6,   -0.4,   -0.4,   -0.1,    0.1,   -0.0,   -0.1,   -0.0,   -0.2,   -0.2,   -0.3,   -0.1,    0.5,    0.1,   -0.1,   -0.0,    0.1,   -0.1,    0.0,   -0.0,    0.4,    0.3,    0.1,    0.0,    0.2,    0.2,    0.1,    0.5,    0.3,    0.2,    0.2,    0.3,    0.4,    0.2,    0.4,    0.4,    0.7,    0.8,    0.7,    0.6,    0.3,    0.4,    0.4,    0.3,    0.4,    0.4,    0.2,    0.4,    0.2,    0.1,    0.1,    0.1,    0.0,    0.0,   -0.1,    0.2,    0.1,    0.1,   -0.1,   -0.2,   -0.2,   -0.5,   -0.5,   -0.5,   -0.3,   -0.2,   -0.5,   -0.3,   -0.1,   -0.7,   -0.3,   -0.4,   -0.3,   -0.4,   -0.6,    0.1,   -0.3
2012/12/06 04:15,   -1.1,   -0.5,   -0.3,   -0.2,   -0.4,   -0.3,   -0.4,   -1.1,   -0.3,    0.0,    0.2,    0.1,    0.2,    0.1,    0.0,   -0.0,    0.0,   -0.1,   -0.2,   -0.1,   -0.2,   -0.2,   -0.3,   -0.4,   -0.4,   -0.3,   -0.4,   -0.5,   -0.5,   -0.3,   -0.3,   -0.7,   -0.4,   -0.2,   -0.3,   -0.4,   -0.3,   -0.4,   -0.3,   -0.5,   -0.5,   -0.5,   -0.4,   -0.4,   -0.4,   -0.4,   -0.1,    0.1,   -0.2,   -0.2,   -0.4,   -0.2,   -0.4,   -0.4,   -0.2,   -0.1,   -0.2,   -0.2,   -0.2,   -0.1,   -0.0,   -0.2,   -0.1,    0.2,   -0.1,   -0.2,   -0.2,   -0.0,    0.2,    0.1,    0.4,    0.3,    0.3,    0.2,    0.2,    0.2,    0.2,    0.4,    0.4,    0.8,    0.9,    0.8,    0.7,    0.3,    0.5,    0.4,    0.1,    0.5,    0.5,    0.7,    0.9,    0.7,    0.6,    0.7,    0.7,    0.6,    0.5,    0.4,    0.4,    0.4,    0.3,    0.4,    0.2,    0.1,    0.4,   -0.4,   -0.3,   -0.1,   -0.2,   -0.3,   -0.4,   -0.2,   -0.1,   -0.4,   -0.6,   -0.6,   -0.8,   -1.0,   -0.7,   -0.4
2012/12/06 04:25,   -0.4,   -0.6,   -0.8,   -0.8,   -0.7,   -1.0,   -0.9,   -1.0,   -0.6,   -0.8,   -0.4,   -0.2,   -0.2,   -0.3,   -0.4,   -0.3,   -0.4,   -0.6,   -0.6,   -0.4,   -0.2,   -0.3,   -0.4,   -0.6,   -0.6,   -0.4,   -0.4,   -0.5,   -0.4,   -0.4,   -0.5,   -0.4,   -0.4,   -0.3,   -0.5,   -0.3,   -0.3,   -0.3,   -0.4,   -0.3,   -0.4,   -0.3,   -0.3,   -0.3,   -0.4,   -0.4,   -0.3,   -0.1,   -0.1,   -0.0,   -0.3,   -0.4,   -0.4,   -0.5,   -0.2,   -0.0,   -0.3,   -0.2,   -0.1,   -0.1,    0.2,    0.2,    0.0,    0.2,   -0.2,   -0.0,   -0.1,    0.1,    0.3,    0.3,    0.4,    0.4,    0.6,    0.5,    0.2,    0.4,    0.6,    1.1,    1.1,    1.4,    1.2,    1.0,    0.8,    0.4,    0.6,    0.7,    0.4,    0.2,    0.8,    0.9,    1.4,    1.2,    1.0,    1.2,    1.1,    1.1,    1.1,    1.3,    1.3,    1.1,    1.0,    0.9,    0.8,    0.6,    0.3,    0.1,    0.3,    0.2,    0.2,    0.1,    0.1,   -0.0,    0.1,   -0.4,   -0.5,   -0.7,   -1.1,   -1.1,   -1.1,   -0.6
2012/12/06 04:35,   -0.9,   -0.7,   -0.7,   -0.6,   -0.6,   -0.8,   -0.8,   -0.8,   -0.7,   -0.6,   -0.6,   -0.2,   -0.1,   -0.2,   -0.4,   -0.5,   -0.4,   -0.3,   -0.2,   -0.1,   -0.0,   -0.1,   -0.2,   -0.0,    0.1,   -0.1,   -0.1,   -0.0,    0.2,    0.1,    0.3,    0.2,    0.2,   -0.2,   -0.2,   -0.0,    0.2,    0.3,    0.0,    0.0,   -0.1,    0.1,    0.1,    0.1,    0.0,   -0.0,    0.2,    0.0,    0.1,    0.1,   -0.3,   -0.2,   -0.2,   -0.2,   -0.0,   -0.2,    0.1,   -0.1,   -0.0,    0.4,    0.7,    0.1,    0.3,    0.2,    0.2,    0.2,    0.1,    0.5,    0.5,    0.7,    0.7,    0.7,    0.6,    0.7,    0.4,    0.4,    0.8,    0.8,    0.9,    1.4,    1.2,    1.1,    0.9,    0.5,    0.9,    1.0,    1.0,    0.5,    0.6,    0.9,    1.1,    1.3,    0.9,    1.0,    1.0,    1.2,    1.6,    1.6,    1.5,    1.3,    1.2,    1.3,    1.1,    0.8,    0.7,    0.4,    0.2,    0.4,    0.5,    1.0,    0.9,    1.2,    0.9,    0.7,   -0.1,   -0.1,   -0.4,   -0.4,   -0.5,   -0.3
2012/12/06 04:45,   -0.9,   -0.7,   -0.8,   -1.0,   -1.1,   -1.2,   -0.9,   -1.1,   -0.9,   -0.8,   -0.5,   -0.6,   -0.4,   -0.3,   -0.4,   -0.4,   -0.4,   -0.3,   -0.3,   -0.2,   -0.1,   -0.2,   -0.0,   -0.0,    0.0,   -0.1,   -0.1,    0.2,    0.5,    0.4,    0.4,    0.5,    0.1,    0.0,    0.1,    0.2,    0.5,    0.6,    0.3,    0.4,    0.5,    0.6,    0.5,    0.4,    0.4,    0.6,    0.6,    0.3,    0.4,    0.1,    0.0,    0.2,    0.1,    0.2,    0.2,    0.1,    0.2,    0.4,    0.5,    0.2,    0.7,    0.5,    0.8,    0.8,    0.7,    0.7,    0.5,    1.1,    0.7,    1.1,    1.4,    1.1,    1.0,    0.9,    0.7,    0.6,    0.2,    1.1,    1.1,    1.2,    1.2,    1.4,    1.0,    0.6,    0.7,    0.9,    0.8,    0.7,    0.6,    0.8,    1.2,    1.3,    1.1,    1.1,    0.8,    0.9,    1.3,    1.3,    1.2,    1.1,    0.7,    0.6,    0.5,    0.3,    0.1,    0.0,   -0.1,   -0.0,    0.2,    0.1,    0.2,    0.4,    0.0,   -0.1,   -0.3,   -0.6,   -0.7,   -0.7,   -0.8,   -0.7
2012/12/06 04:55,   -0.8,   -0.8,   -0.7,   -0.7,   -0.8,   -0.8,   -0.8,   -0.6,   -0.4,   -0.2,   -0.4,   -0.5,   -0.5,   -0.5,   -0.3,   -0.4,   -0.5,   -0.3,   -0.3,   -0.3,   -0.2,   -0.2,   -0.2,   -0.1,   -0.1,   -0.1,   -0.0,    0.1,    0.2,    0.0,    0.1,    0.2,    0.1,    0.1,    0.1,    0.1,    0.1,    0.2,    0.2,    0.1,    0.2,    0.0,    0.1,   -0.1,   -0.1,   -0.0,   -0.0,    0.0,    0.2,   -0.1,    0.0,   -0.1,   -0.2,   -0.2,   -0.1,   -0.1,    0.0,    0.1,    0.1,    0.1,    0.2,    0.5,    0.3,    0.6,    0.1,   -0.0,    0.1,    0.8,    0.7,    1.3,    1.2,    1.0,    0.6,    0.5,    0.6,    0.8,    1.0,    1.1,    0.8,    0.8,    0.8,    0.9,    0.7,    0.3,    0.5,    0.8,    0.5,    0.7,    0.5,    0.6,    0.6,    0.6,    0.7,    0.7,    0.6,    0.9,    1.0,    0.9,    0.9,    0.8,    0.6,    0.5,    0.5,    0.1,    0.2,    0.3,    0.3,   -0.0,    0.0,   -0.1,   -0.2,    0.0,   -0.3,   -0.2,   -0.5,   -0.8,   -0.9,   -1.0,   -0.6,    0.2
2012/12/06 05:05,   -0.8,   -0.6,   -0.7,   -0.9,   -0.9,   -1.2,   -1.3,   -1.0,   -0.7,   -0.6,   -0.5,   -0.4,   -0.3,   -0.3,   -0.3,   -0.2,   -0.1,    0.0,   -0.1,    0.0,    0.2,    0.1,    0.2,    0.2,    0.1,    0.1,    0.2,    0.2,    0.0,    0.2,    0.2,    0.3,    0.2,   -0.1,    0.1,    0.0,   -0.0,    0.1,   -0.0,   -0.0,    0.1,    0.0,   -0.0,   -0.2,   -0.2,   -0.3,   -0.3,   -0.1,   -0.1,   -0.3,   -0.2,   -0.3,   -0.3,   -0.2,   -0.2,    0.0,    0.0,    0.0,    0.1,    0.2,    0.1,   -0.0,    0.1,    0.4,    0.0,   -0.1,   -0.1,    0.4,    0.4,    0.8,    0.5,    0.5,    0.5,    0.4,    0.4,    0.4,    0.7,    1.0,    0.7,    0.7,    0.8,    0.7,    0.8,    0.4,    0.4,    0.6,    0.7,    0.4,    0.9,    0.9,    1.0,    1.0,    0.7,    0.9,    1.6,    1.5,    1.6,    1.5,    1.4,    1.1,    0.8,    0.8,    0.7,    0.5,    0.7,    0.6,    0.4,    0.3,    0.2,    0.3,   -0.1,    0.0,   -0.1,   -0.2,   -0.3,   -0.4,   -0.6,   -0.1,   -0.2,   -0.8
2012/12/06 05:15,   -0.6,   -0.9,   -1.2,   -1.0,   -1.0,   -1.0,   -1.0,   -0.8,   -0.8,   -0.5,   -0.4,   -0.5,   -0.4,   -0.4,   -0.2,   -0.2,  999.0,   -0.0,   -0.0,   -0.1,    0.1,    0.2,    0.2,    0.2,    0.1,    0.2,    0.2,    0.1,    0.1,    0.1,    0.3,    0.1,    0.0,   -0.0,   -0.0,    0.1,   -0.1,    0.0,   -0.0,   -0.0,   -0.0,   -0.0,    0.1,   -0.1,   -0.4,   -0.3,   -0.3,   -0.1,   -0.0,    0.0,    0.0,    0.0,   -0.1,   -0.1,    0.1,    0.1,   -0.1,    0.0,    0.0,    0.5,    0.4,   -0.0,    0.4,    0.7,    0.2,    0.1,    0.5,    1.3,    1.1,    1.2,    1.3,    0.9,    0.8,    0.7,    1.3,    1.1,    1.5,    1.5,    1.3,    1.8,    1.7,    1.9,    1.7,    1.3,    1.3,    1.3,    1.6,    0.9,    1.3,    1.2,    1.3,    1.0,    0.8,    0.9,    1.6,    1.6,    1.1,    1.0,    0.9,    0.6,    0.5,    0.3,    0.3,    0.4,   -0.2,   -0.2,   -0.0,    0.0,   -0.2,   -0.2,   -0.3,   -0.4,   -0.4,   -0.6,   -0.7,   -1.1,   -1.5,   -1.9,   -1.1,  999.0
2012/12/06 05:25,   -0.7,   -0.6,   -0.5,   -0.6,   -1.2,   -1.0,   -1.1,   -0.9,   -0.6,   -0.1,   -0.2,   -0.3,   -0.2,   -0.0,   -0.1,   -0.0,    0.0,   -0.1,    0.0,   -0.1,   -0.1,   -0.1,   -0.0,   -0.1,   -0.1,   -0.2,   -0.2,   -0.1,   -0.3,   -0.3,   -0.1,   -0.5,   -0.4,   -0.3,   -0.3,   -0.4,   -0.6,   -0.5,   -0.6,   -0.6,   -0.4,   -0.3,   -0.3,   -0.5,   -0.6,   -0.4,   -0.3,   -0.3,    0.0,   -0.0,    0.1,    0.2,    0.0,    0.1,    0.2,    0.2,    0.2,    0.1,   -0.0,    0.4,    0.4,    0.0,    0.3,    0.5,    0.3,    0.2,    0.6,    0.8,    0.8,    0.9,    0.9,    0.9,    0.7,    1.0,    1.0,    1.2,    1.2,    1.6,    1.4,    1.7,    1.7,    1.8,    1.4,    1.2,    1.0,    1.1,    1.3,    0.3,    1.1,    1.0,    1.0,    0.7,    0.4,    0.5,    0.9,    0.9,    0.6,    0.5,    0.6,    0.3,    0.2,    0.2,   -0.0,    0.2,   -0.1,   -0.3,   -0.3,   -0.9,   -0.5,   -0.4,   -0.5,   -0.7,   -0.7,   -0.7,   -1.2,   -0.9,   -1.1,   -1.4,   -1.4,  999.0
2012/12/06 05:35,   -1.0,   -1.1,   -1.1,   -1.6,   -1.4,   -1.5,   -1.3,   -1.2,   -1.2,   -1.0,   -0.9,   -0.7,   -0.8,   -0.6,   -0.3,   -0.4,   -0.4,   -0.5,   -0.6,   -0.7,   -0.6,   -0.5,   -0.6,   -0.6,   -0.6,   -0.6,   -0.8,   -0.8,   -1.0,   -1.0,   -0.9,   -0.8,   -1.0,   -1.0,   -1.1,   -1.0,   -1.0,   -1.0,   -1.0,   -1.1,   -1.1,   -0.8,   -0.7,   -0.8,   -1.0,   -0.8,   -0.8,   -0.9,   -0.2,   -0.5,   -0.5,   -0.6,   -0.5,   -0.5,   -0.4,   -0.3,   -0.1,   -0.3,   -0.1,   -0.3,   -0.3,   -0.5,    0.3,    0.2,   -0.0,   -0.2,   -0.1,    0.1,    0.6,    0.6,    0.3,    0.3,    0.1,    0.4,    0.5,    0.5,    0.5,    0.9,    0.8,    0.8,    1.1,    1.3,    1.1,    0.7,    0.4,    1.1,    1.0,    0.6,    0.7,    0.9,    0.9,    1.1,    0.5,    0.6,    1.0,    1.4,    1.3,    1.0,    1.0,    0.8,    0.8,    0.7,    0.8,    0.6,    0.3,    0.3,   -0.4,   -0.1,  999.0,   -0.0,    0.0,   -0.1,    0.0,   -0.1,   -0.4,   -0.4,   -0.6,   -0.5,   -0.7,   -0.2
2012/12/06 05:45,   -0.8,   -1.0,   -1.3,   -1.3,   -1.4,   -1.7,   -1.1,   -1.4,   -1.7,   -1.3,   -1.3,   -1.3,   -1.3,   -0.7,   -0.4,   -0.3,   -1.0,   -0.9,   -0.9,   -1.0,   -0.8,   -0.9,   -0.9,   -0.9,   -1.0,   -1.0,   -1.1,   -1.4,   -1.1,   -1.0,   -1.1,   -1.2,   -0.9,   -1.1,   -1.2,   -0.9,   -0.9,   -1.1,   -0.9,   -0.9,   -1.1,   -0.9,   -1.0,   -0.8,   -1.0,   -1.1,   -1.2,   -1.0,   -0.5,   -0.6,   -0.9,   -0.8,   -0.7,   -0.6,   -0.4,   -0.2,   -0.3,   -0.5,   -0.2,   -0.2,   -0.2,   -0.5,    0.0,    0.1,   -0.1,    0.1,   -0.1,    0.3,    0.6,    0.6,    0.4,    0.4,    0.3,    0.5,    0.5,    0.4,    0.8,    1.2,    1.0,    1.4,    1.4,    1.7,    1.1,    0.5,    0.5,    0.9,  999.0,    0.7,    0.5,  999.0,  999.0,    1.7,    1.5,    1.4,    2.0,    1.6,    2.0,    1.8,    1.7,    1.5,    1.2,    1.0,    0.8,    0.8,    0.2,    0.5,    0.3,    0.6,    0.2,    0.4,    0.4,    0.1,    0.1,    0.1,   -0.0,   -0.0,   -0.0,   -0.0,   -0.1,    0.1
2012/12/06 05:55,   -1.2,   -1.3,   -1.4,   -1.4,   -1.3,   -1.5,   -1.3,   -1.3,   -0.9,   -1.0,   -1.0,   -1.1,   -1.0,   -0.3,   -0.2,   -0.8,   -0.8,   -0.7,   -0.7,   -0.9,   -0.8,   -0.8,   -1.0,   -1.1,   -1.1,   -0.9,   -1.0,   -1.1,   -0.9,   -0.8,   -0.9,   -0.9,   -1.0,   -0.9,   -1.0,   -0.7,   -1.0,   -0.8,   -0.9,   -1.0,   -1.1,   -0.8,   -0.7,   -0.7,   -0.8,   -1.2,   -1.1,   -1.1,   -0.5,   -0.6,   -0.8,   -0.7,   -0.7,   -0.5,   -0.4,   -0.3,   -0.4,   -0.6,   -0.3,   -0.3,   -0.2,   -0.1,   -0.1,    0.2,   -0.2,   -0.1,    0.3,    0.7,    0.8,    0.8,    0.8,    0.7,    0.7,    1.0,    0.9,    0.9,    0.4,    1.2,    1.4,    1.6,    1.6,    1.7,    1.2,    0.0,    0.4,    0.5,    1.7,    0.2,    0.0,  999.0,    1.1,    1.7,    0.9,  999.0,  999.0,  999.0,  999.0,    1.4,    1.5,    1.4,    1.3,    1.0,    1.0,    1.0,    0.2,    0.3,    0.6,    0.6,    0.4,    0.4,    0.5,    0.1,    0.0,   -0.1,   -0.2,   -0.1,   -0.1,   -0.1,   -0.2,   -0.4
2012/12/06 06:05,   -1.3,   -1.2,   -1.1,   -1.1,   -1.2,   -1.4,   -1.5,   -1.4,   -1.5,   -1.3,   -1.2,   -1.3,   -1.1,   -1.0,    0.8,   -0.4,   -0.8,   -0.7,   -1.0,   -1.0,   -1.0,   -1.2,   -1.2,   -0.9,   -0.9,   -1.1,   -1.2,   -1.3,   -1.1,   -1.3,   -1.2,   -1.3,   -1.1,   -1.2,   -1.2,   -0.8,   -1.1,   -1.2,   -1.4,   -1.3,   -1.3,   -1.1,   -0.9,   -0.8,   -1.3,   -1.2,   -1.2,   -0.9,   -0.4,   -0.7,   -0.7,   -0.6,   -0.4,   -0.3,   -0.1,   -0.1,   -0.0,    0.0,    0.2,    0.1,    0.4,    0.5,    0.3,    0.2,    0.1,    0.3,    0.6,    0.9,    0.9,    0.8,    1.0,    1.0,    0.7,    1.0,    1.1,    1.3,    0.7,    1.6,    1.8,    1.9,    1.9,    1.9,    1.4,    0.1,    1.2,  999.0,  999.0,    0.8,   -0.1,    0.1,  999.0,  999.0,    1.3,  999.0,    0.5,  999.0,    0.5,    0.5,    0.6,    0.7,    0.5,    0.5,    0.4,    0.6,   -0.2,    0.0,    0.2,    0.4,    0.4,    0.2,    0.2,    0.3,    0.2,    0.1,    0.1,    0.0,   -0.1,   -0.0,   -0.1,   -0.3
2012/12/06 06:15,   -1.3,   -1.2,   -1.1,   -1.2,   -1.2,   -1.4,   -1.5,   -1.2,   -0.9,   -1.0,   -0.9,   -0.8,   -0.6,   -0.3,   -0.0,   -0.5,   -0.9,   -0.9,   -1.0,   -1.0,   -1.0,   -1.2,   -1.1,   -1.0,   -1.2,   -1.4,   -1.3,   -1.3,   -1.2,   -1.2,   -1.3,   -1.2,   -1.3,   -1.2,   -0.7,   -0.6,   -0.9,   -0.7,   -0.6,   -0.9,   -0.8,   -0.7,   -0.7,   -0.7,   -0.6,   -0.8,   -0.6,   -0.7,   -0.3,   -0.4,   -0.4,   -0.3,   -0.2,    0.1,   -0.1,   -0.2,   -0.1,    0.1,   -0.0,   -0.0,    0.4,    0.1,    0.4,    0.3,    0.6,    0.4,    0.7,    1.0,    0.8,    0.6,    0.8,    0.8,    0.9,    1.2,    1.4,    1.5,    0.7,    1.8,    1.7,    1.9,    1.9,    2.0,    1.2,    0.6,    1.7,    1.1,    1.1,    0.3,   -0.1,    0.7,    0.9,    1.0,    1.2,    0.7,    0.4,  999.0,  999.0,    1.0,    0.6,    0.6,    0.6,    0.4,    0.3,    0.2,   -0.0,    0.1,   -0.1,  999.0,   -0.4,    0.0,   -0.2,   -0.2,   -0.3,   -0.3,   -0.3,   -0.6,   -0.9,   -0.9,   -1.1,   -1.3
2012/12/06 06:25,   -1.3,   -1.4,   -1.0,   -1.1,   -1.2,   -1.0,   -1.1,   -1.0,   -1.1,   -1.2,   -1.0,   -0.5,   -0.1,   -0.1,   -0.4,   -1.1,   -1.0,   -1.1,   -1.3,   -1.2,   -1.3,   -1.0,   -1.1,   -1.4,   -1.0,   -1.3,   -1.2,   -1.3,   -1.1,   -1.0,   -1.0,   -0.8,   -0.8,   -1.0,   -0.7,   -0.2,   -0.8,   -0.4,   -0.5,   -0.6,   -0.8,   -0.5,   -0.4,   -0.2,   -0.2,   -0.3,   -0.3,    0.1,   -0.1,    0.0,    0.1,    0.5,    0.4,    0.4,    0.2,   -0.0,    0.3,    0.5,    0.3,    0.5,    0.7,    0.3,    0.3,    0.5,    1.1,    0.8,    0.9,    0.8,    1.3,    1.2,    1.2,    1.1,    1.4,    1.3,    1.5,    2.0,    1.8,    1.6,    2.4,    2.4,    2.4,    2.6,    1.8,    1.4,    2.0,    1.5,    1.6,    0.7,    0.2,    0.4,  999.0,    1.3,    1.2,    1.5,    0.7,    0.8,    0.7,    0.6,    0.7,    0.5,    0.4,    0.6,    0.5,    0.3,    0.5,    0.1,    0.3,  999.0,    0.2,    0.3,    0.3,    0.2,    0.1,    0.4,   -0.2,   -0.5,   -0.6,   -0.7,   -0.9,   -0.7
2012/12/06 06:35,   -1.5,   -1.4,   -1.4,   -1.5,   -1.5,   -1.6,   -1.2,   -1.4,   -1.4,   -1.5,   -1.1,   -0.3,   -0.0,   -0.1,   -1.0,   -1.0,   -1.2,   -1.2,   -1.3,   -1.0,   -1.1,   -1.0,   -1.1,   -1.1,   -1.0,   -1.0,   -0.9,   -0.7,   -0.9,   -0.9,   -0.9,   -0.9,   -0.7,   -0.6,   -0.5,   -0.2,   -0.4,   -0.2,   -0.2,   -0.4,   -0.3,   -0.3,   -0.3,   -0.2,   -0.1,   -0.3,   -0.1,    0.1,    0.1,    0.3,    0.1,    0.4,    0.2,    0.0,    0.0,    0.1,    0.7,    0.7,    0.5,    0.6,    0.8,    0.8,    0.3,    0.4,    1.1,    0.7,    0.9,    1.1,    1.4,    1.5,    1.5,    1.3,    1.6,    1.4,    1.7,    2.7,  999.0,    2.5,    2.8,    3.1,    2.9,    3.0,    2.3,    1.3,    2.1,    0.2,    1.2,   -0.1,    2.3,   -0.1,    1.5,    1.7,    1.3,    1.0,    0.9,    0.4,   -0.0,    0.1,    0.4,    0.5,    0.3,    0.2,    0.1,   -0.0,   -0.1,   -0.1,    0.1,    0.3,  999.0,   -0.1,   -0.3,   -0.5,   -0.3,   -0.2,    0.1,   -0.4,   -0.5,   -0.6,   -0.9,   -0.8
2012/12/06 06:45,   -1.6,   -1.4,   -1.4,   -1.2,   -1.1,   -1.2,   -1.4,   -1.4,   -1.7,   -1.6,   -0.4,   -0.1,   -0.1,   -0.2,   -1.0,   -1.0,   -0.8,   -1.0,   -1.0,   -0.9,   -0.9,   -0.9,   -0.8,   -0.7,   -0.7,   -0.8,   -0.6,   -0.5,   -0.6,   -0.6,   -0.6,   -0.5,   -0.6,   -0.5,   -0.4,    0.1,   -0.2,   -0.2,   -0.1,   -0.1,   -0.1,   -0.1,   -0.1,    0.1,   -0.0,   -0.1,    0.2,    0.2,    0.5,    0.6,    0.3,    0.7,    0.5,    0.5,    0.3,    0.7,    0.9,    0.7,    0.8,    1.0,    1.6,    1.4,    0.8,    0.5,    0.6,    0.5,    0.7,    1.0,    1.1,    1.7,    1.6,    1.4,    1.5,    1.5,    1.8,    2.3,    0.9,    1.8,    2.3,    2.5,    2.9,    2.8,    1.7,    1.6,    2.1,    0.3,    0.5,    0.1,    3.0,   -0.2,    1.5,    2.3,    2.3,    1.9,    0.8,    0.8,    0.0,    2.5,    1.7,    1.3,    1.0,    0.7,    0.5,    0.3,   -0.0,    0.0,    0.0,   -0.5,   -0.3,   -0.4,   -0.6,   -0.6,   -0.5,   -0.5,   -0.4,   -0.5,   -0.6,   -0.8,   -1.1,   -0.8
2012/12/06 06:55,   -1.4,   -1.2,   -1.3,   -1.1,   -1.2,   -1.0,   -1.0,   -1.2,   -1.4,   -1.3,   -0.4,   -0.1,   -0.0,   -0.4,   -1.0,   -0.9,   -0.9,   -0.8,   -0.8,   -0.8,   -0.9,   -1.0,   -0.6,   -0.5,   -0.7,   -0.9,   -0.8,   -0.8,   -0.8,   -0.6,   -0.6,   -0.6,   -0.6,   -0.6,   -0.5,   -0.2,   -0.5,   -0.7,   -0.7,   -0.5,   -0.5,   -0.5,   -0.5,   -0.3,   -0.2,   -0.7,   -0.4,   -0.1,   -0.1,   -0.0,   -0.2,    0.0,   -0.1,   -0.1,   -0.2,    0.2,    0.2,    0.3,    0.0,    0.6,    0.7,    0.5,    0.5,    0.2,    0.3,    0.5,    0.5,    0.7,    0.8,    0.8,    0.9,    0.9,    0.8,    0.5,    0.9,    1.1,    0.5,    0.7,    1.1,    1.1,    1.2,    1.0,    0.4,    0.3,    1.0,    0.9,    0.0,    0.2,    0.1,    0.7,    0.5,    0.7,    0.9,    0.4,    0.3,    0.2,    0.2,  999.0,    1.1,    0.7,    0.8,    0.7,    0.6,    0.4,    0.2,   -0.1,    0.5,    0.1,   -0.2,   -0.3,   -0.6,   -0.5,   -0.9,   -0.9,   -0.7,   -0.9,   -1.5,   -1.5,   -2.1,   -2.0
2012/12/06 07:05,   -1.2,   -1.0,   -0.9,   -1.1,   -1.1,   -1.1,   -1.1,   -1.5,   -1.6,   -1.2,   -0.0,    0.0,   -0.1,   -1.1,   -1.2,   -1.1,   -1.0,   -1.0,   -1.1,   -0.9,   -1.0,   -1.2,   -0.8,   -0.9,   -1.2,   -0.9,   -1.0,   -1.2,   -1.3,   -1.2,   -0.7,   -1.3,   -1.2,   -1.2,   -0.9,   -0.6,   -0.7,  999.0,   -1.0,   -1.2,   -1.0,   -0.6,   -0.9,   -1.1,   -0.9,   -1.2,   -0.7,   -0.8,   -0.2,   -0.3,   -0.4,   -0.2,   -0.1,   -0.2,   -0.2,    0.1,    0.2,    0.0,    0.0,    0.6,    0.6,    0.6,    0.6,    0.4,    0.2,    0.3,    0.5,    0.8,    0.7,    0.7,    0.8,    0.8,    0.6,    0.7,    0.5,    0.6,    0.5,    0.7,    0.9,    0.4,    0.5,    0.5,    0.5,    0.5,   -0.0,    0.3,   -0.0,    0.1,   -0.4,    0.1,    0.1,  999.0,    0.2,   -0.0,   -0.1,  999.0,    0.3,    0.0,    0.7,    0.3,    0.4,    0.8,    0.4,    0.4,    0.1,    0.3,  999.0,  999.0,    0.1,    0.1,    0.1,   -0.3,   -0.4,   -0.1,   -0.6,   -0.6,   -0.9,   -1.1,   -1.1,   -1.1
2012/12/06 07:15,   -1.4,   -1.2,   -1.2,   -1.4,   -1.2,   -1.1,   -1.2,   -1.3,   -1.1,   -0.9,   -0.1,   -0.1,   -0.1,   -1.0,   -1.0,   -0.7,   -0.6,   -0.8,   -0.7,   -0.9,   -1.0,   -1.0,   -0.9,   -1.0,   -0.9,   -0.9,   -1.0,   -1.0,   -1.1,   -0.9,   -0.7,   -1.1,   -1.1,   -1.1,   -0.9,   -0.6,   -0.9,   -0.9,   -1.0,   -0.9,   -0.8,   -0.6,   -0.8,   -0.7,   -0.6,   -0.5,   -0.3,   -0.3,    0.1,   -0.0,   -0.4,   -0.2,   -0.0,   -0.1,   -0.1,    0.1,    0.0,    0.0,   -0.2,    0.5,    0.6,    0.3,    0.5,    0.4,    0.7,    0.5,    0.7,    0.9,    1.6,    1.5,    1.5,    1.0,    1.2,    1.2,    1.3,    1.3,    1.5,    1.0,    1.6,    1.5,    1.7,    2.0,    1.0,    0.8,    1.0,    0.1,  999.0,    0.1,   -0.1,    0.2,   -0.0,    0.0,  999.0,  999.0,  999.0,  999.0,    0.3,    0.9,    0.9,    0.7,    0.8,    0.8,    0.7,    0.6,  999.0,    0.4,    0.1,  999.0,    0.2,   -0.3,   -0.3,   -0.5,   -0.7,   -0.8,   -1.2,   -1.5,   -2.1,   -2.5,   -2.8,   -2.4
2012/12/06 07:25,   -0.7,   -0.6,   -0.7,   -0.7,   -0.7,   -0.8,   -1.0,   -1.0,   -0.8,   -0.8,   -0.1,    0.0,   -0.2,   -0.9,   -0.6,   -0.7,   -0.6,   -0.7,   -0.8,   -0.9,   -0.8,   -0.7,   -0.7,   -0.6,   -1.0,   -0.9,   -0.7,   -1.1,   -1.1,   -1.1,   -1.0,   -1.1,   -1.3,   -1.1,   -1.1,   -0.7,   -0.9,   -0.7,   -0.9,   -1.1,   -0.7,   -0.8,   -0.7,   -0.7,   -0.5,   -0.7,   -0.4,    0.1,   -0.3,   -0.3,   -0.1,   -0.1,   -0.1,   -0.1,    0.2,    0.0,    0.4,    0.4,    0.6,    1.0,    1.1,    0.5,    0.7,    0.9,    1.2,    0.9,    0.5,    1.4,    1.7,    1.9,    1.5,    2.0,    2.4,    2.2,    2.5,    1.9,    2.3,    2.0,    2.5,    2.8,    3.1,    2.5,    2.6,    1.6,    1.1,    0.2,  999.0,  999.0,  999.0,   -0.1,    2.2,  999.0,    1.0,  999.0,  999.0,  999.0,    1.0,    1.2,    0.9,    1.3,    0.5,    0.5,    0.4,   -0.0,   -0.1,   -0.3,   -0.5,  999.0,   -1.4,  999.0,  999.0,   -1.3,   -1.7,   -1.9,   -1.8,   -2.1,   -2.8,   -3.5,   -3.9,   -3.7
2012/12/06 07:35,   -0.8,   -0.7,   -0.9,   -0.8,   -0.6,   -1.0,   -1.3,   -1.5,   -1.3,   -1.0,   -0.1,    0.0,   -0.2,   -0.9,   -0.9,   -0.6,   -1.0,   -1.1,   -1.2,   -1.2,   -1.3,   -1.3,   -1.4,   -0.6,   -1.1,   -0.9,   -0.9,   -1.0,   -1.1,   -0.6,   -0.8,   -1.0,   -1.1,   -1.1,   -1.0,   -0.4,   -0.5,   -0.9,   -1.0,   -0.9,   -0.9,   -1.0,   -0.9,   -0.8,   -0.8,   -0.9,   -0.5,   -0.0,   -0.7,   -0.6,   -0.3,   -0.0,   -0.3,   -0.0,    0.1,    0.1,    0.2,    0.5,    0.7,    0.9,    1.3,    1.1,    0.9,    0.9,    1.2,    0.7,    0.7,    1.5,    1.4,    1.7,    2.0,    1.9,    2.0,    1.7,    1.7,    2.0,    2.3,    2.3,    2.3,    2.2,    2.6,    2.8,    1.7,    0.2,    0.1,    0.1,    0.1,    0.0,    0.1,    0.9,   -0.6,    0.4,    3.2,    2.8,    1.2,    0.4,    0.1,    1.2,    1.2,    1.2,    0.9,    0.6,    0.5,    0.2,    0.1,  999.0,   -0.5,    0.2,  999.0,  999.0,   -0.4,   -0.8,   -1.2,   -1.3,   -1.2,   -1.6,   -1.8,   -2.1,   -2.4,   -2.6
2012/12/06 07:45,   -0.9,   -1.0,   -1.2,   -1.0,   -0.8,   -0.9,   -1.0,   -1.2,   -1.1,   -0.9,   -0.1,   -0.2,   -0.3,   -0.8,   -0.9,   -0.7,   -0.7,   -1.0,   -1.1,   -0.7,   -0.9,   -0.8,   -0.8,   -0.6,   -0.5,   -0.5,   -0.6,   -0.4,   -0.4,   -0.4,   -0.3,   -0.6,   -0.6,   -0.4,   -0.2,   -0.1,  999.0,   -0.7,   -0.5,   -0.7,   -0.3,   -0.4,   -0.6,   -0.6,   -0.9,   -0.3,   -0.3,    0.0,   -0.4,   -0.6,   -0.2,   -0.2,    0.0,   -0.2,   -0.0,    0.1,    0.2,    0.1,    0.2,    0.3,    0.5,    0.3,    0.6,    0.5,    0.8,   -0.1,   -0.1,    0.6,    0.8,    1.2,    0.6,    1.2,    1.6,    1.5,    1.4,    1.6,    1.6,    1.7,    1.9,    2.0,    2.1,    2.2,   -0.0,   -0.1,   -0.8,   -0.6,    1.6,    0.4,    0.8,   -0.5,   -0.7,   -0.0,  999.0,   -0.0,  999.0,    0.5,    0.4,    0.8,    1.0,    1.2,    0.9,    1.0,    0.6,    0.8,   -0.0,  999.0,    0.8,    0.8,    0.6,    0.4,    0.4,    0.5,    0.3,   -0.1,   -0.1,   -0.3,   -0.6,   -0.4,   -0.6,   -0.6
2012/12/06 07:55,   -0.5,   -0.6,   -0.7,   -0.4,   -0.5,   -0.5,   -0.6,   -0.2,   -0.4,   -0.3,   -0.0,   -0.1,   -0.2,   -0.2,   -0.4,   -0.3,   -0.4,   -0.5,   -0.5,   -0.5,   -0.4,   -0.5,   -0.4,   -0.3,   -0.3,   -0.4,   -0.6,   -0.3,   -0.4,   -0.2,    0.0,   -0.1,   -0.2,   -0.2,    0.1,    0.3,   -0.2,   -0.4,   -0.2,   -0.4,   -0.4,   -0.2,   -0.1,   -0.4,   -0.5,   -0.1,   -0.2,    0.2,    0.1,   -0.0,    0.1,    0.2,    0.2,    0.6,    0.4,    0.9,    0.9,    0.7,    0.8,    1.4,    1.4,    0.8,    0.9,    1.4,    0.4,    0.4,    0.6,    1.3,    1.3,    1.8,    1.7,    1.8,    2.0,    1.7,    1.7,    1.8,    1.9,    1.8,    2.2,    2.4,    2.0,    2.1,    0.8,    0.7,    0.0,    0.7,    2.3,    2.5,   -0.0,  999.0,  999.0,  999.0,    0.1,    1.7,    1.8,    0.4,    0.5,    0.5,    0.3,    0.2,   -0.1,   -0.4,   -0.1,   -0.3,   -0.4,   -0.4,   -0.3,   -0.1,   -0.0,  999.0,   -0.2,   -0.3,   -0.2,   -0.3,   -0.4,   -0.5,   -0.7,   -0.8,   -0.8,   -0.4
2012/12/06 08:05,   -0.4,   -0.2,   -0.2,   -0.1,    0.2,   -0.4,   -0.2,   -0.2,   -0.2,   -0.1,    0.0,   -0.0,    0.0,   -0.1,   -0.0,    0.1,    0.1,    0.1,    0.0,    0.0,    0.1,    0.0,    0.0,   -0.1,   -0.1,   -0.1,   -0.2,   -0.2,    0.0,    0.0,    0.1,   -0.1,   -0.2,    0.1,   -0.0,    0.3,   -0.3,   -0.4,   -0.2,   -0.0,   -0.1,   -0.3,   -0.2,   -0.2,   -0.2,   -0.2,    0.2,    0.0,    0.1,    0.1,   -0.2,   -0.1,    0.3,    0.3,    0.3,    0.4,    0.7,    0.7,    0.6,    1.0,    1.1,    1.0,    0.9,    1.0,    0.8,    0.7,    0.8,    1.6,    1.5,    1.9,    1.8,    1.7,    2.2,    1.8,    1.6,    1.6,    1.9,    1.5,    1.9,    1.5,    1.0,    1.5,    0.6,    1.4,    0.4,    0.8,    1.2,  999.0,  999.0,  999.0,  999.0,    1.9,  999.0,  999.0,  999.0,  999.0,  999.0,  999.0,    0.7,    0.2,   -0.0,    0.6,    0.5,    0.1,    0.2,    0.4,    0.4,    0.7,    0.9,   -0.3,  999.0,    0.0,   -0.1,   -0.5,   -0.3,   -0.4,   -0.0,   -0.1,    0.4,    0.7
2012/12/06 08:15,   -0.1,   -0.0,    0.2,    0.3,    0.2,    0.1,    0.1,   -0.0,   -0.2,    0.1,    0.1,   -0.1,   -0.1,   -0.2,   -0.1,   -0.2,   -0.2,   -0.2,   -0.3,   -0.4,   -0.3,   -0.2,   -0.3,   -0.1,    0.0,   -0.1,    0.1,    0.1,    0.2,    0.1,    0.4,    0.6,    0.7,    0.7,    0.4,    0.1,    0.3,    0.4,    0.4,    0.5,    0.6,    0.5,    0.5,    0.6,    0.6,    0.5,    0.5,    0.6,    0.4,    0.4,    0.5,    0.3,    0.4,    0.7,    0.7,    0.8,    0.9,    0.6,    0.8,    1.3,    1.0,    0.8,    1.0,    1.0,    0.4,    0.4,    0.3,    0.8,    1.5,    1.1,    1.2,    1.6,    2.2,    1.5,    1.0,    1.5,    2.0,    1.2,    1.6,    1.9,    1.7,    1.9,    1.0,    0.5,  999.0,  999.0,  999.0,  999.0,    0.1,    0.0,  999.0,  999.0,    0.3,  999.0,    3.0,    0.1,    0.2,    0.7,    0.5,    0.5,    0.1,    0.2,    0.2,   -0.0,   -0.1,   -0.3,   -0.2,   -0.4,    0.0,   -0.3,   -0.2,    0.4,   -0.1,   -0.1,   -0.2,   -0.6,   -0.9,   -0.6,   -1.1,   -1.3
2012/12/06 08:25,   -0.4,   -0.4,   -0.2,   -0.0,   -0.2,   -0.5,   -0.5,   -0.5,   -0.4,   -0.3,   -0.2,   -0.3,   -0.3,   -0.3,   -0.3,   -0.3,   -0.3,   -0.3,   -0.6,   -0.6,   -0.6,   -0.6,   -0.7,   -0.6,   -0.5,   -0.5,   -0.4,   -0.2,    0.0,    0.2,    0.2,    0.7,    0.7,    0.8,    0.5,    0.0,    0.2,    0.3,    0.3,    0.3,    0.2,    0.3,    0.4,    0.4,    0.3,    0.3,    0.3,    0.5,    0.3,    0.2,    0.2,    0.1,    0.3,    0.3,    0.9,    0.6,    0.8,    0.2,    0.3,    0.7,    0.4,    0.6,    0.3,    0.4,    0.3,    0.4,    0.7,    0.8,    0.8,    0.8,  999.0,    1.7,    1.0,    0.7,    0.4,    0.9,    0.5,    0.5,    1.1,    1.5,    0.9,    1.1,    0.0,    0.5,    0.7,   -2.2,    1.0,   -1.2,    1.3,    1.0,    1.0,    0.5,    1.3,    1.0,    0.1,    0.3,  999.0,    0.3,    1.2,    0.7,    0.7,    1.3,    1.1,    0.8,    1.0,    0.5,    0.6,    0.2,    0.1,    0.2,   -0.1,    0.2,    0.0,    0.1,    0.1,    0.3,    0.2,    0.0,   -0.3,   -0.4
2012/12/06 08:35,    0.3,    0.4,    0.3,    0.4,    0.2,    0.3,    0.2,    0.1,    0.1,    0.1,   -0.0,    0.1,   -0.1,   -0.2,   -0.2,   -0.3,   -0.2,   -0.2,   -0.4,   -0.4,   -0.3,   -0.4,   -0.5,   -0.5,   -0.2,   -0.2,   -0.2,    0.1,    0.4,    0.4,    0.7,    1.0,    1.1,    0.3,    0.2,   -0.3,    0.4,    0.6,    0.5,    0.5,    0.3,    0.4,    0.8,    0.6,    0.6,    0.6,    0.9,    0.9,    0.4,    0.9,    0.6,    0.6,    0.7,    1.1,    1.1,    1.3,    1.1,    0.8,   -0.2,   -0.5,    0.4,    0.7,    0.3,    0.6,    0.9,    1.5,    2.9,    1.0,    0.8,    1.4,    1.2,    1.1,    0.8,    0.7,    0.4,    0.9,    0.7,    0.6,    1.1,    1.0,    0.7,    0.9,    0.5,    0.5,    0.7,    0.4,    0.3,    0.2,    0.5,    0.6,    0.7,    0.3,    0.6,    0.4,    0.1,    0.2,    0.4,    0.3,    0.8,    0.6,    1.0,    1.0,   -0.2,    0.5,    0.9,    0.3,    0.3,   -0.6,   -0.3,   -0.1,    0.1,   -0.0,    0.2,    0.3,    0.5,   -0.2,   -0.4,   -0.7,    1.1,    1.2
2012/12/06 08:45,    0.4,    0.4,    0.2,    0.2,    0.2,    0.2,    0.2,    0.0,    0.1,    0.1,   -0.0,   -0.1,   -0.1,   -0.1,   -0.2,   -0.1,   -0.1,   -0.0,   -0.4,   -0.3,   -0.4,   -0.5,   -0.3,   -0.2,   -0.1,   -0.1,   -0.0,    0.0,    0.3,    0.3,    0.4,    0.5,    0.8,    0.4,    0.4,    0.2,    0.4,    0.2,    0.4,    0.3,    0.4,    0.4,    0.3,    0.3,    0.5,    0.4,    0.7,    0.5,    0.5,    0.7,    0.6,    0.8,    1.2,    1.0,    1.1,    1.2,    0.6,    0.5,    0.7,    0.9,    0.5,    0.8,    0.8,    0.5,    0.7,    0.3,    0.8,    0.9,    0.7,    1.1,    0.8,    0.7,    0.8,    0.4,    0.5,    0.4,    0.3,   -0.2,    0.9,    0.8,    0.4,    0.5,    0.7,    0.3,    0.3,    0.2,    0.3,   -0.0,    0.2,    0.2,    0.2,    0.1,    0.2,    0.2,    0.3,   -0.3,   -0.1,    0.3,    0.2,    0.4,    0.3,    0.6,    0.3,   -0.0,    0.2,   -0.1,   -0.2,   -0.2,   -0.4,   -0.5,   -0.5,   -0.6,   -0.5,   -0.5,   -0.4,   -0.5,   -0.2,   -0.3,   -0.1,   -0.2
2012/12/06 08:55,    0.4,    0.3,    0.2,   -0.3,   -0.2,   -0.3,   -0.4,   -0.4,   -0.3,   -0.2,   -0.2,   -0.4,   -0.3,   -0.2,   -0.2,   -0.2,   -0.2,   -0.3,   -0.3,   -0.4,   -0.5,   -0.3,   -0.1,   -0.2,   -0.5,   -0.4,   -0.1,   -0.0,    0.2,    0.2,    0.2,    0.4,    0.5,    0.5,    0.1,   -0.1,    0.0,   -0.1,    0.1,    0.4,    0.1,    0.4,    0.1,    0.2,    0.3,    0.3,    0.4,    0.1,    0.3,    0.4,    0.3,    0.5,    0.6,    0.4,    0.5,    0.3,    0.2,    0.4,    0.7,    0.6,    0.6,    0.5,    0.4,    0.2,    0.5,    0.2,    1.0,    0.6,    0.5,    0.4,    0.3,    0.2,    0.1,    0.5,    0.2,   -0.2,   -0.2,   -0.1,    0.5,    0.2,    0.1,   -0.0,   -0.2,    0.2,    0.3,    0.4,   -0.0,    0.9,    0.0,    0.4,    0.2,    0.0,  999.0,    0.2,    0.0,   -0.3,    0.0,   -0.2,   -0.2,   -0.2,   -0.9,   -0.1,   -0.6,   -0.1,    0.0,    0.1,   -0.5,   -0.6,   -0.8,   -0.6,   -0.8,   -0.9,   -1.1,   -0.7,   -0.7,   -1.2,   -1.0,   -1.1,   -0.8,   -0.9
2012/12/06 09:05,    0.4,    0.2,    0.3,    0.0,    0.1,    0.0,    0.2,    0.1,    0.0,   -0.0,    0.1,    0.1,   -0.0,    0.0,   -0.0,    0.0,    0.1,   -0.1,   -0.2,   -0.2,   -0.2,   -0.1,   -0.0,   -0.2,    0.1,    0.2,    0.0,    0.0,   -0.2,    0.0,   -0.0,    0.1,   -0.1,   -0.0,    0.2,    0.2,   -0.2,   -0.1,    0.1,    0.2,   -0.0,    0.5,   -0.3,   -0.2,   -1.0,    0.2,   -0.2,   -0.0,   -0.4,    0.1,   -0.2,   -0.1,    1.1,    0.5,    0.2,    0.2,    0.4,   -1.2,    0.0,    0.1,    0.0,    0.4,    0.4,    0.3,    0.2,    0.0,    0.6,    0.3,   -0.1,    0.1,   -0.5,    0.0,   -0.2,   -0.2,   -0.1,   -0.4,   -0.1,   -0.5,   -0.3,   -0.3,   -0.6,   -0.6,   -0.1,   -0.1,   -0.5,   -0.4,   -0.2,   -0.1,   -0.3,  999.0,   -0.6,   -0.4,   -0.5,   -0.1,   -0.2,  999.0,   -0.1,   -0.5,   -0.2,   -0.4,   -0.5,   -0.5,   -0.6,   -0.3,   -0.1,   -0.1,   -0.3,   -0.4,   -0.2,   -0.5,   -0.4,   -0.4,   -0.7,   -0.7,   -0.5,   -0.5,   -0.5,   -0.4,   -0.5,   -0.5
2012/12/06 09:15,   -0.6,   -0.4,   -0.2,   -0.3,   -0.3,   -0.3,   -0.2,   -0.3,   -0.2,   -0.1,   -0.1,   -0.1,   -0.2,   -0.0,    0.0,   -0.1,    0.0,   -0.1,   -0.0,   -0.1,   -0.2,   -0.1,   -0.0,   -0.1,   -0.0,    0.1,   -0.0,   -0.0,    0.1,    0.3,    0.2,    0.0,   -0.0,   -0.1,   -0.0,   -0.1,   -0.1,   -0.1,    0.1,   -0.0,   -0.1,   -0.2,   -0.3,   -0.4,   -0.2,   -0.2,   -0.2,    0.3,    0.1,    0.2,   -0.1,    0.1,   -0.1,   -0.2,   -0.3,   -0.1,   -0.1,   -0.4,   -0.5,   -0.1,    0.1,    0.0,   -0.1,   -0.2,   -0.5,   -0.6,   -0.2,   -0.6,   -0.5,   -0.4,   -0.5,   -0.6,   -0.4,   -0.5,   -0.6,   -0.6,   -0.5,   -0.5,   -0.4,   -0.4,   -0.8,   -1.0,   -0.5,   -0.4,   -0.7,   -0.2,   -0.1,   -0.2,   -0.3,   -0.1,   -0.1,    0.0,   -0.1,   -0.2,   -0.4,   -0.6,    0.0,    0.0,  999.0,   -0.3,   -0.4,   -0.9,   -0.6,   -0.7,   -0.8,   -0.5,   -0.6,   -1.0,   -0.3,   -1.0,   -1.0,   -1.2,   -1.8,   -1.0,   -0.8,   -1.5,   -0.6,   -0.6,   -1.0,   -0.5
2012/12/06 09:25,   -0.4,   -0.5,   -0.3,    0.1,    0.1,    0.3,    0.3,    0.1,    0.0,    0.1,    0.0,   -0.1,    0.0,    0.1,    0.0,   -0.1,    0.2,    0.1,   -0.1,   -0.1,   -0.1,   -0.3,   -0.3,   -0.1,   -0.1,   -0.0,   -0.0,   -0.0,   -0.0,    0.0,    0.1,   -0.1,   -0.3,   -0.2,   -0.2,   -0.4,   -0.5,   -0.4,   -0.1,    0.0,   -0.1,   -0.2,   -0.4,   -0.3,   -0.3,   -0.5,   -0.1,   -0.2,   -0.3,   -0.2,   -0.2,   -0.3,    0.2,    0.1,   -0.1,    0.1,    0.0,   -0.2,   -0.2,    0.0,    0.1,   -0.1,   -0.1,   -0.3,   -0.5,   -0.2,   -0.6,   -0.3,   -0.2,   -0.3,   -0.3,   -0.3,   -0.1,   -0.1,   -0.4,   -0.4,   -0.4,    0.0,   -0.1,   -0.2,   -0.4,   -0.5,   -0.4,   -0.3,   -0.1,   -0.1,   -0.1,  999.0,   -0.3,   -0.2,   -0.3,   -0.1,   -0.3,   -0.2,    0.1,   -0.3,    0.2,   -0.3,   -0.5,   -1.0,   -1.1,   -1.2,   -1.0,   -1.4,   -1.9,   -1.3,   -1.3,   -1.3,   -1.6,   -1.5,   -1.2,   -1.6,   -1.5,   -1.1,   -1.0,   -1.2,   -1.1,   -0.6,   -0.4,    0.3
2012/12/06 09:35,   -0.8,   -0.6,    0.0,    0.1,    0.1,    0.0,   -0.0,   -0.1,   -0.1,   -0.1,    0.1,    0.1,   -0.1,    0.1,    0.1,   -0.0,    0.2,   -0.0,   -0.2,   -0.0,    0.1,    0.2,    0.1,    0.7,    0.8,    0.8,    0.1,    1.0,    1.0,    0.8,    0.7,    0.7,    0.6,    0.6,    0.3,    0.5,    0.5,    0.5,    0.3,    0.3,    0.2,   -0.1,   -0.1,    0.1,    0.1,    0.2,    0.1,    0.2,   -0.0,    0.1,   -0.1,    0.0,    0.6,    0.5,    0.3,    0.2,    0.3,    0.2,    0.3,    0.8,    0.7,    0.6,    0.4,    0.5,    0.1,    0.4,    0.5,    0.8,    0.8,    0.8,    0.5,    0.6,    0.6,    0.4,    0.1,    0.4,    0.2,    0.3,    0.2,   -0.0,    0.0,   -0.1,    0.2,   -0.0,   -0.1,   -0.3,   -0.3,   -1.1,    0.2,   -0.2,   -0.7,  999.0,  999.0,   -0.1,   -0.2,  999.0,    0.1,   -0.6,  999.0,   -1.1,  999.0,   -2.2,   -2.2,   -2.5,   -2.2,   -2.4,   -2.3,   -2.3,   -2.3,   -2.4,   -2.0,   -1.2,   -2.1,   -1.6,   -1.5,   -0.9,   -0.4,   -0.1,    0.7,  999.0
2012/12/06 09:45,   -0.8,   -0.5,   -0.2,   -0.3,   -0.1,    0.0,   -0.3,   -0.3,   -0.1,   -0.1,   -0.1,   -0.1,    0.1,   -0.0,   -0.2,   -0.0,    0.0,    0.0,    0.1,    0.3,    0.3,    0.4,    0.6,    0.5,    0.5,    0.5,    0.2,    0.7,    0.8,    0.8,    0.6,    0.6,    0.6,    0.6,    0.5,    0.5,    0.4,    0.4,    0.5,    0.3,    0.2,    0.2,    0.2,    0.3,    0.2,    0.1,    0.1,    0.3,    0.4,    0.5,    0.4,    0.4,    0.9,    0.3,    0.3,    0.4,    0.7,    0.4,    0.4,    0.6,    0.7,    0.7,    0.6,    0.4,    0.4,    0.2,    0.3,    0.5,    0.6,    0.5,    0.2,    0.3,   -0.0,    0.2,   -0.2,   -0.3,   -0.4,    0.0,    0.0,   -0.5,   -0.1,    0.1,   -0.0,   -0.3,   -0.3,   -0.1,   -0.4,   -0.5,  999.0,   -1.0,   -1.4,   -1.0,   -1.9,   -0.3,   -2.7,    0.1,    0.1,   -0.2,   -1.9,   -2.5,   -4.6,   -4.9,   -5.3,   -5.5,   -5.5,   -5.6,   -6.5,   -6.7,   -6.5,   -7.1,   -6.4,   -6.7,   -5.5,   -5.7,   -4.9,   -3.3,   -2.9,   -2.1,  999.0,  999.0
2012/12/06 09:55,   -0.9,   -0.6,   -0.2,   -0.3,   -0.1,    0.1,   -0.0,   -0.0,   -0.1,   -0.1,    0.1,    0.1,    0.2,    0.3,    0.1,    0.2,    0.3,    0.3,    0.6,    0.4,    0.3,    0.4,    0.6,    0.6,    0.6,    0.7,    0.2,    1.0,    1.0,    0.7,    0.8,    0.6,    0.5,    0.6,    0.5,    0.7,    0.6,    0.3,    0.4,    0.5,    0.3,    0.3,    0.5,    0.1,   -0.0,    0.1,    0.6,    0.8,    0.7,    0.6,    0.5,    0.4,    0.0,   -0.0,    0.2,    0.3,    0.4,    0.4,    0.2,    0.3,    0.6,    0.3,    0.0,    0.2,   -0.2,   -0.3,   -0.1,    0.0,    0.6,   -0.0,   -0.0,   -0.2,    0.0,    0.3,   -0.1,   -0.1,   -0.2,   -0.1,    0.0,   -0.4,   -0.0,    0.3,    0.0,  999.0,   -0.2,    0.1,    0.1,   -0.1,   -0.4,   -0.5,   -1.0,  999.0,   -0.5,   -0.9,   -0.2,  999.0,  999.0,  999.0,   -2.3,   -2.4,   -3.5,   -2.8,   -3.1,   -4.1,   -4.3,   -4.5,   -4.3,   -4.7,   -5.0,   -4.5,   -6.1,   -2.7,   -3.7,   -3.4,   -2.9,   -2.4,   -2.0,  999.0,   -1.1,   -1.0
2012/12/06 10:05,   -0.2,    0.0,    0.1,    0.1,   -0.1,   -0.3,   -0.3,   -0.3,   -0.2,   -0.4,   -0.1,   -0.1,   -0.2,   -0.1,   -0.1,   -0.0,   -0.0,    0.1,    0.0,    0.1,    0.1,    0.3,    0.3,    0.2,    0.1,    0.4,    0.1,    0.4,    0.6,    0.4,    0.5,    0.4,    0.3,    0.3,    0.6,    0.5,    0.3,    0.2,    0.4,    0.4,    0.4,    0.2,    0.1,    0.3,    0.3,    0.2,    0.3,    0.5,    0.6,    0.5,    0.4,    0.4,    0.4,    0.0,    0.2,    0.4,    0.4,   -0.1,   -0.1,    0.1,    0.3,   -0.1,   -0.2,   -0.4,    0.1,    0.1,    0.3,    0.2,    0.2,    0.4,    0.3,    0.8,    0.7,    0.3,    0.0,    0.3,   -0.0,    0.7,   -0.1,  999.0,    0.4,    0.5,    0.5,    0.4,    0.2,    0.3,    0.0,    0.3,    0.2,    0.2,    0.3,    0.7,  999.0,    0.7,    0.1,   -0.4,   -0.0,   -0.2,    0.5,    0.1,    1.2,    0.6,    0.7,   -0.3,    0.3,    0.5,    0.0,    0.6,    0.3,   -4.0,    0.2,    0.7,    0.5,    0.7,    0.4,    1.6,    0.9,  999.0,  999.0,  999.0
2012/12/06 10:15,   -1.4,   -1.3,   -0.7,   -0.4,   -0.1,   -0.1,   -0.5,   -0.5,   -0.4,   -0.3,   -0.5,   -0.3,   -0.2,   -0.3,   -0.3,   -0.5,   -0.4,   -0.6,   -0.5,   -0.4,   -0.2,   -0.2,   -0.4,   -0.5,   -0.4,   -0.1,    0.0,   -0.3,    0.1,   -0.0,   -0.2,   -0.1,   -0.2,   -0.1,   -0.0,    0.1,    0.0,    0.1,    0.2,    0.3,    0.5,    0.2,    0.3,    0.2,   -0.0,    0.2,   -0.1,    0.1,    0.3,   -0.0,   -0.3,   -0.3,   -0.3,   -0.3,   -0.3,   -0.1,    0.1,    0.0,   -0.2,    0.0,    0.3,   -0.2,    0.2,    0.0,    0.6,    0.3,    0.2,    0.8,    1.1,    0.7,    0.5,    0.8,    0.8,    1.0,    1.0,    0.5,    0.8,    0.9,    1.0,    0.9,    1.5,    1.2,    0.4,    0.6,    1.1,    1.5,    1.5,  999.0,    1.0,    0.8,    1.2,    1.1,    1.2,    0.3,    0.3,    0.0,    0.2,  999.0,  999.0,  999.0,  999.0,    1.9,    1.9,    2.7,    1.7,    3.9,    0.8,  999.0,    4.2,  999.0,    4.6,    4.7,    4.2,    3.8,    3.4,    2.5,    2.1,    1.7,    0.8,  999.0
2012/12/06 10:25,   -1.1,   -1.0,   -1.3,   -1.5,   -0.6,   -0.6,   -0.8,   -0.5,   -0.4,   -0.6,   -0.5,   -0.3,   -0.2,   -0.5,   -0.6,   -0.6,   -0.6,   -0.4,   -0.3,   -0.5,   -0.4,   -0.6,   -0.6,   -0.8,   -0.8,   -0.4,   -0.3,   -0.4,   -0.5,   -0.4,   -0.4,   -0.6,   -0.4,   -0.4,   -0.4,   -0.2,   -0.4,   -0.4,   -0.3,   -0.2,   -0.0,   -0.2,   -0.2,   -0.1,   -0.0,   -0.1,   -0.2,   -0.1,   -0.0,    0.1,   -0.1,   -0.1,   -0.2,   -0.2,   -0.4,   -0.2,   -0.3,   -0.3,    0.0,    0.1,    0.4,   -0.1,   -0.0,    0.1,    0.1,    0.1,    0.1,    0.4,    0.1,    0.0,    0.1,    0.2,    0.4,    0.4,    0.3,    0.1,    0.2,    0.3,    0.6,    0.7,    1.3,    0.9,    0.9,    0.7,  999.0,    0.5,    0.4,  999.0,  999.0,    1.2,    1.4,  999.0,    2.3,    2.2,    0.8,   -0.0,    0.0,  999.0,    3.7,    0.2,    3.8,    3.8,    3.9,    3.8,    3.7,    4.3,    5.2,    4.4,    1.5,    5.6,    4.1,    5.2,    3.7,    4.0,    3.2,    0.8,    1.7,    1.4,    0.8,  999.0
2012/12/06 10:35,   -2.5,   -1.6,   -2.7,   -2.4,   -1.6,   -1.1,   -1.3,   -1.1,   -1.0,   -0.7,   -0.9,   -0.6,   -0.6,   -0.9,   -1.0,   -0.9,   -0.9,   -1.0,   -1.0,   -1.1,   -1.1,   -1.2,   -1.0,   -1.1,   -0.8,   -0.7,   -0.2,   -0.7,   -0.6,   -0.6,   -0.5,   -0.5,   -0.4,   -0.4,   -0.3,   -0.3,   -0.6,   -0.7,   -0.7,   -0.5,   -0.4,   -0.5,   -0.5,   -0.3,   -0.4,   -0.3,   -0.5,   -0.4,   -0.2,   -0.1,   -0.5,   -0.6,   -0.6,   -0.6,   -0.6,   -0.2,   -0.3,   -0.3,   -0.1,    0.0,    0.3,    0.1,   -0.3,   -0.2,    0.0,   -0.0,    0.1,    0.2,    0.2,    0.3,   -0.0,  999.0,    0.6,    0.2,    0.3,    0.2,    0.3,    0.2,    0.2,  999.0,    0.4,    0.8,    0.2,    0.7,    1.0,    0.0,   -0.0,    0.3,    0.4,    0.2,  999.0,    0.2,    0.3,    0.9,   -0.0,    1.2,   -0.1,    1.7,    1.1,    2.5,  999.0,    1.9,    1.2,    0.8,    1.0,    0.5,    0.8,    1.0,    0.6,    0.7,    0.9,    1.4,    1.0,    1.0,    0.7,    0.5,    0.6,  999.0,   -9.4,   -7.4
2012/12/06 10:45,   -0.8,   -1.1,   -0.8,   -1.0,   -0.9,   -1.4,   -0.5,   -0.7,   -0.8,   -0.8,   -0.6,   -0.5,   -1.0,   -0.8,   -0.7,   -0.9,   -1.0,   -1.2,   -1.2,   -1.2,   -1.1,   -1.1,   -1.1,   -1.1,   -1.0,   -0.4,   -0.5,   -0.5,   -0.4,   -0.6,   -0.4,   -0.1,   -0.4,   -0.2,   -0.3,    0.1,   -0.2,   -0.3,   -0.1,   -0.0,    0.0,   -0.1,   -0.1,   -0.0,   -0.1,   -0.1,   -0.1,    0.1,    0.1,    0.1,    0.0,    0.1,    0.0,    0.2,    0.4,    0.4,    0.4,    0.1,    0.6,    0.4,    0.5,    0.2,    0.1,    0.1,    0.2,    0.4,    0.7,    0.6,    0.8,    0.6,    0.1,    0.2,    0.6,    0.4,    0.1,   -0.4,   -0.1,   -0.1,   -0.2,   -0.4,   -0.2,    0.1,    0.1,    0.2,  999.0,    0.9,    0.0,    0.0,  999.0,  999.0,   -0.2,   -0.0,    0.2,   -0.0,   -0.0,   -0.2,   -0.5,   -0.1,   -0.2,   -0.1,   -0.2,   -0.4,   -0.7,   -0.8,   -0.8,   -1.5,   -1.2,   -1.3,   -1.0,   -1.4,   -1.4,   -1.1,   -1.0,   -1.0,   -0.9,   -0.5,   -1.0,  999.0,   -0.8,  999.0
2012/12/06 10:55,   -2.1,   -1.6,   -1.2,   -1.7,   -0.6,   -0.4,   -0.2,   -0.5,   -1.0,   -0.7,   -0.5,   -0.5,   -0.5,   -0.7,   -0.6,   -0.6,   -0.8,   -0.8,   -0.7,   -0.8,   -0.7,   -1.0,   -1.0,   -1.1,   -0.6,   -0.5,   -0.4,   -0.2,   -0.6,   -0.3,    0.0,    0.1,   -0.5,   -0.6,   -0.6,   -0.3,   -0.2,   -0.2,   -0.2,   -0.2,   -0.4,   -0.3,   -0.3,   -0.1,    0.2,    0.1,   -0.4,   -0.1,   -0.1,   -0.2,   -0.2,   -0.6,    0.3,   -0.1,   -0.6,   -0.1,   -0.2,   -0.4,   -0.1,   -0.1,   -0.2,   -0.2,   -0.3,   -0.3,   -0.0,   -0.2,   -0.1,    0.7,    0.1,   -0.3,    0.1,   -0.1,   -0.1,   -0.1,   -0.3,   -0.5,    0.8,    0.0,   -0.2,   -0.4,    0.1,    0.0,   -0.3,   -1.2,   -0.1,    0.1,    0.0,    0.0,   -0.1,    0.0,    0.5,    0.3,  999.0,    0.1,   -0.2,   -0.2,    0.1,   -0.3,   -0.2,   -0.1,    0.1,   -1.2,   -0.8,   -0.5,   -0.9,   -1.4,   -1.9,   -1.9,   -2.2,   -2.8,   -1.6,   -1.9,   -1.8,   -2.5,   -1.2,   -1.8,  999.0,  999.0,  999.0,  999.0
2012/12/06 11:05,   -0.7,   -0.3,   -0.3,   -0.3,   -0.4,   -0.2,   -0.2,   -0.2,   -0.4,   -0.5,   -0.4,   -0.4,   -0.7,   -0.6,   -0.7,   -0.7,   -0.8,   -0.8,   -0.7,   -1.1,   -0.9,   -1.3,   -1.2,   -1.0,   -0.6,   -0.6,   -0.8,   -0.7,   -0.8,   -0.6,   -0.2,   -0.1,   -0.8,   -0.9,   -0.9,   -0.6,   -0.4,   -0.6,   -0.8,   -0.7,   -0.8,   -0.7,   -0.7,   -0.8,   -0.7,   -0.5,   -0.6,   -0.7,   -0.8,   -0.8,   -0.6,   -0.5,   -0.5,   -0.3,   -0.3,   -0.3,   -0.2,   -0.1,   -0.2,   -0.0,   -0.1,   -0.4,   -0.5,   -0.3,   -0.2,   -0.1,   -0.2,   -0.1,    0.1,   -0.0,   -0.2,    0.0,    0.1,   -0.0,   -0.3,   -0.4,   -0.3,   -0.4,   -0.3,   -1.6,   -0.1,    0.0,   -0.1,    0.1,    0.1,   -0.2,   -0.1,   -0.2,    0.1,   -0.3,   -0.2,    0.0,    0.0,   -0.0,    0.1,    0.3,    0.1,   -0.1,   -0.1,    0.1,   -0.4,   -0.6,   -0.4,   -0.2,   -0.6,   -0.3,   -0.8,   -0.7,   -0.7,   -1.2,   -0.7,   -0.9,   -1.2,   -1.0,   -1.0,    0.0,  999.0,    2.3,  999.0,  999.0
2012/12/06 11:15,   -0.3,   -0.1,   -0.1,   -0.1,   -0.1,   -0.1,   -0.0,   -0.0,   -0.3,   -0.4,   -0.1,   -0.3,   -0.4,   -0.4,   -0.5,   -0.9,   -0.9,   -0.9,   -1.0,   -1.1,   -1.1,   -0.9,   -0.6,   -0.3,   -0.2,   -0.3,   -0.4,   -0.3,   -0.4,   -0.2,   -0.1,   -0.2,   -0.4,   -0.7,   -0.6,   -0.2,   -0.8,   -0.8,   -0.9,   -0.7,   -0.9,   -0.9,   -0.7,   -0.5,   -0.4,   -0.4,   -0.5,   -0.4,   -0.6,   -0.3,   -0.3,   -0.3,   -0.2,   -0.0,   -0.6,    0.1,   -0.1,   -0.0,   -0.2,   -0.0,    0.2,   -0.3,   -0.4,   -0.1,   -0.2,   -0.0,   -0.5,    0.0,    0.3,   -0.1,   -0.2,   -0.2,    0.1,   -0.0,   -0.1,   -0.4,    0.0,    0.0,   -0.0,   -0.4,   -0.2,    0.2,   -0.1,    0.0,    0.1,   -0.0,   -0.1,    0.0,    0.0,  999.0,    0.3,    0.1,    0.5,    0.3,    0.0,    0.4,  999.0,  999.0,    0.4,    0.1,    0.3,    0.5,    0.2,    0.5,    0.2,    0.6,    0.6,    0.2,    0.3,    0.6,    0.5,    0.6,    0.9,    1.4,    1.1,    1.0,    1.4,  999.0,    1.1,  999.0
2012/12/06 11:25,   -0.0,    0.2,    0.3,    0.2,    0.2,    0.1,    0.1,    0.1,    0.1,    0.0,    0.0,    0.2,    0.0,   -0.1,   -0.3,   -0.4,   -0.4,   -0.4,   -0.4,   -0.7,   -0.7,   -0.7,   -0.3,   -0.2,   -0.1,   -0.4,   -0.2,   -0.3,   -0.2,   -0.2,    0.0,   -0.3,   -0.4,   -0.7,   -0.5,   -0.2,   -0.7,   -0.7,   -0.9,   -0.9,   -1.0,   -0.9,   -0.8,   -0.6,   -0.4,   -0.5,   -0.5,   -0.4,   -0.5,   -0.4,   -0.4,   -0.3,   -0.2,   -0.3,   -0.2,   -0.4,   -0.2,   -0.3,   -0.4,   -0.1,    0.1,   -0.2,   -0.3,   -0.3,   -0.4,   -0.2,   -0.4,   -0.1,   -0.1,   -0.3,   -0.5,    0.1,    0.2,   -0.1,   -0.2,   -0.6,   -0.5,   -0.4,   -0.3,   -0.7,   -0.1,   -0.2,   -0.0,   -0.2,   -0.2,   -0.2,    0.0,    0.1,   -0.2,    0.0,   -0.1,   -0.1,   -0.0,   -0.1,    0.2,    0.1,    0.0,   -0.1,   -0.2,    0.2,    0.0,   -0.1,   -0.2,   -0.7,   -0.2,   -0.5,   -0.6,   -0.7,   -0.3,   -0.2,   -0.3,   -0.2,   -0.1,   -0.2,   -0.1,   -0.1,    0.1,    0.3,    0.0,    0.2
2012/12/06 11:35,   -0.3,   -0.3,    0.1,    0.1,    0.2,    0.2,    0.1,    0.1,    0.1,    0.1,   -0.1,    0.1,    0.1,   -0.0,   -0.0,   -0.4,   -0.1,   -0.3,   -0.2,   -0.4,   -0.6,   -0.4,   -0.1,    0.1,    0.0,   -0.1,   -0.0,   -0.0,   -0.1,    0.0,   -0.0,   -0.1,   -0.3,   -0.3,   -0.3,   -0.1,   -0.4,   -0.4,   -0.6,   -0.6,   -0.5,   -0.3,   -0.5,   -0.6,   -0.2,   -1.0,   -0.4,   -0.2,   -0.5,   -0.5,   -0.5,   -0.7,   -0.5,   -0.6,   -0.9,    0.1,   -0.6,   -0.5,   -0.5,   -0.3,    0.0,   -0.8,   -0.8,   -0.4,   -0.8,   -0.6,   -0.5,   -0.7,   -0.8,   -0.2,    0.3,    0.2,   -0.3,   -0.7,   -0.8,   -0.6,   -0.9,    0.4,    0.6,  999.0,  999.0,   -0.7,  999.0,   -0.1,   -0.2,    0.2,    0.2,   -0.1,   -0.4,    0.1,   -0.3,    0.1,   -0.3,    0.3,    1.1,    0.3,  999.0,    0.3,   -0.3,  999.0,   -0.5,   -0.2,    1.6,   -0.5,   -0.3,   -0.2,   -0.5,   -0.4,   -0.8,    1.2,   -0.6,   -0.4,   -0.6,   -0.6,   -0.7,   -0.6,   -0.3,    0.8,    1.2,    1.8
2012/12/06 11:45,    0.1,    0.1,   -0.1,   -0.1,   -0.0,    0.1,    0.1,    0.1,    0.2,    0.1,    0.0,    0.0,    0.1,    0.0,    0.1,   -0.1,   -0.2,   -0.1,    0.0,   -0.0,   -0.1,   -0.0,    0.1,   -0.0,    0.1,    0.2,    0.1,    0.2,    0.4,    0.2,    0.2,    0.1,    0.1,    0.1,    0.3,    0.1,    0.2,    0.1,    0.1,    0.1,    0.1,    0.2,   -0.1,   -0.1,    0.2,    0.0,   -0.2,   -0.2,   -0.1,   -0.1,   -0.3,   -0.2,   -0.3,   -0.0,   -0.4,   -0.3,   -0.3,   -0.3,    0.0,    0.1,   -0.1,   -0.2,   -0.2,    0.1,   -0.1,    0.0,   -0.1,    0.4,    0.2,    0.1,    0.4,    0.3,    0.3,    0.2,   -0.1,   -0.1,    0.0,    0.0,   -0.2,    0.0,    0.1,    0.1,   -0.1,   -0.1,    0.3,    0.1,    0.1,    0.2,    0.0,    0.1,    0.2,   -0.0,   -0.0,  999.0,  999.0,    0.1,    0.1,    0.1,    0.1,   -0.3,   -0.2,   -0.1,    0.0,    0.1,  999.0,    0.1,    0.2,    0.1,    0.1,    0.4,    0.2,    0.3,    0.3,    0.4,    0.2,    0.5,    0.7,    0.5,    1.0,    0.8
2012/12/06 11:55,   -0.1,   -0.0,    0.2,    0.0,   -0.0,    0.1,    0.1,    0.1,    0.4,    0.2,    0.0,    0.2,    0.2,    0.2,    0.1,   -0.1,   -0.3,   -0.0,    0.1,   -0.0,   -0.1,   -0.0,    0.2,    0.0,    0.2,    0.1,    0.3,    0.3,    0.7,    0.5,    0.0,    0.6,    0.7,    0.8,    0.8,    0.6,    0.4,    0.5,    0.5,    0.4,    0.2,    0.3,    0.3,    0.2,    0.3,    0.4,    0.1,   -0.1,    0.0,    0.2,    0.2,    0.4,   -0.1,    0.1,   -0.2,    0.2,   -0.0,    0.1,    0.1,    0.2,    0.3,    0.1,    0.1,    0.2,   -0.2,   -0.1,    0.0,    0.5,    0.4,    0.3,    0.6,    0.6,    0.6,    0.4,    0.3,    0.4,    0.3,    0.2,   -0.1,   -0.1,   -0.0,   -0.0,  999.0,    0.0,    0.2,    0.2,   -0.1,   -0.1,    0.1,  999.0,    0.1,  999.0,    0.0,   -0.1,   -0.0,   -0.0,   -0.1,   -0.1,   -0.0,   -0.3,   -0.4,   -0.4,   -0.2,   -0.2,   -0.2,  999.0,  999.0,   -0.1,   -0.2,   -0.3,   -0.3,   -0.2,   -0.0,   -0.2,    0.4,    0.4,    0.3,    0.4,   -0.3,    0.2
2012/12/06 12:05,    0.3,    0.3,    0.3,    0.3,    0.4,    0.4,    0.2,    0.4,    0.5,    0.6,    0.2,    0.2,    0.2,    0.2,    0.4,    0.2,    0.2,    0.5,    0.2,    0.1,   -0.0,   -0.1,    0.0,    0.3,    0.2,    0.2,    0.1,    0.2,    0.4,    0.5,    0.3,    0.2,    0.3,    0.3,    0.4,    0.4,    0.3,    0.2,    0.1,   -0.1,    0.2,    0.1,   -0.1,    0.1,    0.0,    0.0,   -0.0,   -0.1,   -0.2,   -0.1,   -0.2,   -0.1,   -0.1,    0.1,    0.1,    0.0,   -0.1,   -0.0,    0.2,    0.1,    0.1,   -0.4,    0.1,    0.3,    0.2,    0.3,   -0.0,    0.0,    0.0,    0.1,    0.6,    0.1,    0.4,    0.1,    0.2,   -0.4,   -0.1,    0.2,   -0.1,   -0.5,   -0.5,    0.3,    0.1,   -0.0,    0.1,  999.0,   -1.4,   -0.6,    0.4,   -0.2,   -0.0,   -0.4,   -0.4,   -0.1,   -0.1,   -0.1,   -0.2,   -0.6,   -0.5,   -0.6,   -0.5,   -0.4,   -0.6,   -0.1,   -0.2,   -0.3,  999.0,   -0.3,   -0.4,   -0.2,   -0.3,   -0.4,   -0.1,    0.3,    0.3,    0.3,    0.7,    0.9,    0.5,  999.0
2012/12/06 12:15,    0.9,    1.0,    1.2,    1.4,    1.3,    1.0,    0.3,    0.3,    0.8,    0.9,    0.3,    0.1,    0.4,    0.3,    0.2,    0.2,   -0.1,    0.1,    0.3,    0.1,   -0.1,   -0.1,    0.2,    0.2,    0.0,    0.3,    0.1,    0.2,    0.1,    0.2,    0.2,    0.2,    0.2,    0.1,    0.0,   -0.1,   -0.1,    0.0,   -0.2,   -0.3,   -0.2,   -0.3,   -0.4,   -0.5,   -0.2,   -0.3,   -0.3,   -0.7,   -0.7,   -0.5,   -0.6,   -0.3,   -0.1,   -0.2,   -0.3,   -0.2,   -0.3,   -0.2,   -0.2,   -0.2,   -0.0,   -0.4,    0.0,   -0.0,    0.0,    0.0,   -0.1,    0.2,    0.3,   -0.1,   -0.6,   -0.1,   -0.2,   -0.1,    0.0,   -0.3,   -0.1,   -0.3,    0.0,   -0.5,   -0.3,   -0.1,   -0.4,    0.1,  999.0,   -0.0,   -0.1,   -0.0,   -0.1,   -0.4,   -0.1,  999.0,   -0.5,  999.0,   -0.5,  999.0,   -0.2,   -0.0,   -0.2,   -0.1,    0.1,    0.1,    0.1,    0.0,   -0.1,    0.1,    0.1,    0.2,    0.2,    0.2,    0.2,    0.4,    0.4,    0.7,    1.1,    0.5,    1.0,    1.0,    0.8,  999.0
2012/12/06 12:25,    0.4,    0.8,    0.9,    1.0,    1.0,    0.7,    0.4,    0.4,    0.5,    0.5,    0.1,    0.2,    0.2,    0.3,    0.0,    0.0,   -0.1,   -0.1,   -0.1,   -0.2,   -0.3,   -0.3,   -0.1,   -0.1,   -0.2,   -0.1,    0.0,    0.1,   -0.1,   -0.1,    0.0,    0.1,   -0.0,   -0.2,   -0.2,   -0.2,   -0.4,   -0.3,   -0.4,   -0.3,   -0.3,   -0.3,   -0.7,   -0.4,   -0.1,   -0.2,   -0.5,   -0.8,   -0.6,   -0.6,   -0.7,   -0.7,   -0.3,   -0.2,   -0.6,   -0.3,   -0.3,   -0.3,   -0.1,    0.2,   -0.3,   -0.5,   -0.1,   -0.3,   -0.2,    0.2,   -0.0,    0.0,    0.2,    0.2,    0.4,    0.1,    0.6,   -0.0,    0.0,    0.1,   -0.5,   -0.3,   -1.3,   -0.5,   -0.9,   -0.3,   -0.0,    0.1,    0.0,   -0.2,   -0.4,   -0.4,   -0.2,   -0.0,   -0.3,   -0.3,   -0.1,    0.0,   -0.2,    0.1,    0.1,    0.0,  999.0,   -0.0,    0.1,    0.3,   -0.0,    0.1,    0.1,   -0.1,    0.2,   -0.0,    0.1,   -0.2,    0.1,    0.2,   -0.0,    0.4,    0.3,    0.1,  999.0,    0.7,    0.5,  999.0
2012/12/06 12:35,   -0.8,   -0.6,   -0.4,   -0.3,   -0.1,   -0.1,   -0.0,    0.1,    0.1,    0.2,   -0.0,   -0.0,    0.0,   -0.1,    0.2,    0.2,    0.0,   -0.0,   -0.0,   -0.2,   -0.3,   -0.3,   -0.1,   -0.0,   -0.1,   -0.2,   -0.2,   -0.1,   -0.1,   -0.1,   -0.0,   -0.1,   -0.1,   -0.3,   -0.3,   -0.4,   -0.6,   -0.5,   -0.6,   -0.8,   -0.6,   -0.6,   -0.6,   -0.4,   -0.5,   -0.4,   -0.8,   -1.1,   -1.0,   -0.8,   -0.9,   -1.0,   -0.8,   -0.5,   -0.9,   -1.1,   -0.6,   -0.8,   -0.9,   -0.4,   -0.5,   -0.5,   -0.2,   -1.0,   -0.6,   -0.3,   -0.5,   -0.1,    0.1,    0.1,    0.1,    0.0,   -0.2,   -0.2,   -0.5,   -0.3,   -0.5,   -0.7,   -0.6,   -0.8,  999.0,    0.0,   -0.1,    0.0,   -0.0,   -0.7,   -1.1,   -0.2,   -0.3,   -0.4,   -0.2,   -0.4,   -0.2,    0.1,    0.1,    0.0,   -0.0,   -0.2,   -0.0,    0.0,   -0.2,   -0.4,   -0.4,    0.5,   -0.2,   -0.3,   -0.3,   -0.2,   -0.2,   -0.3,   -0.5,   -0.3,   -0.5,   -0.2,   -0.6,    0.1,   -0.2,   -0.4,   -0.8,  999.0
2012/12/06 12:45,    0.3,    0.6,    0.8,    1.0,    1.0,    0.7,    0.4,    0.5,    0.5,    0.3,    0.1,   -0.0,    0.1,   -0.0,   -0.1,   -0.1,   -0.2,   -0.2,   -0.2,   -0.3,   -0.3,   -0.4,   -0.3,   -0.2,   -0.3,   -0.3,   -0.3,   -0.3,   -0.4,   -0.1,    0.0,    0.1,    0.1,   -0.4,   -0.2,   -0.2,   -0.4,   -0.5,   -0.4,   -0.6,   -0.7,   -0.6,   -0.5,   -0.4,   -0.5,   -0.5,   -0.8,   -0.7,   -0.8,   -0.7,   -0.7,   -1.1,   -1.0,   -0.6,   -0.8,   -0.8,   -0.3,   -0.7,   -0.6,   -0.4,   -0.6,   -0.7,   -0.2,   -0.5,   -0.2,   -0.3,   -0.6,    0.2,    0.2,    0.3,    0.2,    0.1,   -0.1,    0.0,   -0.4,   -0.4,   -0.4,   -0.7,    0.2,   -2.7,    0.6,  999.0,   -0.2,   -0.1,  999.0,   -0.4,   -0.3,   -0.3,   -0.7,  999.0,   -0.0,   -0.1,   -0.5,   -0.1,   -0.1,    0.0,   -0.1,   -0.2,   -0.5,   -0.4,   -0.6,   -0.4,   -0.2,  999.0,    0.0,   -0.1,   -0.5,   -0.5,   -0.4,   -1.1,   -1.0,   -1.3,   -1.0,   -1.0,   -1.2,   -1.6,   -2.1,   -2.1,   -2.0,   -2.2
2012/12/06 12:55,    0.2,    0.5,    0.7,    0.9,    0.9,    0.6,    0.6,    0.6,    0.6,    0.5,    0.3,    0.4,    0.4,    0.5,    0.3,    0.2,    0.3,    0.2,    0.1,    0.3,    0.2,    0.2,    0.3,    0.2,    0.2,    0.2,    0.2,    0.1,    0.1,    0.1,    0.0,    0.2,    0.1,    0.2,    0.0,   -0.3,   -0.5,   -0.5,   -0.5,   -0.6,   -0.7,   -0.5,   -0.7,   -0.5,   -0.7,   -0.4,   -0.9,   -1.2,   -1.1,   -1.2,   -0.9,   -0.8,   -0.5,   -0.6,   -0.9,   -0.2,   -0.5,   -0.8,   -0.5,   -0.2,   -0.3,   -0.4,   -0.5,   -0.6,   -0.5,   -0.4,   -0.5,   -0.2,   -0.2,   -0.3,    0.1,   -0.0,   -0.1,   -0.1,   -0.8,   -0.7,   -0.8,   -0.9,   -0.7,   -0.7,   -0.5,   -0.2,   -0.1,    0.1,    0.1,   -0.1,   -0.5,   -0.0,  999.0,  999.0,   -0.3,    0.0,   -0.2,   -0.0,    0.2,    0.2,    0.1,   -0.0,   -0.1,   -0.1,   -0.3,   -0.5,   -0.2,   -0.2,  999.0,   -0.1,   -0.3,   -0.3,   -0.5,   -0.5,   -0.6,   -0.5,   -0.6,   -0.4,   -0.5,   -0.9,  999.0,   -0.9,  999.0,  999.0
2012/12/06 13:05,    0.0,    0.1,    0.2,    0.3,    0.4,    0.6,    0.4,    0.5,    0.6,    0.5,    0.4,    0.3,    0.6,    0.4,    0.4,    0.5,    0.5,    0.3,    0.3,    0.7,    0.5,    0.4,    0.4,    0.2,    0.4,    0.4,    0.4,    0.3,    0.4,    0.1,    0.2,    0.1,    0.1,    0.2,   -0.0,   -0.3,   -0.4,   -0.5,   -0.4,   -0.6,   -0.5,   -0.5,   -0.8,   -0.6,   -1.1,   -0.9,   -0.9,   -1.0,   -0.8,   -0.6,   -0.8,   -0.9,   -0.3,   -0.3,   -0.4,   -0.3,   -0.6,   -0.7,   -0.3,    0.1,   -0.5,   -0.5,   -0.4,   -0.5,   -0.2,   -0.4,   -0.4,    0.0,    0.2,   -0.1,    0.1,    0.1,   -0.0,    0.0,   -0.0,   -0.2,   -0.9,   -0.8,  999.0,   -0.7,  999.0,  999.0,    0.3,   -0.1,   -0.1,  999.0,   -0.1,  999.0,    0.0,  999.0,   -0.3,    0.2,   -0.3,    0.0,    0.2,   -0.0,    0.0,   -0.0,    0.3,    0.1,    0.1,   -0.2,   -0.1,    0.4,  999.0,   -0.0,    0.3,    0.5,    0.2,    0.4,   -0.1,    0.1,    0.4,    0.5,    0.4,   -1.0,   -1.3,  999.0,   -2.5,  999.0
2012/12/06 13:15,   -0.2,   -0.5,   -0.2,    0.1,    0.3,    0.4,    0.3,    0.4,    0.3,    0.4,    0.2,    0.1,    0.1,    0.1,    0.1,    0.2,   -0.0,   -0.0,   -0.2,    0.1,    0.1,   -0.1,   -0.2,    0.0,   -0.0,   -0.1,   -0.0,   -0.0,    0.0,   -0.0,   -0.0,    0.4,    0.1,   -0.2,   -0.1,   -0.2,   -0.4,   -0.5,   -0.6,   -0.5,   -0.5,   -0.5,   -0.5,   -0.5,   -0.6,   -0.5,   -0.6,   -1.1,   -0.9,   -1.1,   -0.9,   -0.5,   -0.6,   -0.8,   -0.9,   -0.5,   -0.6,   -0.8,   -0.7,   -0.5,   -0.7,   -0.5,   -0.5,   -0.5,   -0.2,   -0.4,   -0.2,   -0.2,   -0.3,   -0.4,   -0.2,    0.2,    0.0,    0.0,   -0.4,   -0.8,   -0.7,   -0.3,   -0.6,   -0.5,  999.0,   -0.3,   -0.3,    0.1,    0.0,   -0.0,  999.0,    0.0,   -0.0,   -0.3,   -0.1,   -0.2,    0.0,   -0.1,    0.2,    0.0,    0.1,   -0.1,    0.2,    0.1,    0.5,    0.1,    0.6,  999.0,  999.0,    0.2,    0.5,  999.0,    0.6,    1.4,    1.6,    1.6,    1.4,    1.9,    1.8,    1.0,    1.2,  999.0,  999.0,  999.0
2012/12/06 13:25,   -0.4,   -0.2,   -0.1,    0.4,    0.4,    0.4,    0.2,    0.2,    0.2,    0.1,    0.1,   -0.0,    0.1,    0.1,   -0.1,    0.0,    0.0,   -0.1,   -0.2,   -0.2,   -0.0,   -0.1,   -0.2,   -0.1,   -0.1,   -0.1,   -0.1,   -0.1,   -0.2,   -0.0,   -0.1,   -0.0,   -0.1,    0.0,    0.1,    0.1,   -0.3,   -0.3,   -0.6,   -0.6,   -0.4,   -0.4,   -0.4,   -0.2,   -0.6,   -0.4,   -0.6,   -0.9,   -0.5,   -0.5,   -1.0,   -0.8,   -0.9,   -0.7,   -0.6,   -0.3,   -0.6,   -0.7,   -0.3,   -0.9,   -0.7,   -0.4,   -0.4,   -0.0,   -0.1,   -0.3,   -0.4,   -0.0,   -0.3,   -0.1,   -0.1,   -0.0,   -0.0,  999.0,    0.0,   -0.6,   -0.6,   -0.5,   -0.3,   -0.3,   -0.5,   -0.4,   -0.0,    0.0,    0.0,  999.0,   -0.1,   -0.3,   -0.1,   -0.4,    0.1,    0.2,    0.1,    0.1,    0.1,    0.2,    0.1,    0.1,   -0.0,    0.3,   -0.0,   -0.2,   -0.0,    0.0,   -0.0,    0.0,   -0.1,    0.0,   -0.0,    0.0,    0.5,    0.3,    0.2,    0.9,    1.0,    0.7,    0.6,  999.0,   -0.7,  999.0
2012/12/06 13:35,   -0.6,   -0.8,   -1.1,   -0.3,   -0.5,   -0.6,   -0.5,   -0.7,   -0.6,   -0.6,   -0.7,   -0.4,   -0.4,   -0.5,   -0.6,   -0.7,   -1.0,   -1.0,   -1.2,   -0.9,   -1.1,   -1.0,   -0.8,   -0.7,   -0.8,   -0.8,   -0.7,   -0.8,   -0.7,   -0.7,   -0.2,   -0.5,   -0.4,   -0.6,   -0.6,   -0.1,   -0.8,   -1.0,   -0.8,   -1.1,   -0.9,   -0.9,   -0.8,   -0.7,   -0.7,   -0.6,   -0.6,   -1.0,   -0.9,   -0.8,   -1.1,   -0.7,   -1.0,   -0.8,   -0.8,   -0.8,   -0.6,   -0.6,   -0.5,   -0.8,   -0.8,   -0.2,   -0.2,   -0.4,   -0.4,   -0.8,   -0.8,   -0.5,   -0.2,   -0.4,   -0.4,   -0.3,   -0.4,   -0.3,   -0.2,   -0.8,   -0.7,   -0.3,   -0.3,   -0.6,   -0.3,   -0.4,   -0.2,  999.0,    0.0,    0.1,   -0.1,    0.1,   -0.0,   -0.2,    0.0,    0.0,   -0.1,   -0.1,    0.1,    0.2,    0.0,   -0.0,   -0.1,    0.0,   -0.1,   -0.1,    0.1,   -0.2,   -0.1,   -0.6,    0.1,   -0.1,   -0.1,    0.0,    0.7,    0.3,    0.3,    0.3,    0.3,    0.3,   -0.5,  999.0,  999.0,  999.0
2012/12/06 13:45,   -0.3,   -0.7,   -0.8,   -1.0,   -1.5,   -1.3,   -0.8,   -1.3,   -1.4,   -1.0,   -0.8,   -0.8,   -1.0,   -0.7,   -0.9,   -1.1,   -1.1,   -1.2,   -1.2,   -1.2,   -1.3,   -1.4,   -0.9,   -1.0,   -0.8,   -0.9,   -0.9,   -1.0,   -1.1,   -0.9,   -0.4,   -0.7,   -0.7,   -0.7,   -0.2,    0.0,   -0.8,   -0.8,   -0.9,   -1.0,   -1.0,   -1.0,   -0.7,   -0.9,   -0.9,   -0.9,   -0.9,   -1.3,   -1.4,   -1.3,   -1.2,   -1.3,   -1.2,   -1.1,   -0.9,   -0.3,   -0.7,   -0.4,   -0.6,   -0.8,   -0.4,   -0.3,   -0.4,   -0.9,   -0.7,   -0.6,   -0.6,   -0.6,   -0.3,   -0.1,   -0.1,   -0.1,    0.1,    0.2,   -0.2,   -0.4,   -1.1,   -1.0,   -0.7,   -0.6,   -0.6,    0.0,   -0.1,   -0.0,    0.2,    0.1,   -0.3,   -0.1,    0.0,    0.4,   -0.0,    0.2,    0.4,    0.5,    0.2,    0.4,    0.6,    0.6,    0.3,    0.5,    0.7,    0.6,    0.7,   -0.2,  999.0,    0.6,    0.1,    0.9,    0.7,    1.1,    0.6,    0.8,    0.8,    0.8,    0.9,    0.4,    0.7,  999.0,  999.0,    3.4
2012/12/06 13:55,   -0.8,   -1.1,   -1.1,   -1.4,   -1.8,   -1.9,   -1.6,   -1.7,   -1.2,   -1.4,   -0.8,   -0.9,   -0.7,   -0.9,   -1.3,   -1.5,   -1.1,   -1.4,   -1.5,   -1.6,   -1.4,   -1.4,   -1.2,   -1.3,   -1.1,   -1.2,   -0.9,   -1.1,   -1.2,   -0.9,   -0.8,   -0.8,   -0.9,   -0.5,   -0.3,   -0.1,   -0.6,   -0.6,   -0.7,   -0.9,   -0.9,   -1.0,   -0.9,   -0.7,   -0.6,   -0.7,   -1.1,   -1.4,   -1.7,   -1.3,   -1.3,   -1.2,   -1.2,   -1.1,   -0.8,   -0.3,   -0.5,   -0.4,   -0.6,   -0.6,   -0.6,   -0.4,   -0.6,   -0.5,   -0.5,   -0.9,   -1.1,   -1.2,   -0.9,   -1.1,   -0.8,   -0.7,   -0.9,   -0.6,   -1.2,   -1.2,   -1.5,   -1.3,   -0.5,   -0.7,   -0.9,   -1.2,   -0.1,   -0.2,    0.1,   -0.2,   -0.1,   -0.2,    0.0,    0.2,    0.3,    0.2,    0.4,    0.1,    0.3,    0.3,    0.4,    0.6,    0.8,    0.7,    0.8,    0.9,    0.8,    0.8,    0.7,    1.0,    0.6,    1.1,    1.0,    1.3,    1.2,    0.9,    0.9,    0.9,    1.1,    1.0,    0.7,    0.7,  999.0,  999.0
2012/12/06 14:05,   -0.7,   -1.2,   -1.3,   -1.7,   -1.9,   -1.5,   -1.1,   -1.5,   -1.3,   -0.8,   -0.8,   -0.8,   -0.6,   -0.7,   -1.0,   -1.0,   -0.8,   -1.0,   -1.2,   -1.3,   -1.2,   -1.1,   -1.3,   -1.2,   -1.0,   -1.0,   -0.8,   -1.0,   -1.1,   -0.9,   -1.0,   -0.7,   -0.9,   -0.4,    0.1,    0.0,   -0.6,   -0.4,   -0.8,   -0.6,   -0.8,   -0.7,   -0.8,   -0.8,   -0.6,   -0.5,   -0.6,   -1.1,   -1.3,   -0.8,   -0.7,   -1.0,   -1.0,   -1.0,   -0.5,   -0.6,   -0.6,   -0.7,   -0.3,   -0.3,   -0.5,   -0.5,   -0.5,   -0.6,   -0.5,   -0.8,   -0.8,   -1.2,   -0.9,   -1.0,   -0.7,   -1.1,   -0.8,   -0.6,   -1.3,   -1.6,   -1.4,   -1.2,   -0.7,   -0.7,   -1.1,   -1.1,   -0.3,   -0.1,  999.0,   -0.2,    0.0,   -0.0,   -0.1,    0.0,   -0.0,    0.1,   -0.1,    0.0,    0.1,   -0.0,    0.1,    0.5,    0.7,    0.6,    0.5,    0.4,    0.4,    0.6,    0.4,  999.0,    0.7,    0.8,    0.7,    0.6,    0.9,    0.6,    0.5,  999.0,    0.5,    0.3,    0.6,   -4.4,  999.0,  999.0
2012/12/06 14:15,   -0.7,   -1.0,   -1.2,   -1.2,   -1.4,   -1.2,   -0.9,   -0.7,   -0.9,   -0.7,   -0.5,   -0.3,   -0.3,   -0.2,   -0.3,   -0.5,   -0.4,   -0.4,   -0.2,   -0.3,   -0.5,   -0.2,   -0.3,   -0.4,   -0.3,   -0.1,   -0.1,   -0.3,   -0.3,   -0.3,   -0.2,   -0.3,   -0.4,   -0.4,   -0.2,   -0.2,   -0.3,   -0.5,   -0.4,   -0.5,   -0.9,   -0.5,   -0.7,   -0.3,   -0.4,   -0.6,   -0.4,   -0.8,   -0.6,   -0.6,   -0.8,   -0.8,   -0.9,   -1.0,   -0.6,   -0.4,   -0.4,   -0.4,   -0.1,   -0.2,   -0.4,   -0.5,   -0.5,   -0.6,   -0.4,   -0.6,   -1.3,   -1.2,   -1.3,   -0.6,   -0.3,   -0.4,   -0.1,   -0.3,   -0.3,   -0.8,   -1.1,   -0.8,   -0.5,   -0.4,   -0.9,   -0.7,   -0.6,   -0.1,   -0.1,   -0.2,  999.0,   -0.3,   -0.4,   -0.2,   -0.0,   -0.1,   -0.4,   -0.1,   -0.1,   -0.0,   -0.1,   -0.0,    0.0,   -0.1,    0.2,    0.3,    0.3,    0.2,  999.0,  999.0,    0.4,    0.3,    0.4,    0.3,    0.3,    0.4,    0.4,    0.2,   -0.0,    0.2,    0.2,    0.1,  999.0,    1.4
2012/12/06 14:25,   -0.4,   -0.1,   -0.1,   -0.3,   -0.2,   -0.0,    0.0,    0.0,    0.0,    0.1,    0.0,   -0.0,   -0.1,   -0.1,    0.0,    0.2,    0.3,    0.3,    0.4,    0.3,    0.2,    0.3,    0.3,    0.3,    0.3,    0.3,    0.4,    0.4,    0.1,    0.3,    0.2,    0.1,   -0.1,    0.0,   -0.0,   -0.1,   -0.1,   -0.1,   -0.2,   -0.3,   -0.2,   -0.3,   -0.3,   -0.3,   -0.3,   -0.3,   -0.3,   -0.3,   -0.3,   -0.4,   -0.4,   -0.5,   -0.8,   -1.2,   -0.3,   -0.1,   -0.5,   -0.4,    0.1,    0.0,   -0.4,   -0.4,   -0.4,   -0.2,   -0.1,   -0.4,   -1.0,   -1.1,   -0.8,   -0.2,   -0.4,   -0.2,   -0.1,   -0.4,   -0.2,   -0.8,   -0.5,   -0.5,   -0.3,   -0.4,   -0.6,   -0.7,   -0.2,  999.0,   -0.1,   -0.3,   -0.0,   -0.1,    0.0,    0.2,    0.5,    0.4,    0.8,    0.1,    0.2,    0.2,    0.3,    0.2,    0.4,    0.1,   -0.0,    0.3,  999.0,    0.1,  999.0,    0.4,    0.3,    0.2,    0.1,    0.3,    0.2,  999.0,    0.1,    0.0,   -0.1,   -0.0,    0.3,    0.1,  999.0,  999.0
2012/12/06 14:35,   -0.4,   -0.3,   -0.5,   -0.7,   -0.9,   -0.7,   -0.6,   -0.4,   -0.3,   -0.1,    0.0,    0.1,    0.1,   -0.1,    0.1,    0.1,    0.1,    0.2,    0.2,    0.1,    0.0,    0.2,    0.3,    0.3,    0.2,    0.3,    0.3,    0.4,    0.3,    0.2,    0.2,    0.1,    0.1,   -0.0,   -0.1,   -0.1,   -0.1,   -0.1,   -0.3,   -0.4,   -0.5,   -0.5,   -0.4,   -0.3,   -0.4,   -0.4,   -0.5,   -0.5,   -0.5,   -0.4,   -0.3,   -0.7,   -0.7,   -0.8,   -0.2,   -0.0,   -0.2,   -0.1,   -0.0,   -0.3,   -0.2,   -0.3,   -0.3,   -0.4,   -0.0,   -0.2,   -1.0,   -0.9,   -0.4,   -0.1,   -0.2,   -0.0,   -0.3,   -0.6,   -0.4,   -1.0,   -0.4,   -0.7,   -0.3,   -0.4,   -0.2,   -0.3,   -0.2,   -0.2,   -0.1,   -0.1,    0.1,   -0.2,   -0.1,    0.4,    0.4,    0.5,    0.4,    0.2,    0.3,    0.3,    0.6,    0.1,    0.1,   -0.1,   -0.1,    0.0,    0.1,   -0.2,  999.0,  999.0,   -0.1,   -0.0,    0.0,   -0.1,   -0.3,  999.0,   -0.0,   -0.4,   -0.0,   -0.0,    0.1,    0.3,  999.0,  999.0
2012/12/06 14:45,   -0.2,   -0.1,   -0.2,   -0.4,   -0.6,   -0.5,   -0.5,   -0.4,   -0.2,   -0.2,   -0.0,   -0.1,   -0.1,   -0.2,   -0.1,   -0.1,   -0.1,   -0.2,    0.2,    0.0,   -0.1,   -0.2,   -0.1,    0.1,   -0.0,    0.0,    0.3,    0.1,   -0.1,   -0.3,   -0.2,   -0.2,   -0.4,   -0.2,   -0.4,   -0.4,   -0.4,   -0.3,   -0.4,   -0.5,   -0.4,   -0.8,   -0.5,   -0.5,   -0.5,   -0.3,   -0.8,   -0.6,   -0.4,   -0.8,   -0.6,   -0.3,   -0.6,   -0.6,   -0.4,   -0.2,   -0.3,   -0.4,   -0.3,   -0.6,   -0.1,   -0.3,   -0.3,   -0.3,   -0.6,   -0.8,   -1.0,   -0.9,   -0.4,   -0.0,    0.2,   -0.0,   -0.1,   -0.3,  999.0,  999.0,  999.0,  999.0,   -0.8,   -0.3,   -0.5,   -0.5,   -0.4,  999.0,  999.0,   -0.2,   -0.2,   -0.3,   -0.3,   -0.4,   -0.2,    0.1,   -0.3,   -0.1,   -0.1,    0.2,   -0.2,   -0.5,  999.0,   -0.4,   -0.3,   -0.3,  999.0,   -0.2,   -0.5,   -0.3,   -0.5,   -0.7,   -0.4,   -0.5,   -0.3,  999.0,  999.0,   -0.1,   -0.7,   -0.3,   -0.3,  999.0,  999.0,   -2.4
2012/12/06 14:55,   -0.6,   -0.5,   -0.9,   -1.4,   -1.8,   -1.9,   -1.7,   -1.5,   -1.2,   -1.1,   -0.8,   -0.6,   -0.5,   -0.8,   -0.7,   -0.8,   -0.7,   -1.0,   -0.7,   -0.9,   -0.9,   -0.6,   -0.5,   -0.4,   -0.7,   -0.7,   -0.6,   -0.7,   -0.5,   -0.7,   -0.8,   -0.8,   -0.4,   -0.5,   -0.5,   -0.6,   -0.7,   -0.6,   -0.7,   -0.6,   -0.8,   -0.7,   -0.8,   -0.7,   -0.3,   -0.3,   -0.7,   -0.8,   -0.7,   -0.9,   -0.5,   -0.8,   -0.5,   -0.6,   -0.5,   -0.5,   -0.3,   -0.3,   -0.1,   -0.3,   -0.1,   -0.2,   -0.5,   -0.6,   -0.7,   -0.3,   -1.1,   -0.9,   -0.4,   -0.0,   -0.2,   -0.4,   -0.2,   -0.4,   -0.7,   -0.6,   -0.9,   -0.8,   -0.8,   -0.8,   -0.7,   -0.6,   -0.4,    0.0,   -0.1,   -0.2,   -0.4,   -0.5,   -0.6,   -0.6,   -0.3,   -0.5,   -0.4,   -0.2,   -0.3,   -0.1,   -0.2,   -0.2,   -0.6,   -0.5,   -0.3,   -0.1,   -0.0,   -0.1,   -0.2,    0.0,   -0.2,   -0.1,   -0.1,   -0.0,    0.4,    0.3,  999.0,  999.0,  999.0,    0.3,    0.2,    0.1,  999.0,  999.0
2012/12/06 15:05,   -0.9,   -0.9,   -1.0,   -1.2,   -1.3,   -1.3,   -1.3,   -1.0,   -1.2,   -0.8,   -0.7,   -0.6,   -0.8,   -0.8,   -1.1,   -1.0,   -0.9,   -1.0,   -0.8,   -0.9,   -0.8,   -0.6,   -0.6,   -0.7,   -0.8,   -0.7,   -0.6,   -0.6,   -0.8,   -0.8,   -0.7,   -0.7,   -0.4,   -0.5,   -0.5,   -0.5,   -0.6,   -0.7,   -0.8,   -0.8,   -0.9,   -0.9,   -0.6,   -0.5,   -0.3,   -0.8,   -0.8,   -0.6,   -0.6,   -0.8,   -0.3,   -0.6,   -0.6,   -0.5,   -0.6,   -0.4,   -0.2,   -0.3,   -0.2,   -0.4,    0.1,   -0.3,   -0.2,   -0.3,   -0.8,   -1.0,   -0.8,   -0.5,   -0.3,   -0.3,   -0.4,   -0.5,    0.0,   -0.1,   -0.2,   -0.0,   -0.6,   -0.7,   -0.8,   -0.7,   -0.8,   -0.9,    0.2,    0.0,    0.1,   -0.4,   -0.2,   -0.4,  999.0,   -0.4,   -0.3,   -0.5,    0.0,    0.1,   -0.2,   -0.0,   -0.2,   -0.2,    0.0,   -0.1,    0.1,   -0.1,   -0.4,   -0.0,   -0.2,   -0.5,   -0.5,   -0.2,   -0.2,   -0.1,    0.1,  999.0,  999.0,    0.1,  999.0,    0.1,  999.0,   -0.1,  999.0,  999.0
2012/12/06 15:15,   -0.5,   -1.0,   -1.0,   -1.1,   -1.0,   -1.1,   -0.9,   -0.8,   -0.8,   -0.5,   -0.7,   -0.6,   -0.7,   -0.3,   -0.3,   -0.5,   -0.7,   -0.6,   -0.6,   -0.7,   -0.7,   -0.5,   -0.2,   -0.3,   -0.7,   -0.7,   -0.6,   -0.7,   -0.7,   -0.6,   -0.6,   -0.5,   -0.6,   -0.6,   -0.6,   -0.7,   -0.6,   -0.7,   -0.6,   -0.5,   -0.5,   -0.5,   -0.3,   -0.3,   -0.1,   -0.6,   -0.5,   -0.4,   -0.6,   -0.6,   -0.5,   -0.6,   -0.6,   -0.4,   -0.3,   -0.4,   -0.2,   -0.1,   -0.2,   -0.5,    0.0,   -0.2,    0.1,   -0.1,   -0.1,   -0.2,   -0.2,   -0.1,   -0.1,   -0.5,  999.0,   -0.5,   -0.2,   -0.4,   -0.2,   -0.2,   -0.4,   -0.5,   -0.6,   -0.7,   -0.6,   -0.7,    0.0,    0.2,   -0.3,   -0.5,   -0.4,   -0.5,   -0.4,   -0.3,    0.0,   -0.4,   -0.3,   -0.5,   -0.4,   -0.1,   -0.1,   -0.1,    0.2,   -0.0,    0.2,    0.2,    0.3,    0.3,   -0.1,    0.2,   -0.0,    0.4,    0.4,    0.9,  999.0,  999.0,  999.0,    0.3,    0.3,    0.7,    0.3,  999.0,  999.0,  999.0
2012/12/06 15:25,   -0.1,    0.1,    0.3,    0.2,    0.2,    0.2,    0.1,    0.1,    0.1,    0.1,   -0.2,   -0.1,   -0.1,    0.0,    0.1,    0.1,    0.2,    0.1,    0.0,    0.1,    0.1,    0.1,    0.2,    0.1,   -0.1,   -0.1,   -0.1,   -0.1,   -0.1,   -0.1,   -0.0,   -0.1,   -0.2,   -0.3,   -0.1,   -0.3,   -0.5,   -0.6,   -0.2,   -0.4,   -0.7,   -0.4,   -0.3,   -0.5,   -0.2,   -0.3,   -0.2,   -0.2,   -0.3,   -0.5,   -0.3,   -0.4,   -0.2,   -0.1,   -0.2,   -0.1,    0.0,    0.1,    0.1,    0.1,    0.2,   -0.2,    0.0,   -0.1,    0.1,    0.0,    0.0,    0.1,    0.1,   -0.1,  999.0,    0.1,    0.2,    0.0,   -0.3,    0.0,   -0.2,   -0.6,   -0.4,   -0.5,   -0.4,   -0.3,    0.1,    0.0,   -0.2,   -0.2,   -0.3,   -0.1,   -0.3,   -0.0,   -0.1,    0.1,   -0.1,   -0.1,   -0.0,   -0.1,    0.1,    0.2,    0.1,    0.5,    0.4,    0.6,    0.3,    0.6,    1.1,    0.9,    0.9,    0.8,    1.0,    1.5,    1.0,    0.6,  999.0,    0.8,    0.7,    0.9,    0.9,  999.0,  999.0,  999.0
2012/12/06 15:35,   -0.1,   -0.1,   -0.1,   -0.1,   -0.1,    0.1,    0.0,    0.2,   -0.1,    0.1,   -0.0,    0.0,    0.1,    0.0,   -0.1,   -0.0,   -0.1,   -0.1,    0.0,   -0.0,   -0.0,   -0.2,   -0.1,   -0.0,   -0.2,   -0.2,   -0.3,   -0.2,   -0.3,   -0.3,   -0.4,   -0.3,   -0.4,   -0.4,   -0.2,   -0.4,   -0.4,   -0.6,   -0.4,   -0.5,   -0.7,   -0.7,   -0.2,   -0.3,   -0.3,   -0.4,   -0.6,   -0.4,   -0.4,   -0.4,   -0.3,   -0.7,   -0.0,   -0.1,   -0.3,   -0.2,    0.1,    0.1,    0.0,   -0.1,    0.2,   -0.3,   -0.2,   -0.0,   -0.1,   -0.2,   -0.2,    0.0,    0.1,   -0.1,   -0.5,   -0.2,    0.1,    0.2,  999.0,   -0.6,   -0.4,   -0.6,   -0.6,   -0.6,   -0.4,   -0.3,   -0.1,   -0.1,    0.1,   -0.4,   -0.2,   -0.2,   -0.3,   -0.2,   -0.5,   -0.1,    0.0,   -0.3,   -0.1,    0.0,   -0.2,    0.0,    0.3,  999.0,    0.9,    0.5,    0.4,    0.5,    0.3,    0.3,    0.5,    0.1,    0.2,    0.1,   -0.0,    0.4,  999.0,    0.4,    0.4,    0.1,   -0.1,  999.0,  999.0,  999.0
2012/12/06 15:45,   -0.0,   -0.2,   -0.4,   -0.4,   -0.3,   -0.4,   -0.3,   -0.2,   -0.4,   -0.1,   -0.2,   -0.1,   -0.2,   -0.4,   -0.5,   -0.3,   -0.3,   -0.1,   -0.2,   -0.4,   -0.3,   -0.3,   -0.3,   -0.5,   -0.7,   -0.5,   -0.4,   -0.3,   -0.5,   -0.7,   -0.8,   -0.6,   -0.7,   -0.7,   -0.7,   -0.6,   -0.5,   -0.3,   -0.5,   -0.5,   -0.1,   -0.2,   -0.1,   -0.2,   -0.1,   -0.2,   -0.4,   -0.1,   -0.4,   -0.5,   -0.3,   -0.3,   -0.3,   -0.3,   -0.4,   -0.3,   -0.2,   -0.1,    0.0,   -0.4,   -0.2,   -0.2,   -0.2,   -0.0,   -0.2,   -0.1,    0.2,   -0.1,   -0.5,   -0.5,   -0.0,    0.3,   -0.3,   -0.3,   -0.7,   -0.2,   -0.5,   -0.7,   -1.7,   -0.5,   -0.4,   -0.4,   -0.2,    0.1,   -0.0,   -0.1,   -0.6,   -0.3,   -0.4,   -0.4,   -0.2,   -0.1,   -0.2,   -0.3,   -0.1,   -0.3,   -0.4,   -0.3,    0.0,    0.3,   -0.6,    0.2,    0.3,   -0.2,   -0.5,   -0.5,   -0.5,   -0.3,   -0.4,   -0.3,   -0.5,    0.2,   -0.6,   -0.3,   -0.5,   -0.2,    0.1,  999.0,  999.0,  999.0
2012/12/06 15:55,   -0.1,   -0.1,   -0.2,   -0.3,   -0.3,   -0.4,   -0.5,   -0.4,   -0.4,   -0.4,   -0.4,   -0.0,   -0.3,   -0.7,   -0.7,   -0.4,   -0.3,   -0.3,   -0.4,   -0.4,   -0.5,   -0.5,   -0.6,   -0.6,   -0.7,   -0.7,   -0.6,   -0.6,   -0.8,   -0.8,   -0.7,   -0.7,   -0.6,   -0.7,   -0.8,   -0.2,   -0.1,   -0.3,   -0.5,   -0.4,   -0.2,   -0.3,   -0.1,    0.1,    0.2,   -0.1,   -0.3,   -0.2,   -0.4,   -0.6,   -0.4,   -0.6,   -0.7,   -0.7,   -0.8,   -0.6,   -0.4,   -0.4,   -0.2,   -0.3,   -0.1,   -0.3,   -0.3,   -0.3,   -0.4,   -0.0,   -0.0,   -0.1,   -0.3,   -0.4,    0.0,    0.1,   -0.5,   -0.5,   -0.5,   -0.5,   -0.4,   -0.8,    0.6,  999.0,   -0.2,    0.2,    0.0,   -0.0,  999.0,   -0.1,   -0.1,   -0.1,   -0.0,    0.3,   -0.1,    0.1,    0.2,   -0.2,   -0.1,   -0.0,   -0.1,   -0.1,    0.3,   -0.1,   -0.1,    0.1,    0.4,    0.1,    0.1,   -0.2,   -0.0,    0.2,    0.2,    0.1,  999.0,   -0.1,    0.0,    0.1,    0.2,    0.3,    0.2,    0.3,   -0.0,    0.2
2012/12/06 16:05,    0.2,    0.1,   -0.0,   -0.3,   -0.3,   -0.3,   -0.3,   -0.4,   -0.4,   -0.2,   -0.2,   -0.2,   -0.1,   -0.3,   -0.5,   -0.4,   -0.2,   -0.2,   -0.2,   -0.1,   -0.4,   -0.3,   -0.2,   -0.0,   -0.3,   -0.1,   -0.2,   -0.5,   -0.2,   -0.4,   -0.3,   -0.4,   -0.4,   -0.4,   -0.4,    0.5,   -0.3,   -0.2,   -0.2,   -0.3,    0.0,    0.3,   -0.0,    0.1,   -0.1,    0.4,    0.2,   -0.2,   -0.1,   -0.0,   -0.2,   -0.1,   -0.4,   -0.6,   -0.4,   -0.5,   -0.1,   -0.2,   -0.2,   -0.2,   -0.3,   -0.3,   -0.3,   -0.0,   -0.0,    0.1,    0.0,    0.3,   -0.0,   -0.1,   -0.1,    0.0,    0.1,   -0.4,   -0.3,   -0.3,   -0.2,   -0.6,  999.0,   -0.5,   -0.2,    0.2,   -0.3,   -0.2,   -0.0,    0.1,   -0.0,   -0.1,    0.2,    0.3,    0.1,    0.4,   -0.0,    0.2,    0.1,    0.2,    0.1,   -0.1,   -0.1,   -0.2,    0.2,   -0.0,  999.0,   -0.2,   -0.6,   -0.2,   -0.2,   -0.0,   -0.0,   -0.1,   -0.5,  999.0,    0.3,  999.0,    0.2,    0.2,    0.3,    0.3,    0.2,   -0.1
2012/12/06 16:15,   -0.1,   -0.0,   -0.3,    0.0,   -0.0,   -0.0,   -0.1,   -0.1,   -0.1,   -0.0,    0.1,   -0.0,   -0.1,   -0.2,   -0.1,   -0.1,    0.0,   -0.1,   -0.0,   -0.2,   -0.2,   -0.2,   -0.1,   -0.1,   -0.2,   -0.2,   -0.0,    0.1,   -0.1,    0.0,   -0.2,   -0.1,   -0.0,   -0.1,   -0.0,    0.1,    0.1,   -0.1,   -0.2,   -0.2,    0.0,    0.1,   -0.1,    0.0,    0.1,    0.2,   -0.2,   -0.1,    0.1,   -0.0,   -0.3,   -0.2,    0.0,   -0.1,   -0.2,   -0.2,   -0.1,   -0.1,   -0.1,   -0.3,   -0.0,    0.2,   -0.1,   -0.2,    0.1,    0.4,   -0.1,    0.0,   -0.2,   -0.3,   -0.3,   -0.0,   -0.2,   -0.9,   -0.7,   -0.6,   -0.5,   -0.4,  999.0,  999.0,   -0.6,   -0.7,   -0.7,   -0.1,    0.0,    0.3,   -0.0,   -0.1,    0.2,    0.7,    0.2,    0.4,    0.5,    0.7,    0.4,    0.5,    0.5,    0.6,    0.4,    0.5,    0.7,    0.7,    0.5,    0.5,    0.2,    0.3,    0.1,    0.4,    0.5,    0.4,  999.0,  999.0,    1.4,  999.0,  999.0,    0.4,    0.2,    0.3,    0.4,    0.1
2012/12/06 16:25,   -0.1,   -0.3,   -0.8,   -0.5,   -0.6,   -0.6,   -0.4,   -0.4,   -0.3,   -0.4,   -0.3,   -0.3,   -0.4,   -0.2,   -0.2,   -0.2,   -0.0,   -0.1,   -0.1,   -0.2,   -0.2,    0.1,    0.2,   -0.0,   -0.0,    0.0,    0.3,    0.3,    0.3,    0.3,    0.3,    0.1,    0.4,    0.3,    0.3,    0.3,    0.1,   -0.0,   -0.0,    0.2,   -0.2,   -0.1,    0.2,   -0.2,   -0.3,   -0.1,   -0.3,   -0.2,    0.0,   -0.1,   -0.3,   -0.4,   -0.3,   -0.5,   -0.2,   -0.2,   -0.4,   -0.1,   -0.1,   -0.4,   -0.0,   -0.1,   -0.2,    0.1,   -0.0,   -0.1,   -0.6,   -0.5,   -0.6,   -0.4,   -1.0,   -0.9,   -1.1,   -1.1,   -0.6,   -0.3,   -0.9,   -0.8,  999.0,  999.0,   -0.7,   -0.8,  999.0,   -0.1,    0.2,  999.0,   -0.3,   -0.6,   -0.1,   -0.1,   -0.3,   -0.4,   -0.2,   -0.1,   -0.1,    0.2,    0.1,    0.1,    0.3,    0.4,    0.6,   -0.2,    0.3,    0.7,  999.0,    0.3,   -0.0,   -0.0,    0.6,    0.5,  999.0,    0.7,  999.0,    0.4,    0.6,    0.2,    0.3,    0.1,  999.0,  999.0
2012/12/06 16:35,   -0.2,   -0.3,   -0.3,   -0.4,   -0.5,   -0.4,   -0.5,   -0.6,   -0.5,   -0.7,   -0.5,   -0.2,   -0.3,   -0.2,   -0.3,   -0.1,   -0.2,    0.0,    0.0,    0.0,    0.0,    0.0,    0.1,    0.1,    0.2,    0.2,    0.2,    0.4,    0.4,    0.3,    0.3,    0.2,    0.4,    0.6,    0.3,    0.1,   -0.3,   -0.2,   -0.1,    0.0,   -0.2,   -0.3,   -0.3,   -0.3,   -0.1,   -0.2,   -0.5,   -0.3,   -0.5,   -0.6,   -0.6,   -0.5,   -0.6,   -0.7,   -0.2,   -0.3,   -0.3,   -0.2,   -0.6,   -0.7,   -0.6,   -0.2,   -0.3,   -0.2,   -0.2,   -0.5,   -0.5,   -0.4,   -0.7,   -1.0,   -0.6,   -1.6,   -1.2,   -0.1,   -1.4,   -0.8,   -0.6,   -1.0,  999.0,  999.0,   -0.6,   -0.8,   -0.9,  999.0,   -1.5,    0.5,   -0.2,   -0.6,   -0.5,   -0.5,   -0.3,    0.1,   -0.6,   -0.5,   -0.4,   -0.2,   -0.1,   -0.4,    0.1,   -0.1,   -0.2,  999.0,   -0.0,  999.0,    0.0,   -0.0,    0.1,   -0.0,    0.2,   -0.2,  999.0,   -0.1,  999.0,  999.0,  999.0,    0.2,    0.2,    0.0,    0.3,  999.0
2012/12/06 16:45,    0.1,    0.0,    0.9,    0.1,    0.1,    0.1,    0.1,    0.1,    0.2,   -0.0,    0.0,   -0.0,   -0.0,    0.1,    0.2,    0.1,    0.2,    0.1,    0.2,    0.2,    0.3,    0.3,    0.3,    0.3,    0.4,    0.7,    0.5,    0.6,    0.4,    0.3,    0.3,    0.4,    0.5,    0.4,    0.5,    0.3,    0.2,    0.2,    0.2,    0.5,   -0.0,   -0.1,   -0.1,   -0.2,   -0.1,   -0.2,   -0.5,   -0.3,   -0.5,   -0.4,   -0.3,   -0.6,   -0.2,   -0.2,   -0.2,   -0.4,   -0.5,   -0.2,   -0.4,   -0.6,   -0.2,   -0.3,   -0.2,   -0.3,   -0.2,   -0.4,   -0.6,   -0.4,   -0.6,   -0.5,   -0.7,   -0.7,   -0.6,   -0.1,    0.1,    0.2,   -0.7,  999.0,  999.0,  999.0,  999.0,   -0.4,   -0.1,    0.1,  999.0,    0.2,    0.2,   -0.0,    0.0,    0.3,    0.0,    0.8,    0.4,    0.2,    0.4,    0.4,    0.3,    0.3,    0.4,    0.4,    0.3,    0.2,    0.4,  999.0,    0.3,    0.3,    0.3,    0.2,    0.4,    0.2,    0.2,  999.0,  999.0,    0.5,    0.5,    0.3,    0.1,    0.1,    0.1,  999.0
2012/12/06 16:55,    0.1,    0.1,    0.0,   -0.0,    0.3,    0.5,    0.3,    0.2,    0.3,    0.3,    0.4,    0.3,    0.2,    0.3,    0.6,    0.6,    0.4,    0.5,    0.5,    0.3,    0.3,    0.2,    0.6,    0.6,    0.5,    0.9,    0.6,    0.3,    0.6,    0.8,    0.6,    0.4,    0.3,    0.7,    0.6,    0.7,    0.5,    0.4,    0.4,    0.2,    0.2,    0.3,    0.3,    0.3,    0.2,   -0.0,   -0.3,    0.1,    0.3,   -0.1,   -0.1,   -0.0,    0.0,    0.0,   -0.0,   -0.3,   -0.3,   -0.2,   -0.7,   -0.7,   -0.1,   -0.5,   -0.2,   -0.1,   -0.3,   -0.1,    0.1,    0.2,    0.0,    0.0,   -0.2,   -0.3,    0.1,   -0.3,    0.4,   -0.1,   -1.0,    2.0,    0.9,  999.0,   -0.1,   -0.2,  999.0,   -0.3,   -0.1,    0.0,    0.2,    0.4,    0.2,    0.3,   -0.0,    0.6,    0.5,    0.5,    0.1,    0.3,    0.1,    0.2,    0.1,   -0.1,    0.0,  999.0,  999.0,  999.0,    0.2,   -0.0,   -0.3,  999.0,    0.6,   -0.3,   -0.5,   -0.1,    1.8,  999.0,    0.4,  999.0,    0.1,    0.1,  999.0,  999.0
2012/12/06 17:05,    0.0,    0.0,    0.0,   -0.1,    0.1,    0.1,    0.2,    0.1,    0.1,    0.1,    0.2,    0.3,    0.1,    0.2,    0.3,    0.4,    0.2,    0.2,    0.2,    0.2,    0.4,    0.3,    0.4,    0.4,    0.4,    0.5,    0.5,    0.3,    0.4,    0.5,    0.4,    0.3,    0.2,    0.4,    0.3,    0.3,    0.3,    0.2,    0.1,    0.1,    0.0,   -0.0,    0.0,    0.2,   -0.1,   -0.1,   -0.3,   -0.2,    0.0,   -0.2,   -0.2,   -0.3,   -0.3,   -0.2,   -0.2,   -0.3,   -0.6,   -0.1,   -0.3,   -0.7,   -0.4,   -0.3,   -0.4,   -0.6,   -0.6,   -0.3,   -0.4,   -0.2,   -0.1,   -0.3,   -0.5,   -0.3,   -0.1,   -0.1,   -0.1,   -0.2,   -0.3,   -0.4,   -0.9,   -0.2,   -0.1,   -0.0,   -0.1,   -0.3,   -0.1,    0.0,   -0.1,   -0.0,   -0.1,    0.1,   -0.0,   -0.0,   -0.1,   -0.1,   -0.0,    0.0,    0.1,   -0.0,   -0.2,   -0.1,   -0.0,    0.1,    0.1,   -0.0,   -0.1,    0.1,    0.3,    0.6,    0.5,    0.5,    0.2,    0.2,    1.3,    0.9,    0.4,    0.3,    0.3,    0.1,    0.1,    0.2
2012/12/06 17:15,    0.2,    0.1,    0.0,   -0.1,    0.1,    0.0,   -0.1,    0.1,    0.0,    0.1,    0.3,    0.3,    0.1,    0.1,    0.0,    0.1,    0.1,    0.1,    0.2,    0.4,    0.3,    0.2,    0.4,    0.3,    0.4,    0.3,    0.3,    0.5,    0.2,    0.4,    0.2,    0.3,    0.3,    0.3,    0.1,    0.1,    0.1,   -0.0,   -0.2,   -0.2,   -0.1,   -0.2,   -0.2,    0.0,   -0.1,   -0.3,   -0.5,   -0.4,   -0.4,   -0.3,   -0.4,   -0.4,   -0.5,   -0.1,   -0.2,   -0.2,   -0.2,   -0.1,   -0.3,   -1.3,   -0.6,   -0.0,   -0.3,   -0.6,   -0.7,   -0.5,   -0.5,   -0.4,   -0.3,   -0.4,   -0.6,   -0.7,   -0.3,   -0.2,   -0.1,   -0.2,   -0.3,   -0.4,   -0.2,   -0.2,   -0.1,    0.1,    0.1,   -0.1,   -0.1,    0.1,    0.0,   -0.1,   -0.1,    0.3,    0.3,    0.1,   -0.1,   -0.2,   -0.1,   -0.2,   -0.2,   -0.2,   -0.1,   -0.2,   -0.1,   -0.0,    0.0,   -0.0,    0.0,    0.1,    0.2,    0.1,    0.3,    0.4,    0.2,    0.1,    0.7,    0.4,    0.4,    0.6,    0.2,    0.2,    0.1,    0.1
2012/12/06 17:25,   -0.1,    0.0,   -0.0,   -0.1,    0.0,    0.0,    0.1,    0.0,    0.0,    0.1,    0.3,    0.3,    0.1,    0.1,   -0.0,   -0.1,   -0.1,   -0.0,    0.2,    0.2,    0.3,    0.2,    0.2,    0.2,    0.2,    0.2,    0.2,    0.2,    0.3,    0.4,    0.4,    0.2,    0.3,    0.1,    0.2,    0.2,    0.0,   -0.0,    0.1,    0.2,   -0.1,    0.0,    0.0,   -0.0,    0.1,   -0.2,   -0.4,   -0.1,   -0.2,   -0.1,   -0.2,   -0.2,   -0.1,   -0.2,   -0.4,    0.2,   -0.1,    0.0,   -0.4,   -0.7,   -0.3,   -0.4,   -0.5,   -0.6,   -0.7,   -0.5,   -0.6,   -0.6,   -0.4,   -0.4,   -0.7,   -0.7,   -0.3,   -0.6,   -0.3,   -0.4,   -1.5,   -0.6,   -0.3,   -1.1,   -0.4,   -0.4,   -1.0,   -0.1,   -0.4,    0.4,   -0.2,   -1.7,    0.2,    0.3,   -0.2,    0.3,    0.1,    0.2,    0.2,    0.2,    0.1,   -0.0,    0.0,    0.4,    0.2,    0.0,    0.2,    0.1,   -0.1,    0.1,    0.1,    0.6,    0.6,    0.4,    0.3,    0.5,    0.7,    0.7,    1.2,   -0.1,    0.6,    0.1,  999.0,    0.3
2012/12/06 17:35,    1.3,    1.3,    1.5,    1.6,    1.7,    1.3,    1.0,    1.1,    1.1,    1.0,    0.9,    0.9,    1.1,    1.1,    0.7,    0.4,    0.5,    0.7,    0.9,    0.8,    0.7,    0.7,    0.5,    0.5,    0.5,    0.5,    0.5,    0.5,    0.5,    0.6,    0.6,    0.5,    0.5,    0.3,    0.1,    0.1,   -0.0,   -0.0,    0.2,    0.4,    0.1,    0.2,    0.3,   -0.0,    0.1,   -0.1,   -0.1,    0.0,    0.0,    0.0,   -0.2,    0.1,   -0.1,   -0.3,    0.0,    0.2,   -0.1,    0.2,   -0.1,   -0.1,    0.1,   -0.1,   -0.1,   -0.2,   -0.4,   -0.5,   -0.3,   -0.4,   -0.3,   -0.6,   -0.5,   -0.5,   -0.3,   -0.4,   -0.4,   -0.4,   -0.3,   -0.5,   -0.5,   -0.5,  999.0,   -0.4,   -0.4,   -0.3,   -0.4,   -0.1,   -0.2,   -0.2,    0.2,    0.3,    0.2,    0.3,    0.2,    0.2,    0.1,    0.1,    0.2,    0.1,    0.1,    0.2,    0.2,    0.2,    0.6,    0.1,    0.1,   -0.1,    0.1,    0.3,    0.1,    0.1,    0.1,    0.3,    0.3,    0.3,    0.3,    0.2,   -0.1,    0.4,    0.2,    0.3
2012/12/06 17:45,    1.0,    1.0,    1.1,    1.2,    1.3,    1.2,    0.9,    1.0,    0.8,    0.9,    0.8,    0.9,    0.9,    0.7,    0.7,    0.7,    0.8,    0.8,    0.8,    0.8,    0.6,    0.6,    0.5,    0.5,    0.4,    0.5,    0.4,    0.4,    0.5,    0.6,    0.5,    0.5,    0.4,    0.2,    0.2,    0.1,    0.1,   -0.2,   -0.2,   -0.1,    0.1,    0.1,    0.0,    0.0,    0.0,   -0.2,    0.0,    0.0,    0.0,   -0.1,   -0.0,    0.0,   -0.1,   -0.2,    0.2,    0.1,    0.0,    0.2,   -0.0,   -0.2,    0.1,    0.1,   -0.1,    0.2,   -0.2,   -0.3,   -0.0,   -0.2,   -0.3,   -0.5,   -0.5,   -0.4,   -0.3,   -0.4,   -0.6,   -0.5,   -0.4,   -0.6,   -0.7,   -0.7,   -0.6,   -0.5,   -0.6,   -0.0,    0.0,   -0.2,   -0.3,   -0.2,   -0.0,    0.2,    0.0,    0.0,    0.0,   -0.0,    0.0,   -0.0,   -0.1,   -0.1,   -0.1,    0.2,   -0.0,   -0.1,   -0.2,   -0.1,   -0.0,    0.0,   -0.0,    0.3,    0.2,    0.4,    0.1,    0.1,    0.2,    0.4,    0.4,    0.1,    0.0,   -0.0,   -0.2,   -0.2
2012/12/06 17:55,    0.5,    0.8,    0.7,    0.7,    0.8,    0.8,    0.7,    0.8,    0.6,    0.7,    0.7,    0.8,    0.7,    0.4,    0.3,    0.3,    0.4,    0.5,    0.5,    0.4,    0.4,    0.4,    0.4,    0.3,    0.3,    0.4,    0.3,    0.4,    0.3,    0.3,    0.5,    0.4,    0.3,    0.2,    0.1,    0.1,   -0.0,   -0.2,   -0.2,   -0.2,   -0.1,   -0.0,   -0.1,   -0.2,   -0.0,   -0.3,   -0.2,   -0.2,   -0.0,   -0.1,   -0.2,   -0.1,   -0.2,   -0.5,   -0.1,   -0.2,    0.0,   -0.1,   -0.3,   -0.0,    0.2,    0.0,   -0.1,    0.2,   -0.1,   -0.2,   -0.0,   -0.2,   -0.3,   -0.4,   -0.4,   -0.6,   -0.4,   -0.1,   -0.3,   -0.4,   -0.4,   -0.3,   -0.4,   -0.7,   -0.8,   -0.4,   -0.3,   -0.4,   -0.2,   -0.3,   -0.2,   -0.2,    0.2,    0.2,    0.6,    0.2,    0.1,    0.1,    0.2,    0.1,    0.1,    0.1,    0.2,    0.6,    0.1,    0.0,    0.3,    0.3,    0.1,    0.1,    0.2,    0.2,    0.3,    0.1,    0.1,    0.0,    0.2,    0.2,    0.1,    0.1,    0.1,   -0.2,   -0.1,    0.0
2012/12/06 18:05,    0.3,    0.4,    0.8,    0.7,    0.9,    0.9,    0.9,    0.6,    0.6,    0.8,    0.6,    0.7,    0.6,    0.6,    0.5,    0.5,    0.5,    0.6,    0.5,    0.5,    0.5,    0.5,    0.3,    0.3,    0.3,    0.1,    0.1,    0.2,    0.1,    0.2,    0.2,    0.1,    0.2,    0.1,    0.0,   -0.2,   -0.2,   -0.1,   -0.1,   -0.2,   -0.3,   -0.3,   -0.3,   -0.5,   -0.4,   -0.6,   -0.5,   -0.5,   -0.3,   -0.3,   -0.3,   -0.2,   -0.4,   -0.3,   -0.2,   -0.2,   -0.1,   -0.1,   -0.3,   -0.3,   -0.0,    0.1,   -0.1,   -0.1,   -0.1,   -0.2,   -0.0,   -0.1,   -0.3,   -0.6,   -0.5,   -0.4,   -0.5,   -0.1,   -0.4,   -0.4,   -0.3,   -0.5,   -0.5,   -0.6,   -0.1,   -0.5,   -0.4,   -0.4,   -0.1,   -0.1,   -0.3,   -0.2,    0.0,    0.0,    0.2,   -0.0,    0.0,    0.0,    0.1,    0.2,    0.1,    0.1,    0.5,    0.0,    0.3,    0.3,    0.0,    0.2,    0.4,    0.3,    0.7,    1.0,    0.8,    0.7,    0.8,    0.8,    0.9,    0.8,    1.2,    0.5,    0.3,    0.4,   -0.0,   -0.1
2012/12/06 18:15,    0.1,    0.2,    0.1,    0.0,    0.2,   -0.0,    0.1,   -0.0,   -0.1,   -0.2,   -0.3,   -0.3,   -0.3,    0.0,   -0.0,   -0.0,   -0.2,   -0.1,   -0.1,    0.1,   -0.2,   -0.3,   -0.2,   -0.3,   -0.4,   -0.5,   -0.4,   -0.3,   -0.5,   -0.5,   -0.4,   -0.4,   -0.4,   -0.4,   -0.5,   -0.5,   -0.6,   -0.6,   -0.6,   -0.6,   -0.7,   -0.8,   -0.5,   -0.6,   -1.0,   -1.1,   -1.0,   -0.9,   -0.7,   -0.5,   -0.5,   -0.4,   -0.3,   -0.2,   -0.2,    0.1,   -0.1,   -0.2,   -0.3,   -0.1,    0.2,    0.0,    0.1,    0.1,    0.5,    0.2,    0.2,    0.3,    0.1,    0.0,   -0.2,   -0.1,   -0.8,   -0.1,   -0.2,   -0.2,   -0.3,   -0.9,   -0.8,   -0.6,   -1.1,   -1.0,   -0.5,   -0.6,   -0.4,   -0.4,   -0.7,   -0.5,   -0.1,   -0.3,   -0.4,   -0.5,   -0.4,   -0.3,   -0.1,    0.0,    0.2,    0.5,    0.4,    0.3,    0.1,    0.2,    0.2,   -0.1,    0.1,   -0.1,   -0.1,    0.5,    0.1,  999.0,    0.6,    0.6,    0.2,    0.4,    0.7,    0.4,    0.2,    0.2,    0.3,   -0.2
2012/12/06 18:25,   -0.1,   -0.0,    0.0,    0.0,    0.1,    0.1,   -0.0,   -0.1,   -0.2,   -0.2,   -0.2,   -0.1,   -0.1,   -0.2,   -0.1,   -0.3,   -0.2,   -0.3,   -0.2,   -0.3,   -0.3,   -0.2,   -0.2,   -0.4,   -0.2,   -0.2,   -0.2,   -0.4,   -0.3,   -0.4,   -0.4,   -0.5,   -0.5,   -0.5,   -0.5,   -0.5,   -0.5,   -0.6,   -0.7,   -0.8,   -0.8,   -0.8,   -0.7,   -0.9,   -1.1,   -1.0,   -1.1,   -1.0,   -0.9,   -0.7,   -0.4,   -0.4,   -0.1,   -0.5,   -0.1,    0.1,   -0.1,   -0.2,   -0.5,   -0.1,    0.1,    0.1,    0.0,    0.2,    0.4,    0.0,    0.1,    0.3,    0.2,    0.0,   -0.2,   -0.3,   -0.3,    0.1,    0.1,   -0.0,   -0.5,   -0.5,   -0.6,   -0.4,   -0.6,   -0.5,   -0.6,   -0.4,   -0.3,   -0.4,   -0.6,   -0.4,   -0.1,   -0.2,   -0.5,   -0.4,   -0.5,   -0.5,   -0.1,   -0.1,   -0.1,    0.1,    0.2,    0.1,    0.0,    0.1,   -0.1,    0.3,   -0.0,    0.2,  999.0,    0.8,    0.4,    0.6,    0.8,    0.4,    0.9,    0.7,    0.1,    0.1,   -0.1,   -0.0,   -0.3,   -0.2
2012/12/06 18:35,    0.4,    0.4,    0.4,    0.4,    0.4,    0.6,    0.5,    0.4,    0.2,    0.3,    0.3,    0.4,    0.4,    0.4,    0.5,    0.4,    0.0,    0.1,    0.1,   -0.0,   -0.1,   -0.2,   -0.3,   -0.2,   -0.1,   -0.1,   -0.1,   -0.2,   -0.4,   -0.3,   -0.2,   -0.3,   -0.3,   -0.3,   -0.3,   -0.4,   -0.4,   -0.5,   -0.6,   -0.7,   -0.8,   -1.0,   -0.8,   -0.8,   -0.8,   -0.7,   -1.0,   -0.9,   -0.8,   -0.6,   -0.4,   -0.5,   -0.3,   -0.4,    0.0,   -0.2,   -0.2,   -0.4,   -0.4,   -0.2,    0.2,    0.3,    0.1,    0.3,    0.4,    0.1,    0.2,    0.3,    0.4,    0.5,    0.2,   -0.0,    0.0,    0.3,    0.3,   -0.2,   -0.4,   -0.4,   -0.5,   -0.6,   -0.6,   -0.3,   -0.0,    0.3,   -0.0,   -0.1,   -0.2,   -0.3,   -0.2,   -0.2,   -0.4,   -0.2,   -0.2,   -0.3,   -0.3,   -0.2,   -0.2,   -0.2,   -0.0,    0.0,    0.1,    0.2,    0.3,   -0.0,  999.0,    0.3,    0.5,    0.9,    0.6,    0.4,    0.4,    0.4,    0.6,    0.5,    0.1,    0.3,    0.0,    0.0,   -0.1,    0.2
2012/12/06 18:45,    0.2,    0.2,    0.1,    0.3,    0.4,    0.3,    0.4,    0.3,    0.1,    0.3,    0.2,    0.2,    0.2,    0.2,    0.3,    0.1,   -0.1,    0.2,    0.1,    0.0,   -0.1,   -0.2,   -0.1,   -0.2,   -0.2,   -0.2,   -0.2,   -0.0,   -0.2,   -0.2,   -0.1,   -0.2,   -0.2,   -0.4,   -0.2,   -0.3,   -0.3,   -0.4,   -0.4,   -0.4,   -0.4,   -0.4,   -0.5,   -0.3,   -0.5,   -0.7,   -0.8,   -0.9,   -0.6,   -0.5,   -0.3,   -0.2,   -0.1,   -0.2,   -0.0,    0.0,   -0.2,   -0.2,   -0.0,   -0.1,    0.3,    0.4,    0.4,    0.4,    0.6,    0.4,    0.1,    0.3,    0.4,    0.5,    0.4,    0.2,    0.1,    0.3,    0.2,   -0.4,   -0.4,   -0.2,    0.4,   -0.2,   -0.4,   -0.3,   -0.2,   -0.3,   -0.1,   -0.2,   -0.5,   -0.5,   -0.4,   -0.8,   -0.5,   -1.0,   -0.7,   -0.5,   -0.2,    0.0,   -0.1,   -0.0,    0.2,    0.2,   -0.0,   -0.0,    0.1,    0.1,    0.1,   -0.2,    0.0,   -0.8,    0.2,    0.2,    0.5,    1.0,    0.0,    1.1,    0.5,    0.6,    0.5,    0.2,    0.4,    0.6
2012/12/06 18:55,   -0.1,   -0.0,   -0.1,   -0.0,   -0.1,   -0.1,    0.1,    0.0,    0.1,    0.1,   -0.0,   -0.1,   -0.1,   -0.1,   -0.0,   -0.0,    0.0,    0.1,   -0.1,   -0.2,   -0.2,   -0.2,   -0.2,   -0.2,   -0.1,   -0.0,   -0.3,   -0.2,   -0.2,   -0.3,   -0.3,   -0.4,   -0.4,   -0.3,   -0.3,   -0.4,   -0.3,   -0.4,   -0.4,   -0.4,   -0.4,   -0.6,   -0.1,   -0.3,   -0.4,   -0.4,   -0.6,   -0.6,   -0.6,   -0.4,   -0.4,   -0.4,   -0.2,   -0.2,   -0.3,   -0.2,   -0.1,   -0.2,   -0.2,    0.1,    0.2,    0.0,    0.3,    0.4,    0.4,    0.2,    0.2,    0.2,    0.5,    0.5,    0.4,    0.2,    0.2,    0.4,    0.5,    0.2,   -0.0,   -0.2,    0.0,    0.7,    0.1,   -0.1,   -0.1,    0.0,    0.2,    0.1,    0.0,   -0.3,    0.3,    0.0,    0.2,    0.2,   -0.2,   -0.1,   -0.2,   -0.0,   -0.1,   -0.2,   -0.3,   -0.1,    0.0,    0.9,    0.3,    0.0,    0.4,    0.5,    1.1,    0.7,    0.6,    0.7,    0.9,    0.9,    0.8,    1.0,    0.7,    0.4,    0.5,    0.1,   -0.0,    0.0
2012/12/06 19:05,    0.2,    0.2,    0.2,    0.2,    0.2,    0.3,    0.3,    0.2,    0.1,    0.1,    0.3,    0.1,    0.2,    0.2,    0.3,    0.2,    0.2,    0.1,    0.1,   -0.1,   -0.1,   -0.1,   -0.2,   -0.2,   -0.3,   -0.1,   -0.3,   -0.3,   -0.3,   -0.2,   -0.2,   -0.4,   -0.2,   -0.3,   -0.2,   -0.2,   -0.2,   -0.2,   -0.1,   -0.2,   -0.3,   -0.3,   -0.1,   -0.1,   -0.3,   -0.4,   -0.4,   -0.3,   -0.4,   -0.5,   -0.4,   -0.5,   -0.4,   -0.3,   -0.2,   -0.1,   -0.3,   -0.1,   -0.2,    0.1,    0.1,    0.1,    0.4,    0.4,    0.3,    0.4,    0.5,    0.4,    0.7,    0.7,    0.5,    0.4,    0.2,    0.3,    0.5,    0.4,   -0.3,   -0.0,    0.2,    0.0,    0.0,   -0.3,   -0.1,   -0.0,   -0.2,    0.0,   -0.0,   -0.3,   -0.1,   -0.1,   -0.2,   -0.1,   -0.2,   -0.3,   -0.2,   -0.2,   -0.1,   -0.2,   -0.2,   -0.1,   -0.2,   -0.1,   -0.1,   -0.2,   -0.0,   -0.2,   -0.1,    0.2,    0.1,   -0.1,   -0.1,    0.1,    0.4,    0.2,    0.2,    0.1,   -0.1,    0.1,   -0.1,    0.1
2012/12/06 19:15,    0.1,    0.2,    0.2,    0.3,    0.1,    0.0,    0.1,    0.0,    0.0,    0.0,    0.0,   -0.1,   -0.1,   -0.4,   -0.3,   -0.3,   -0.4,   -0.3,   -0.3,   -0.3,   -0.5,   -0.4,   -0.4,   -0.5,   -0.5,   -0.6,   -0.6,   -0.6,   -0.6,   -0.5,   -0.5,   -0.5,   -0.6,   -0.5,   -0.5,   -0.4,   -0.5,   -0.6,   -0.6,   -0.6,   -0.7,   -0.6,   -0.3,   -0.5,   -0.6,   -0.7,   -0.8,   -0.7,   -0.7,   -0.7,   -0.6,   -0.6,   -0.4,   -0.3,   -0.3,   -0.2,   -0.3,   -0.3,   -0.4,   -0.1,   -0.3,   -0.1,    0.1,    0.3,    0.1,    0.4,    0.3,    0.1,    0.6,    0.4,    0.6,    0.2,    0.0,    0.2,    0.6,    0.4,   -0.3,   -0.3,   -0.1,   -0.3,   -0.3,   -0.5,   -0.2,    0.0,   -0.4,   -0.1,   -0.4,   -0.6,   -0.3,   -0.5,   -0.4,   -0.5,   -0.4,   -0.4,   -0.3,   -0.1,    0.1,   -0.2,   -0.2,   -0.1,   -0.1,   -0.0,    0.2,   -0.1,   -0.1,   -0.1,    0.1,    0.2,   -0.1,    0.2,    0.2,    0.4,    0.4,    0.1,    0.6,    0.4,    0.3,    0.1,    0.1,   -0.1
2012/12/06 19:25,    0.0,    0.1,   -0.1,   -0.1,   -0.1,   -0.1,    0.0,   -0.0,   -0.1,   -0.1,   -0.2,   -0.1,   -0.1,   -0.1,   -0.1,   -0.2,   -0.3,   -0.2,   -0.1,   -0.2,   -0.3,   -0.3,   -0.3,   -0.3,   -0.4,   -0.4,   -0.2,   -0.3,   -0.4,   -0.4,   -0.5,   -0.5,   -0.6,   -0.5,   -0.5,   -0.4,   -0.6,   -0.5,   -0.5,   -0.5,   -0.5,   -0.4,   -0.4,   -0.2,   -0.4,   -0.4,   -0.5,   -0.5,   -0.8,   -0.7,   -0.5,   -0.5,   -0.3,   -0.1,   -0.1,   -0.1,   -0.3,   -0.3,   -0.3,   -0.2,   -0.3,   -0.2,   -0.1,    0.1,    0.0,    0.1,    0.0,    0.2,    0.3,    0.4,    0.3,    0.0,    0.1,    0.3,    0.4,    0.2,   -0.0,   -0.3,   -0.2,   -0.1,    0.1,  999.0,   -0.5,   -0.0,    0.2,   -0.0,   -0.2,   -0.3,   -0.1,    0.0,   -0.1,   -0.2,   -0.3,   -0.0,    0.1,    0.0,    0.2,    0.2,    0.3,    0.4,    0.4,    0.5,    0.4,    0.3,    0.3,    0.2,    0.5,    0.5,    0.6,    0.4,    0.8,    0.7,    0.7,    1.0,    0.7,    0.5,    0.4,    0.3,    0.1,   -0.0
2012/12/06 19:35,    0.7,    0.8,    0.8,    0.6,    0.4,    0.3,    0.3,    0.2,    0.2,    0.0,    0.2,    0.1,    0.1,    0.1,   -0.1,   -0.1,    0.0,    0.0,    0.1,    0.1,   -0.0,   -0.0,   -0.1,   -0.1,   -0.2,   -0.2,   -0.2,   -0.2,   -0.2,   -0.2,   -0.0,   -0.1,   -0.2,   -0.2,   -0.2,   -0.2,   -0.2,   -0.3,   -0.3,   -0.3,   -0.2,   -0.2,   -0.4,   -0.3,   -0.4,   -0.4,   -0.5,   -0.5,   -0.5,   -0.4,   -0.6,   -0.3,   -0.1,   -0.2,   -0.1,   -0.2,   -0.3,   -0.4,   -0.3,   -0.3,   -0.4,   -0.2,   -0.3,   -0.2,   -0.4,    0.0,    0.2,    0.2,    0.1,    0.3,   -0.1,   -0.2,   -0.0,    0.2,    0.3,   -0.0,    0.0,   -0.1,   -0.1,    0.5,    0.7,   -0.4,    0.5,   -0.0,    0.0,   -0.1,   -0.1,   -0.5,   -0.5,   -0.5,   -0.4,   -0.3,   -0.7,   -0.5,   -0.4,   -0.3,   -0.1,   -0.2,   -0.1,   -0.1,   -0.2,    0.1,   -0.0,    0.0,    0.5,    0.3,    0.3,    0.5,    0.4,    0.2,    0.2,    0.3,    0.3,    0.0,   -0.1,    0.2,   -0.0,    0.0,    0.0,    0.3
2012/12/06 19:45,    0.9,    0.8,    0.8,    0.8,    0.7,    0.5,    0.4,    0.4,    0.3,    0.6,    0.5,    0.6,    0.4,    0.4,    0.2,    0.3,    0.3,    0.3,    0.2,    0.3,    0.1,    0.1,    0.2,    0.1,    0.0,   -0.3,   -0.2,   -0.3,   -0.2,   -0.1,   -0.1,   -0.0,   -0.1,   -0.2,    0.0,   -0.1,    0.0,    0.1,   -0.1,   -0.0,   -0.1,   -0.1,   -0.5,   -0.4,   -0.3,   -0.4,   -0.4,   -0.5,   -0.2,   -0.4,   -0.7,   -0.2,   -0.1,   -0.2,   -0.2,   -0.2,   -0.4,   -0.3,   -0.3,   -0.5,   -0.2,   -0.2,   -0.0,   -0.4,   -0.4,   -0.4,   -0.1,   -0.0,   -0.3,   -0.2,   -0.2,   -0.3,   -0.2,   -0.2,   -0.1,   -0.5,   -0.4,   -0.4,   -0.5,   -0.7,   -0.6,   -0.7,   -0.7,   -1.0,   -1.5,   -1.0,   -0.6,   -0.7,   -0.7,   -0.6,   -0.4,   -0.6,   -0.7,   -0.4,   -0.2,   -0.6,   -0.9,   -0.4,   -0.3,   -0.2,   -0.1,   -0.1,   -0.3,   -0.2,   -0.1,   -0.2,   -0.0,   -0.1,    0.1,    0.1,    0.2,    0.3,    0.9,   -0.4,    0.3,    0.2,    0.2,   -0.3,  999.0,   -0.1
2012/12/06 19:55,    0.2,    0.2,    0.4,    0.4,    0.3,    0.3,    0.3,    0.5,    0.3,    0.3,    0.4,    0.4,    0.2,    0.1,    0.1,    0.2,    0.2,    0.2,    0.1,    0.1,    0.1,    0.1,    0.1,    0.2,    0.1,    0.1,   -0.1,    0.1,    0.1,    0.0,   -0.0,    0.1,    0.0,   -0.0,   -0.1,   -0.1,   -0.0,   -0.1,   -0.2,   -0.2,   -0.4,   -0.3,   -0.4,   -0.4,   -0.4,   -0.4,   -0.5,   -0.3,   -0.3,   -0.4,   -0.9,   -0.2,   -0.2,   -0.3,   -0.1,   -0.3,   -0.4,   -0.3,   -0.1,   -0.3,   -0.3,   -0.3,    0.0,   -0.3,   -0.4,   -0.4,   -0.3,   -0.1,    0.1,   -0.2,   -0.0,   -0.3,   -0.1,   -0.1,   -0.0,   -0.5,   -0.4,   -0.2,   -0.4,   -0.5,   -0.5,   -0.7,   -0.5,   -0.3,   -0.7,   -0.6,   -0.9,   -0.7,   -0.7,   -0.4,   -0.5,   -0.6,   -0.7,   -0.5,   -0.6,   -0.4,   -0.3,   -0.6,   -0.6,   -0.3,   -0.3,   -0.6,   -0.1,    0.0,    0.0,   -0.2,   -0.0,    0.2,   -0.1,    0.3,    0.3,    0.4,    0.3,    0.3,    0.2,    0.2,   -0.0,   -0.2,   -0.7,   -0.2
2012/12/06 20:05,    0.6,    0.8,    0.8,    0.8,    0.4,    0.4,    0.5,    0.4,    0.3,    0.3,    0.3,    0.4,    0.3,    0.3,    0.2,    0.1,    0.1,   -0.0,    0.0,   -0.0,   -0.0,   -0.0,   -0.0,   -0.1,   -0.1,   -0.1,   -0.1,   -0.1,   -0.1,   -0.2,   -0.3,   -0.4,   -0.5,   -0.3,   -0.2,   -0.2,   -0.3,   -0.4,   -0.3,   -0.3,   -0.4,   -0.3,   -0.4,   -0.6,   -0.6,   -0.6,   -0.5,   -0.5,   -0.6,   -0.5,   -0.5,   -0.3,   -0.2,   -0.4,   -0.1,   -0.3,   -0.3,   -0.2,   -0.1,   -0.3,   -0.4,   -0.2,   -0.1,   -0.2,    0.0,   -0.1,   -0.2,   -0.1,    0.1,   -0.0,    0.1,   -0.0,   -0.2,   -0.1,    0.1,    0.3,   -0.3,   -0.3,   -0.3,   -0.3,   -0.8,   -1.0,   -0.4,   -0.9,   -0.7,   -0.9,   -0.8,   -0.8,   -0.8,   -0.7,   -0.8,   -0.8,   -0.7,   -0.6,   -0.5,   -0.4,   -0.3,   -0.3,   -0.3,   -0.2,   -0.2,    0.1,    0.0,   -0.1,    0.0,   -0.0,    0.2,    0.3,    0.1,   -0.0,    0.2,    0.4,    0.4,    0.3,    0.2,    0.0,    0.1,   -0.3,   -0.1,    0.3
2012/12/06 20:15,    0.3,    0.3,    0.5,    0.4,    0.3,    0.4,    0.4,    0.1,    0.1,    0.0,    0.0,    0.1,    0.1,    0.1,    0.1,    0.0,   -0.1,   -0.2,   -0.2,   -0.2,   -0.3,   -0.3,   -0.3,   -0.2,   -0.4,   -0.5,   -0.5,   -0.6,   -0.5,   -0.5,   -0.7,   -0.6,   -0.7,   -0.4,   -0.3,   -0.4,   -0.4,   -0.4,   -0.5,   -0.5,   -0.5,   -0.3,   -0.4,   -0.7,   -0.9,   -0.6,   -0.7,   -0.6,   -0.7,   -0.5,   -0.7,   -0.6,   -0.5,   -0.3,   -0.0,   -0.1,   -0.2,   -0.0,   -0.2,   -0.4,   -0.3,   -0.3,   -0.1,   -0.0,   -0.2,   -0.1,   -0.2,   -0.1,    0.0,    0.0,   -0.0,   -0.5,   -0.3,   -0.1,    0.2,    0.1,   -0.1,   -0.3,   -0.2,   -0.2,   -0.4,   -0.5,   -0.4,   -0.5,   -0.2,   -0.3,   -0.6,   -0.5,   -0.6,   -0.4,   -0.5,   -0.6,   -0.5,   -0.3,   -0.2,   -0.2,   -0.1,   -0.1,   -0.1,    0.0,    0.1,    0.1,    0.2,    0.2,    0.2,    0.3,    0.4,    0.5,   -0.7,    0.1,    0.2,    0.1,    0.5,    0.3,    0.3,    0.2,   -0.0,    0.2,   -0.3,  999.0
2012/12/06 20:25,    0.8,    0.7,    0.4,    0.2,    0.3,    0.3,    0.3,    0.1,    0.2,    0.1,    0.0,    0.2,   -0.0,   -0.0,   -0.1,   -0.1,   -0.1,   -0.1,   -0.2,   -0.2,   -0.2,   -0.1,   -0.2,   -0.3,   -0.2,   -0.4,   -0.5,   -0.5,   -0.5,   -0.5,   -0.6,   -0.8,   -0.8,   -0.8,   -0.8,   -0.8,   -0.7,   -1.0,   -0.8,   -0.9,   -0.4,   -0.4,   -0.9,   -1.1,   -1.2,   -0.9,   -0.9,   -0.8,   -1.1,   -0.8,   -0.8,   -0.9,   -0.6,   -0.4,   -0.1,    0.0,   -0.1,   -0.2,   -0.2,   -0.3,   -0.2,   -0.4,   -0.1,   -0.2,   -0.1,    0.0,   -0.1,   -0.1,   -0.1,    0.1,    0.1,    0.0,   -0.1,   -0.1,    0.1,    0.2,   -0.0,   -0.2,   -0.2,   -0.1,   -0.2,   -0.6,   -0.4,   -0.2,   -0.2,   -0.1,   -0.5,   -0.4,   -0.3,    0.0,   -0.2,   -0.4,   -0.4,   -0.2,   -0.1,    0.1,    0.1,    0.1,    0.3,    0.4,    0.3,    0.5,    0.3,    0.5,    0.4,    0.4,    0.2,    0.4,    0.1,    0.4,    0.5,    0.5,    0.5,    0.2,    0.2,    0.2,    0.2,    0.3,  999.0,   -1.0
2012/12/06 20:35,    1.0,    0.7,    0.4,    0.1,    0.1,    0.1,    0.0,   -0.1,   -0.1,   -0.2,   -0.1,   -0.1,   -0.2,   -0.3,   -0.3,   -0.2,   -0.3,   -0.3,   -0.3,   -0.4,   -0.3,   -0.3,   -0.4,   -0.5,   -0.5,   -0.5,   -0.5,   -0.5,   -0.5,   -0.6,   -0.7,   -0.7,   -0.7,   -0.7,   -0.8,   -0.9,   -0.8,   -0.8,   -0.9,   -0.8,   -0.4,   -0.7,   -0.8,   -0.8,   -0.8,   -0.8,   -0.7,   -0.7,   -0.6,   -0.8,   -0.6,   -0.6,   -0.5,   -0.3,   -0.2,   -0.0,   -0.0,    0.0,    0.0,   -0.1,   -0.2,   -0.2,   -0.2,   -0.3,   -0.2,   -0.4,   -0.3,   -0.2,   -0.1,    0.3,    0.4,    0.1,    0.1,    0.0,    0.0,    0.0,   -0.1,   -0.1,    0.1,   -0.1,    0.1,   -0.7,   -0.1,   -0.4,    0.1,    0.1,   -0.1,   -0.1,   -0.2,    0.0,   -0.1,   -0.2,   -0.1,   -0.0,    0.1,    0.2,    0.2,    0.2,    0.3,    0.4,    0.6,    0.6,    0.4,    0.6,    0.5,    0.3,    0.4,    0.3,    0.1,    0.2,    0.1,    0.0,    0.1,   -0.3,    0.2,    0.1,   -0.8,  999.0,  999.0,  999.0
2012/12/06 20:45,    0.3,    0.3,    0.2,    0.1,    0.2,    0.2,    0.2,    0.1,    0.1,    0.1,    0.0,    0.1,   -0.1,   -0.1,    0.1,   -0.0,    0.0,    0.1,   -0.0,   -0.2,   -0.2,   -0.2,   -0.3,   -0.2,   -0.2,   -0.2,   -0.2,   -0.2,   -0.2,   -0.2,   -0.2,   -0.3,   -0.4,   -0.4,   -0.2,   -0.1,   -0.3,   -0.4,   -0.5,   -0.6,   -0.4,   -0.5,   -0.6,   -0.8,   -0.6,   -0.6,   -0.5,   -0.4,   -0.4,   -0.4,   -0.2,   -0.4,   -0.2,   -0.2,   -0.2,   -0.1,   -0.1,    0.0,    0.1,   -0.1,   -0.0,   -0.1,   -0.1,   -0.2,    0.1,   -0.0,   -0.1,    0.1,    0.6,    0.5,    0.2,    0.3,    0.2,    0.1,    0.2,    0.2,   -0.1,    0.0,    0.3,    0.1,    0.0,   -0.2,   -0.3,    0.1,    0.1,    0.2,    0.1,   -0.1,   -0.2,    0.0,   -0.3,   -0.4,   -0.2,   -0.1,    0.0,    0.2,    0.2,   -0.1,    0.3,    0.3,    0.4,    0.5,    0.3,    0.5,    0.5,    0.5,    0.7,    0.6,    0.3,    0.5,    0.5,    0.4,    0.4,    0.1,    0.3,    0.1,    0.9,    0.2,  999.0,    0.1
2012/12/06 20:55,    0.4,    0.4,    0.4,    0.3,    0.2,    0.4,    0.4,    0.2,    0.2,    0.0,    0.2,    0.3,    0.2,    0.1,    0.3,    0.3,    0.2,    0.1,    0.0,    0.1,   -0.0,   -0.1,   -0.1,   -0.1,   -0.2,   -0.2,   -0.1,   -0.2,   -0.3,   -0.3,   -0.3,   -0.5,   -0.4,   -0.4,   -0.4,   -0.4,   -0.5,   -0.5,   -0.7,   -0.7,   -0.5,   -0.5,   -0.7,   -0.9,   -0.8,   -0.7,   -0.6,   -0.6,   -0.6,   -0.7,   -0.3,   -0.5,   -0.2,   -0.4,   -0.3,   -0.2,   -0.2,    0.0,    0.2,   -0.1,   -0.2,   -0.2,    0.1,    0.1,    0.1,    0.0,   -0.1,    0.1,    0.2,    0.2,    0.4,    0.1,   -0.0,    0.1,    0.2,    0.3,   -0.1,   -0.1,    0.1,   -0.1,   -0.0,   -0.5,   -0.2,   -0.0,    0.2,   -0.0,    0.2,   -0.1,   -0.1,   -0.1,   -0.3,   -0.3,   -0.2,   -0.0,    0.1,    0.2,    0.1,    0.3,    0.4,    0.5,    0.6,    0.7,    0.8,    0.3,    0.6,    0.7,    0.5,    0.5,    0.5,    1.0,    0.8,    0.9,    0.7,    0.7,    0.5,    0.5,  999.0,    0.1,   -0.0,  999.0
2012/12/06 21:05,    0.3,    0.4,    0.4,    0.1,    0.2,    0.1,    0.2,    0.1,    0.1,   -0.1,    0.1,   -0.1,   -0.0,   -0.2,   -0.1,   -0.1,   -0.1,   -0.0,    0.0,    0.0,   -0.2,   -0.3,   -0.2,   -0.2,   -0.2,   -0.3,   -0.3,   -0.3,   -0.3,   -0.4,   -0.5,   -0.6,   -0.5,   -0.6,   -0.6,   -0.6,   -0.7,   -0.8,   -0.6,   -0.7,   -0.5,   -0.6,   -1.0,   -1.1,   -0.5,   -0.8,   -0.9,   -0.6,   -0.6,   -0.4,   -0.5,   -0.4,   -0.3,   -0.4,   -0.4,   -0.2,   -0.2,    0.0,    0.0,   -0.2,   -0.1,   -0.0,    0.0,    0.1,    0.2,    0.1,    0.1,    0.2,    0.3,    0.1,    0.1,   -0.0,   -0.2,   -0.1,    0.2,    0.1,   -0.1,   -0.2,   -0.1,    0.0,   -0.5,   -0.7,   -0.2,    0.0,   -0.1,    0.2,   -0.0,   -0.2,   -0.1,    0.1,   -0.2,   -0.3,   -0.1,    0.0,    0.3,    0.3,    0.1,    0.5,    0.6,    0.5,    0.6,    0.6,    0.9,    0.3,    0.6,    0.8,    0.5,    0.5,    0.6,    0.7,    0.7,    0.7,    0.4,    0.5,    0.2,    0.2,    0.2,   -1.6,  999.0,  999.0
2012/12/06 21:15,    0.4,    0.3,   -0.0,    0.1,    0.1,    0.1,    0.2,    0.1,    0.1,    0.1,    0.1,    0.2,    0.2,    0.0,    0.1,    0.1,    0.0,   -0.0,   -0.1,   -0.1,   -0.1,   -0.0,   -0.1,   -0.1,   -0.2,   -0.3,   -0.1,   -0.2,   -0.4,   -0.3,   -0.3,   -0.6,   -0.6,   -0.6,   -0.4,   -0.4,   -0.4,   -0.4,   -0.4,   -0.5,   -0.6,   -0.5,   -0.6,   -0.3,   -0.4,   -0.6,   -0.6,   -0.5,   -0.5,   -0.4,   -0.6,   -0.3,   -0.2,   -0.4,   -0.3,   -0.2,   -0.3,    0.1,    0.1,   -0.2,   -0.1,   -0.0,   -0.1,    0.1,    0.1,    0.1,   -0.0,    0.3,    0.2,    0.2,    0.4,    0.0,   -0.0,    0.0,    0.2,    0.2,   -0.2,   -0.1,   -0.0,   -0.2,   -0.2,   -0.3,   -0.3,   -0.2,   -0.2,    0.4,    0.3,   -0.2,   -0.3,   -0.3,   -0.2,   -0.1,   -0.1,    0.1,    0.2,    0.3,    0.3,    0.2,    0.5,    0.8,    0.8,    0.9,    1.1,    0.4,    0.8,    1.1,    0.9,    0.9,    0.6,    0.7,    0.7,    0.8,    0.7,    0.5,    0.2,    0.5,    0.4,  999.0,  999.0,  999.0
2012/12/06 21:25,    0.1,    0.1,    0.2,   -0.1,    0.0,   -0.1,   -0.1,   -0.0,   -0.1,   -0.0,    0.0,    0.2,    0.0,    0.1,    0.1,    0.0,    0.1,   -0.1,   -0.1,   -0.0,    0.1,   -0.0,   -0.1,   -0.1,   -0.1,   -0.0,   -0.2,   -0.2,   -0.2,   -0.1,   -0.3,   -0.3,   -0.3,   -0.4,   -0.4,   -0.4,   -0.4,   -0.3,   -0.3,   -0.3,   -0.2,   -0.3,   -0.2,   -0.0,   -0.3,   -0.6,   -0.4,   -0.2,   -0.4,   -0.4,   -0.7,   -0.3,   -0.4,   -0.4,   -0.3,   -0.3,   -0.2,    0.2,   -0.1,   -0.3,   -0.1,    0.1,    0.1,    0.3,    0.1,    0.2,    0.0,    0.6,    0.3,    0.7,    0.3,    0.1,   -1.0,   -0.3,    0.1,    0.3,   -0.1,   -0.1,    0.3,    0.1,   -0.2,   -0.3,   -0.2,   -0.1,   -0.0,    0.2,    0.3,   -0.0,    0.0,   -0.0,    0.3,    0.2,    0.2,    0.2,    0.2,    0.2,    0.8,    0.8,    0.7,    0.7,    0.6,    0.9,    1.2,    1.0,    1.0,    1.1,    0.8,    1.1,    1.2,    1.3,    1.3,    1.5,    1.0,    0.8,    0.5,    0.4,   -0.2,   -0.3,  999.0,  999.0
2012/12/06 21:35,    0.4,    0.4,    0.4,    0.2,    0.2,    0.2,    0.1,    0.2,    0.1,    0.0,    0.2,    0.2,    0.2,    0.1,    0.2,    0.1,    0.0,   -0.0,    0.0,   -0.1,   -0.2,   -0.2,   -0.1,   -0.2,   -0.1,   -0.3,   -0.1,   -0.2,   -0.2,   -0.3,   -0.3,   -0.4,   -0.4,   -0.5,   -0.4,   -0.5,   -0.4,   -0.4,   -0.4,   -0.5,   -0.5,   -0.5,   -0.6,   -0.4,   -0.4,   -0.5,   -0.3,   -0.1,   -0.3,   -0.4,   -0.6,   -0.4,   -0.3,   -0.2,    0.0,   -0.1,   -0.1,    0.1,   -0.1,   -0.2,    0.0,   -0.2,    0.2,    0.4,    0.2,    0.1,    0.1,    0.1,    0.4,    0.2,    0.0,   -0.0,   -0.1,   -0.2,    0.2,    0.1,   -0.3,   -0.2,    0.2,    0.1,    0.0,   -0.2,   -0.1,    0.1,    0.0,    0.2,    0.3,    0.3,    0.2,    0.1,    0.2,    0.3,    0.3,    0.2,    0.3,    0.4,    0.2,    0.4,    0.6,    0.6,    0.7,    0.7,    0.6,    0.7,    0.7,    0.8,    0.8,    0.8,    0.7,    0.9,    1.0,    1.2,    0.6,    0.7,    0.9,    0.3,    0.4,  999.0,  999.0,  999.0
2012/12/06 21:45,    0.4,    0.5,    0.4,    0.3,    0.3,    0.2,    0.1,    0.0,    0.0,    0.1,    0.3,    0.2,    0.2,    0.3,    0.3,    0.3,    0.2,    0.1,   -0.0,    0.0,   -0.0,   -0.1,   -0.1,   -0.2,   -0.1,   -0.1,   -0.2,   -0.1,   -0.3,   -0.4,   -0.3,   -0.3,   -0.4,   -0.4,   -0.5,   -0.5,   -0.5,   -0.5,   -0.5,   -0.5,   -0.5,   -0.5,   -0.3,   -0.3,   -0.4,   -0.5,   -0.4,   -0.1,   -0.2,   -0.3,   -0.5,   -0.2,   -0.3,   -0.0,    0.0,    0.0,    0.1,    0.2,   -0.2,   -0.1,   -0.1,    0.2,    0.3,    0.4,   -0.1,   -0.0,    0.1,    0.1,    0.2,    0.0,   -0.1,   -0.3,   -0.1,   -0.0,    0.1,    0.1,   -0.0,   -0.3,    0.2,    0.3,   -0.2,   -0.5,   -0.4,   -0.3,   -0.2,    0.1,    0.0,    0.1,   -0.1,    0.1,    0.4,    0.5,    0.5,    0.4,    0.3,    0.2,    0.3,    0.0,    0.3,    0.4,    0.5,    0.6,    0.5,    1.6,    0.3,    0.6,    0.5,    0.6,    0.4,    0.5,    0.7,    0.9,    0.4,    0.5,  999.0,    0.3,    0.2,   -1.5,   -0.1,  999.0
2012/12/06 21:55,    0.4,    0.3,    0.2,    0.2,    0.2,    0.2,    0.0,    0.0,    0.1,    0.1,    0.2,    0.1,    0.3,    0.4,    0.3,    0.2,    0.2,    0.1,    0.2,    0.0,   -0.1,   -0.2,   -0.1,   -0.1,   -0.1,   -0.1,   -0.0,   -0.1,   -0.1,   -0.0,   -0.0,    0.0,   -0.1,    0.0,   -0.1,   -0.1,   -0.2,   -0.1,   -0.2,   -0.3,   -0.2,   -0.2,   -0.2,   -0.1,   -0.4,   -0.4,   -0.4,   -0.3,   -0.2,   -0.2,   -0.4,   -0.4,   -0.0,    0.0,    0.1,    0.0,    0.1,    0.2,    0.0,   -0.1,   -0.1,    0.1,    0.2,    0.1,   -0.1,   -0.2,   -0.1,   -0.0,    0.1,    0.0,   -0.2,   -0.4,   -0.6,   -0.3,   -0.1,   -0.0,   -0.3,   -0.5,   -0.4,    0.2,   -0.1,   -0.5,   -0.3,   -0.3,    0.2,    0.0,   -0.0,   -0.0,   -0.2,    0.1,    0.2,    0.3,    0.1,    0.0,    0.1,    0.1,    0.1,    0.1,    0.1,    0.1,    0.3,    0.5,    0.6,  999.0,    0.2,    0.4,    0.2,    0.3,    0.1,    0.1,    0.2,    0.1,    0.0,    0.0,    0.0,    0.1,    0.1,    0.3,    0.0,  999.0
2012/12/06 22:05,    0.4,    0.4,    0.4,    0.4,    0.2,    0.1,    0.4,    0.4,    0.2,    0.2,    0.5,    0.2,    0.3,    0.3,    0.4,    0.3,    0.2,    0.2,    0.2,    0.1,   -0.1,   -0.2,   -0.2,   -0.2,   -0.1,   -0.1,   -0.2,   -0.1,   -0.1,   -0.2,   -0.2,   -0.3,   -0.3,   -0.4,   -0.4,   -0.4,   -0.3,   -0.3,   -0.5,   -0.6,   -0.6,   -0.4,   -0.3,   -0.3,   -0.3,   -0.4,   -0.4,   -0.1,   -0.3,   -0.4,   -0.4,   -0.5,   -0.1,   -0.1,    0.1,    0.0,    0.0,    0.1,    0.0,    0.0,   -0.3,   -0.2,    0.1,    0.2,    0.1,   -0.1,   -0.3,   -0.2,    0.1,    0.2,   -0.0,    0.1,   -0.2,   -0.2,   -0.1,    0.0,    0.0,   -0.0,   -0.0,    0.3,    0.1,  999.0,   -0.3,   -0.2,    0.1,    0.3,    0.0,    0.1,    0.1,    0.2,    0.4,    0.3,    0.2,    0.2,    0.4,    0.4,    0.3,    0.3,    0.3,    0.3,    0.3,    0.4,    0.5,  999.0,    0.6,    0.7,    0.5,    0.6,    0.3,    0.5,    0.6,    0.5,    0.5,    0.4,    0.3,    0.3,    0.0,  999.0,  999.0,  999.0
2012/12/06 22:15,    0.4,    0.1,    0.1,    0.1,   -0.1,    0.1,   -0.0,    0.1,   -0.2,   -0.1,   -0.0,   -0.0,   -0.2,   -0.1,   -0.1,   -0.1,   -0.1,   -0.1,   -0.2,   -0.3,   -0.5,   -0.5,   -0.4,   -0.3,   -0.4,   -0.4,   -0.4,   -0.3,   -0.4,   -0.5,   -0.5,   -0.7,   -0.7,   -0.7,   -0.7,   -0.7,   -0.5,   -0.9,   -0.8,   -1.0,   -0.9,   -0.7,   -0.4,   -0.2,   -0.4,   -0.5,   -0.6,   -0.3,   -0.4,   -0.5,   -0.4,   -0.4,   -0.3,   -0.1,    0.0,    0.2,    0.1,    0.3,   -0.0,   -0.0,   -0.3,   -0.2,    0.1,    0.2,    0.0,   -0.1,   -0.3,    0.1,    0.1,    0.3,    0.3,    0.2,   -0.3,    0.1,    0.0,    0.0,   -0.0,   -0.1,   -0.2,    0.0,    0.2,    0.0,   -0.3,   -0.1,    0.0,   -0.1,    0.2,    0.3,    0.3,    0.3,    0.4,    0.4,    0.3,    0.4,    0.5,    0.4,    0.5,    0.5,    0.7,    0.6,    0.6,    0.8,    0.7,   -0.4,    0.9,    1.1,    0.4,    0.5,    0.5,    0.5,    0.4,    0.7,    0.3,    0.3,    0.3,    0.4,    0.0,  999.0,    0.3,  999.0
2012/12/06 22:25,   -0.4,   -0.5,   -0.5,   -0.2,   -0.2,   -0.2,   -0.1,   -0.2,   -0.3,   -0.2,   -0.1,   -0.1,   -0.0,   -0.1,   -0.2,   -0.2,   -0.2,   -0.2,   -0.3,   -0.4,   -0.3,   -0.4,   -0.3,   -0.4,   -0.4,   -0.4,   -0.5,   -0.4,   -0.5,   -0.6,   -0.6,   -0.6,   -0.4,   -0.8,   -0.8,   -0.7,   -1.0,   -0.6,   -0.7,   -0.7,   -0.8,   -0.6,   -0.3,   -0.3,   -0.4,   -0.6,   -0.7,   -0.7,   -0.6,   -0.6,   -0.4,   -0.4,   -0.4,   -0.2,    0.1,    0.1,    0.0,    0.2,   -0.2,   -0.4,   -0.4,   -0.6,   -0.1,   -0.3,   -0.4,   -0.2,   -0.4,    0.1,    0.1,    0.2,    0.2,    0.2,    0.0,   -0.3,    0.1,    0.1,   -0.0,    0.0,   -0.3,   -0.0,    0.0,    0.1,   -0.3,   -0.4,   -0.1,    0.5,    0.2,    0.1,    0.2,   -0.1,    0.2,    0.3,    0.2,    0.2,    0.1,    0.1,    0.2,    0.3,    0.1,    0.1,   -0.0,   -0.1,   -0.2,   -0.0,    0.0,   -0.1,   -0.1,    0.0,   -0.1,   -0.1,   -0.2,   -0.1,   -0.2,   -0.2,   -0.1,    0.1,    0.1,   -0.1,  999.0,  999.0
2012/12/06 22:35,   -0.5,   -0.4,   -0.4,   -0.2,   -0.2,   -0.2,   -0.2,   -0.1,   -0.3,   -0.2,   -0.1,   -0.1,   -0.1,   -0.1,   -0.1,   -0.0,   -0.0,   -0.1,   -0.3,   -0.3,   -0.4,   -0.5,   -0.4,   -0.3,   -0.3,   -0.4,   -0.4,   -0.3,   -0.3,   -0.4,   -0.3,   -0.4,   -0.4,   -0.5,   -0.4,   -0.4,   -0.4,   -0.6,   -0.6,   -0.6,   -0.3,   -0.2,   -0.2,   -0.5,   -0.6,   -0.6,   -0.6,   -0.4,   -0.5,   -0.5,   -0.4,   -0.3,   -0.3,   -0.4,   -0.1,    0.1,   -0.1,    0.1,   -0.1,   -0.3,   -0.4,   -0.4,   -0.1,   -0.1,   -0.2,   -0.0,   -0.4,    0.1,   -0.1,    0.1,    0.3,   -0.2,   -0.2,   -0.1,    0.0,   -0.1,   -0.2,   -0.3,    0.0,    0.0,   -0.1,   -0.2,   -0.5,   -0.6,   -0.2,   -0.1,    0.0,   -0.1,   -0.1,   -0.2,   -0.1,    0.1,   -0.1,   -0.1,   -0.2,   -0.1,   -0.0,    0.0,    0.1,    0.1,    0.1,    0.7,   -0.4,   -0.0,    0.2,    0.2,    0.2,    0.0,   -0.1,   -0.4,   -0.2,   -0.0,    0.0,    0.1,    0.0,    0.1,   -0.1,   -0.2,  999.0,  999.0
2012/12/06 22:45,   -0.4,   -0.5,   -0.5,   -0.2,   -0.2,   -0.2,   -0.2,   -0.3,   -0.3,   -0.2,   -0.2,   -0.5,   -0.5,   -0.4,   -0.4,   -0.4,   -0.4,   -0.3,   -0.4,   -0.3,   -0.3,   -0.4,   -0.5,   -0.4,   -0.3,   -0.5,   -0.4,   -0.4,   -0.3,   -0.3,   -0.3,   -0.3,   -0.5,   -0.5,   -0.4,   -0.5,   -0.5,   -0.5,   -0.6,   -0.4,   -0.4,   -0.4,   -0.3,   -0.3,   -0.4,   -0.5,   -0.5,   -0.4,   -0.5,   -0.5,   -0.4,   -0.4,   -0.4,   -0.4,   -0.4,   -0.3,   -0.2,   -0.2,   -0.3,   -0.4,   -0.6,   -0.4,   -0.3,   -0.2,   -0.1,   -0.2,   -0.6,    0.2,    0.1,    0.0,    0.0,   -0.1,   -0.5,   -0.2,    0.3,    0.0,   -0.1,   -0.2,   -0.2,   -0.1,   -0.3,   -0.1,   -0.3,   -0.3,    0.1,    0.1,    0.2,   -0.1,    0.0,    0.0,    0.1,    0.1,    0.1,    0.1,    0.2,    0.0,    0.1,    0.1,    0.1,   -0.0,    0.0,    0.1,    0.6,    0.8,    0.8,    0.7,    0.5,    0.6,    0.4,    0.4,    0.4,    0.4,    0.3,    0.3,    0.3,    0.3,    0.6,  999.0,  999.0,  999.0
2012/12/06 22:55,   -0.5,   -0.6,   -0.6,   -0.4,   -0.4,   -0.1,   -0.2,   -0.3,   -0.4,   -0.4,   -0.1,   -0.4,   -0.3,   -0.2,   -0.0,    0.0,   -0.1,   -0.1,   -0.2,   -0.2,   -0.2,   -0.3,   -0.2,   -0.2,   -0.2,   -0.2,   -0.3,   -0.2,   -0.2,   -0.3,   -0.3,   -0.3,   -0.2,   -0.3,   -0.3,   -0.3,   -0.3,   -0.5,   -0.4,   -0.3,   -0.4,   -0.1,   -0.1,   -0.3,   -0.4,   -0.6,   -0.4,   -0.3,   -0.6,   -0.7,   -0.6,   -0.6,   -0.3,   -0.5,   -0.3,   -0.4,   -0.5,   -0.4,   -0.5,   -0.5,   -0.6,   -0.3,   -0.1,   -0.4,   -0.5,   -0.3,   -0.4,    0.0,   -0.1,    0.1,   -0.1,   -0.0,   -0.0,   -0.1,    0.2,    0.2,   -0.0,   -0.0,    0.2,    0.1,   -0.2,   -0.1,   -0.1,   -0.5,   -0.0,   -0.1,    0.3,    0.0,    0.1,    0.1,    0.1,    0.0,   -0.0,   -0.0,    0.0,    0.1,    0.1,    0.3,    0.4,    0.2,  999.0,    0.4,  999.0,    0.7,    0.9,    1.0,    0.7,    0.4,    0.6,    0.7,    0.5,    0.5,    0.4,    0.5,    0.5,    0.4,    0.5,  999.0,    0.0,  999.0
2012/12/06 23:05,   -0.2,   -0.3,   -0.1,   -0.1,   -0.2,   -0.2,   -0.1,   -0.2,   -0.2,    0.1,   -0.1,    0.0,    0.1,    0.2,    0.2,    0.2,    0.3,    0.3,    0.3,    0.2,    0.2,    0.1,    0.2,    0.1,    0.1,    0.2,    0.1,   -0.1,    0.0,   -0.1,   -0.1,   -0.0,    0.0,   -0.0,   -0.1,  999.0,   -0.1,   -0.3,   -0.3,   -0.2,   -0.2,   -0.1,   -0.1,   -0.2,   -0.4,   -0.3,   -0.1,   -0.4,   -0.4,   -0.5,   -0.4,   -0.4,   -0.3,   -0.4,   -0.2,   -0.4,   -0.3,   -0.2,   -0.3,   -0.4,   -0.4,   -0.3,   -0.3,   -0.3,   -0.2,   -0.6,   -0.6,   -0.5,   -0.3,   -0.5,   -0.1,   -0.1,   -0.0,   -0.2,    0.1,    0.1,   -0.0,   -0.3,   -0.4,   -0.1,   -0.1,   -0.1,   -0.1,   -0.6,   -0.3,    0.0,   -0.0,   -0.0,   -0.2,    0.1,   -0.0,   -0.2,   -0.2,   -0.2,   -0.1,    0.1,    0.2,    0.3,    0.3,    0.3,    0.6,  999.0,  999.0,  999.0,    0.8,    0.9,    0.6,    0.5,    0.2,    0.3,    0.7,    0.7,    0.5,    0.7,    0.5,   -0.9,    0.4,    0.3,    0.7,    0.1
2012/12/06 23:15,    0.2,    0.1,    0.1,    0.1,    0.3,    0.1,    0.0,   -0.1,    0.0,    0.1,    0.2,   -0.1,   -0.1,    0.1,    0.2,    0.1,    0.1,    0.2,    0.2,   -0.0,   -0.1,    0.0,    0.1,    0.2,    0.1,    0.1,    0.0,    0.0,   -0.1,   -0.0,    0.0,    0.1,   -0.0,   -0.0,   -0.0,  999.0,   -0.2,   -0.1,   -0.2,   -0.1,   -0.1,   -0.1,   -0.2,   -0.2,   -0.2,   -0.1,   -0.1,   -0.3,   -0.5,   -0.5,   -0.3,   -0.3,   -0.2,   -0.1,    0.0,   -0.2,    0.1,    0.2,   -0.0,   -0.3,   -0.3,   -0.2,   -0.2,   -0.0,   -0.0,   -0.2,   -0.4,   -0.2,   -0.2,   -0.2,   -0.1,   -0.1,    0.2,   -0.1,    0.1,    0.2,    0.2,   -0.5,    0.0,    0.2,   -0.4,   -0.1,   -0.2,   -0.2,   -0.0,    0.0,    0.3,    0.3,    0.2,    0.4,    0.6,    0.5,    0.5,    0.5,    0.5,    0.5,    0.5,    0.7,    0.6,    0.6,    0.8,    0.5,    0.4,  999.0,    1.1,  999.0,    0.8,    0.8,    0.6,    0.8,    0.8,    0.9,    0.7,    0.6,    0.6,    0.5,  999.0,  999.0,    0.2,  999.0
2012/12/06 23:25,   -0.1,   -0.1,   -0.1,   -0.2,   -0.1,   -0.1,   -0.0,    0.0,    0.2,    0.2,    0.3,    0.2,    0.2,    0.3,    0.3,    0.4,    0.4,    0.2,    0.2,    0.1,    0.3,    0.2,    0.3,    0.3,    0.3,    0.2,    0.0,   -0.0,    0.1,    0.2,    0.2,    0.1,   -0.0,    0.1,    0.1,    0.1,    0.1,    0.1,   -0.1,    0.0,    0.1,    0.0,   -0.0,   -0.2,   -0.2,   -0.3,   -0.3,   -0.4,   -0.4,   -0.3,   -0.3,   -0.5,   -0.3,   -0.4,   -0.2,   -0.4,   -0.1,    0.1,   -0.5,   -0.6,   -0.5,   -0.3,   -0.3,   -0.4,   -0.1,   -0.1,   -0.3,   -0.2,   -0.1,   -0.4,   -0.5,   -0.5,   -0.4,   -0.2,   -0.0,    0.1,   -0.0,   -0.5,   -0.3,   -0.1,   -0.3,   -0.2,   -0.3,   -0.1,  999.0,    0.0,    0.3,    0.1,    0.0,    0.3,    0.3,    0.2,    0.4,    0.3,    0.3,    0.3,    0.4,    0.4,    0.4,    0.3,    0.3,    0.3,  999.0,  999.0,   -0.1,    0.6,    0.5,    0.4,    0.1,    0.5,    0.4,    0.5,    0.2,    0.4,    0.3,    0.1,  999.0,  999.0,  999.0,   -0.3
2012/12/06 23:35,   -0.1,   -0.2,   -0.2,    0.0,   -0.1,   -0.0,   -0.1,    0.2,    0.3,    0.4,    0.4,    0.3,    0.4,    0.5,    0.6,    0.5,    0.5,    0.4,    0.4,    0.4,    0.5,    0.5,    0.5,    0.3,    0.3,    0.3,    0.3,    0.1,    0.1,    0.1,    0.1,    0.1,    0.1,    0.1,    0.1,    0.0,   -0.0,   -0.0,   -0.1,    0.1,    0.2,    0.0,   -0.1,   -0.0,   -0.1,   -0.2,   -0.2,   -0.2,   -0.4,   -0.2,   -0.3,   -0.5,   -0.4,   -0.1,   -0.2,   -0.5,   -0.1,   -0.4,   -0.7,   -0.7,   -0.4,   -0.2,   -0.5,   -0.2,   -0.2,   -0.4,   -0.3,    0.0,   -0.3,   -0.4,   -0.4,   -0.5,   -0.3,   -0.2,   -0.2,    0.1,   -0.0,   -0.3,   -0.4,    0.2,   -0.2,   -0.2,   -0.2,   -0.2,   -0.0,   -0.0,    0.0,    0.1,    0.1,    0.1,    0.0,    0.1,    0.1,    0.1,    0.0,    0.2,    0.3,    0.2,    0.2,    0.2,    0.2,  999.0,    0.8,  999.0,    0.7,    0.6,    0.5,    0.5,    0.4,    0.7,    0.7,    0.8,    0.5,    0.4,    0.3,    0.4,  999.0,  999.0,    0.4,   -0.2
2012/12/06 23:45,   -0.1,   -0.0,   -0.2,    0.1,    0.0,    0.1,   -0.1,   -0.0,    0.1,    0.1,    0.2,    0.1,    0.2,    0.2,    0.2,    0.3,    0.2,    0.1,   -0.0,    0.0,    0.0,    0.0,   -0.1,   -0.1,    0.0,   -0.1,   -0.1,   -0.1,   -0.2,   -0.1,    0.0,   -0.2,   -0.2,   -0.2,  999.0,   -0.1,   -0.3,   -0.3,   -0.4,   -0.4,   -0.2,   -0.2,   -0.2,   -0.2,   -0.3,   -0.3,   -0.3,   -0.2,   -0.5,   -0.2,   -0.4,   -0.5,   -0.4,   -0.2,   -0.0,   -0.3,   -0.1,   -0.2,   -0.5,   -0.5,   -0.1,    0.0,   -0.3,   -0.3,   -0.4,   -0.1,   -0.2,   -0.1,   -0.2,   -0.2,   -0.1,   -0.2,   -0.1,   -0.0,    0.0,    0.0,    0.0,   -0.2,   -0.3,    0.3,    0.0,   -0.0,   -0.2,   -0.2,  999.0,    0.3,    0.3,    0.2,   -0.0,    0.3,    0.2,    0.4,    0.3,    0.3,    0.3,    0.6,    0.6,    0.4,    0.4,    0.3,    0.3,    0.3,  999.0,  999.0,  999.0,    0.7,    0.7,    0.8,    0.0,    0.6,    0.7,    0.7,    0.6,    0.6,    0.3,   -0.0,    0.0,  999.0,  999.0,  999.0
2012/12/06 23:55,   -0.3,   -0.2,   -0.1,   -0.1,   -0.0,   -0.1,   -0.0,   -0.1,   -0.2,   -0.1,   -0.3,   -0.1,   -0.0,   -0.1,   -0.1,   -0.1,   -0.0,   -0.2,   -0.2,   -0.1,   -0.1,   -0.3,   -0.2,   -0.2,   -0.2,   -0.2,   -0.2,   -0.2,   -0.2,   -0.2,   -0.2,   -0.3,   -0.4,   -0.5,   -0.2,   -0.3,   -0.4,   -0.3,   -0.5,   -0.6,   -0.5,   -0.3,   -0.2,   -0.2,   -0.4,   -0.3,   -0.2,   -0.3,   -0.4,   -0.2,   -0.4,   -0.8,   -0.5,   -0.3,    0.0,   -0.4,   -0.1,   -0.2,   -0.5,   -0.7,   -0.0,    0.1,   -0.1,   -0.4,   -0.4,    0.0,    0.0,   -0.1,   -0.2,   -0.3,   -0.2,   -0.1,   -0.1,   -0.2,   -0.1,    0.0,   -0.2,   -0.3,   -0.1,    0.0,   -0.1,    0.4,   -0.4,  999.0,   -0.3,    0.3,    0.2,    0.2,   -0.0,    0.3,    0.5,    0.3,    0.2,    0.2,    0.1,    0.0,    0.1,    0.1,    0.1,    0.1,   -0.1,   -0.2,  999.0,    1.0,  999.0,   -0.0,    0.3,    0.2,   -0.1,    0.2,    0.2,    0.3,    0.2,    0.2,    0.0,    0.2,    0.0,  999.0,   -0.1,   -0.1
